<?xml version="1.0" encoding="UTF-8" standalone="no" ?>
<gpx xmlns="http://www.topografix.com/GPX/1/1" xmlns:xsi="http://www.w3.org/2001/XMLSchema-instance" xsi:schemaLocation="http://www.topografix.com/GPX/1/1 http://www.topografix.com/GPX/1/1/gpx.xsd" version="1.1" creator="VisuGPX - https://www.visugpx.com">
  <metadata>
    <name>essai bois du cri</name>
    <desc><![CDATA[essai non concluant]]></desc>
  </metadata>
  <trk>
    <name><![CDATA[vtt eric]]></name>
    <trkseg>
      <trkpt lat="45.59444" lon="4.31111">
        <ele>387</ele>
        <time>2015-07-27T15:44:02.000Z</time>
      </trkpt>
      <trkpt lat="45.5945" lon="4.31121">
        <ele>387.60000610352</ele>
        <time>2015-07-27T15:44:05.000Z</time>
      </trkpt>
      <trkpt lat="45.59446" lon="4.31143">
        <ele>388</ele>
        <time>2015-07-27T15:44:12.000Z</time>
      </trkpt>
      <trkpt lat="45.59442" lon="4.31146">
        <ele>387.79998779297</ele>
        <time>2015-07-27T15:44:14.000Z</time>
      </trkpt>
      <trkpt lat="45.5943" lon="4.31174">
        <ele>388.20001220703</ele>
        <time>2015-07-27T15:44:21.000Z</time>
      </trkpt>
      <trkpt lat="45.59419" lon="4.31193">
        <ele>388.60000610352</ele>
        <time>2015-07-27T15:44:28.000Z</time>
      </trkpt>
      <trkpt lat="45.5941" lon="4.31224">
        <ele>389.60000610352</ele>
        <time>2015-07-27T15:44:34.000Z</time>
      </trkpt>
      <trkpt lat="45.59392" lon="4.31243">
        <ele>390.39999389648</ele>
        <time>2015-07-27T15:44:39.000Z</time>
      </trkpt>
      <trkpt lat="45.59379" lon="4.31255">
        <ele>390.60000610352</ele>
        <time>2015-07-27T15:44:43.000Z</time>
      </trkpt>
      <trkpt lat="45.5937" lon="4.31243">
        <ele>389.79998779297</ele>
        <time>2015-07-27T15:44:48.000Z</time>
      </trkpt>
      <trkpt lat="45.59365" lon="4.31212">
        <ele>388.20001220703</ele>
        <time>2015-07-27T15:44:53.000Z</time>
      </trkpt>
      <trkpt lat="45.5936" lon="4.31199">
        <ele>387.39999389648</ele>
        <time>2015-07-27T15:44:55.000Z</time>
      </trkpt>
      <trkpt lat="45.59343" lon="4.31203">
        <ele>387.20001220703</ele>
        <time>2015-07-27T15:44:59.000Z</time>
      </trkpt>
      <trkpt lat="45.59335" lon="4.3121">
        <ele>387.39999389648</ele>
        <time>2015-07-27T15:45:01.000Z</time>
      </trkpt>
      <trkpt lat="45.59317" lon="4.31227">
        <ele>387.79998779297</ele>
        <time>2015-07-27T15:45:05.000Z</time>
      </trkpt>
      <trkpt lat="45.59296" lon="4.3124">
        <ele>387.60000610352</ele>
        <time>2015-07-27T15:45:09.000Z</time>
      </trkpt>
      <trkpt lat="45.59276" lon="4.31258">
        <ele>386.60000610352</ele>
        <time>2015-07-27T15:45:13.000Z</time>
      </trkpt>
      <trkpt lat="45.59261" lon="4.31274">
        <ele>385.79998779297</ele>
        <time>2015-07-27T15:45:16.000Z</time>
      </trkpt>
      <trkpt lat="45.59244" lon="4.31292">
        <ele>385</ele>
        <time>2015-07-27T15:45:19.000Z</time>
      </trkpt>
      <trkpt lat="45.59226" lon="4.31317">
        <ele>385.20001220703</ele>
        <time>2015-07-27T15:45:22.000Z</time>
      </trkpt>
      <trkpt lat="45.59219" lon="4.3132">
        <ele>385</ele>
        <time>2015-07-27T15:45:23.000Z</time>
      </trkpt>
      <trkpt lat="45.592" lon="4.31329">
        <ele>385</ele>
        <time>2015-07-27T15:45:26.000Z</time>
      </trkpt>
      <trkpt lat="45.5918" lon="4.3134">
        <ele>385.20001220703</ele>
        <time>2015-07-27T15:45:29.000Z</time>
      </trkpt>
      <trkpt lat="45.59175" lon="4.31347">
        <ele>385.39999389648</ele>
        <time>2015-07-27T15:45:30.000Z</time>
      </trkpt>
      <trkpt lat="45.59165" lon="4.3137">
        <ele>386.60000610352</ele>
        <time>2015-07-27T15:45:33.000Z</time>
      </trkpt>
      <trkpt lat="45.59159" lon="4.31383">
        <ele>387.60000610352</ele>
        <time>2015-07-27T15:45:35.000Z</time>
      </trkpt>
      <trkpt lat="45.59149" lon="4.31407">
        <ele>388.79998779297</ele>
        <time>2015-07-27T15:45:39.000Z</time>
      </trkpt>
      <trkpt lat="45.59138" lon="4.31433">
        <ele>390.20001220703</ele>
        <time>2015-07-27T15:45:44.000Z</time>
      </trkpt>
      <trkpt lat="45.59127" lon="4.31453">
        <ele>391.20001220703</ele>
        <time>2015-07-27T15:45:50.000Z</time>
      </trkpt>
      <trkpt lat="45.59124" lon="4.31454">
        <ele>391.20001220703</ele>
        <time>2015-07-27T15:45:51.000Z</time>
      </trkpt>
      <trkpt lat="45.59104" lon="4.31455">
        <ele>390.39999389648</ele>
        <time>2015-07-27T15:45:56.000Z</time>
      </trkpt>
      <trkpt lat="45.59085" lon="4.31457">
        <ele>389.79998779297</ele>
        <time>2015-07-27T15:46:00.000Z</time>
      </trkpt>
      <trkpt lat="45.59067" lon="4.31456">
        <ele>388.79998779297</ele>
        <time>2015-07-27T15:46:03.000Z</time>
      </trkpt>
      <trkpt lat="45.59048" lon="4.31455">
        <ele>387.39999389648</ele>
        <time>2015-07-27T15:46:06.000Z</time>
      </trkpt>
      <trkpt lat="45.59027" lon="4.31451">
        <ele>385.60000610352</ele>
        <time>2015-07-27T15:46:09.000Z</time>
      </trkpt>
      <trkpt lat="45.59006" lon="4.31445">
        <ele>383.60000610352</ele>
        <time>2015-07-27T15:46:12.000Z</time>
      </trkpt>
      <trkpt lat="45.58984" lon="4.31437">
        <ele>381.39999389648</ele>
        <time>2015-07-27T15:46:15.000Z</time>
      </trkpt>
      <trkpt lat="45.58969" lon="4.31429">
        <ele>379.79998779297</ele>
        <time>2015-07-27T15:46:17.000Z</time>
      </trkpt>
      <trkpt lat="45.58946" lon="4.31416">
        <ele>378.20001220703</ele>
        <time>2015-07-27T15:46:20.000Z</time>
      </trkpt>
      <trkpt lat="45.58919" lon="4.31415">
        <ele>376.79998779297</ele>
        <time>2015-07-27T15:46:23.000Z</time>
      </trkpt>
      <trkpt lat="45.58901" lon="4.3141">
        <ele>375.20001220703</ele>
        <time>2015-07-27T15:46:25.000Z</time>
      </trkpt>
      <trkpt lat="45.58891" lon="4.31408">
        <ele>374.60000610352</ele>
        <time>2015-07-27T15:46:26.000Z</time>
      </trkpt>
      <trkpt lat="45.58872" lon="4.31403">
        <ele>373.60000610352</ele>
        <time>2015-07-27T15:46:28.000Z</time>
      </trkpt>
      <trkpt lat="45.58853" lon="4.31397">
        <ele>373</ele>
        <time>2015-07-27T15:46:30.000Z</time>
      </trkpt>
      <trkpt lat="45.58835" lon="4.31392">
        <ele>372.39999389648</ele>
        <time>2015-07-27T15:46:32.000Z</time>
      </trkpt>
      <trkpt lat="45.58817" lon="4.31386">
        <ele>371.79998779297</ele>
        <time>2015-07-27T15:46:34.000Z</time>
      </trkpt>
      <trkpt lat="45.58791" lon="4.31378">
        <ele>371.60000610352</ele>
        <time>2015-07-27T15:46:37.000Z</time>
      </trkpt>
      <trkpt lat="45.58767" lon="4.31372">
        <ele>372.60000610352</ele>
        <time>2015-07-27T15:46:40.000Z</time>
      </trkpt>
      <trkpt lat="45.58752" lon="4.31367">
        <ele>373.39999389648</ele>
        <time>2015-07-27T15:46:42.000Z</time>
      </trkpt>
      <trkpt lat="45.58734" lon="4.31348">
        <ele>374.20001220703</ele>
        <time>2015-07-27T15:46:45.000Z</time>
      </trkpt>
      <trkpt lat="45.58723" lon="4.31327">
        <ele>374.79998779297</ele>
        <time>2015-07-27T15:46:48.000Z</time>
      </trkpt>
      <trkpt lat="45.58717" lon="4.31312">
        <ele>375</ele>
        <time>2015-07-27T15:46:50.000Z</time>
      </trkpt>
      <trkpt lat="45.58705" lon="4.31284">
        <ele>375.39999389648</ele>
        <time>2015-07-27T15:46:54.000Z</time>
      </trkpt>
      <trkpt lat="45.58693" lon="4.31258">
        <ele>375.60000610352</ele>
        <time>2015-07-27T15:46:58.000Z</time>
      </trkpt>
      <trkpt lat="45.58681" lon="4.31233">
        <ele>375.79998779297</ele>
        <time>2015-07-27T15:47:02.000Z</time>
      </trkpt>
      <trkpt lat="45.58668" lon="4.31208">
        <ele>376.20001220703</ele>
        <time>2015-07-27T15:47:06.000Z</time>
      </trkpt>
      <trkpt lat="45.58654" lon="4.31183">
        <ele>376.60000610352</ele>
        <time>2015-07-27T15:47:10.000Z</time>
      </trkpt>
      <trkpt lat="45.5864" lon="4.31158">
        <ele>376.79998779297</ele>
        <time>2015-07-27T15:47:14.000Z</time>
      </trkpt>
      <trkpt lat="45.58624" lon="4.31134">
        <ele>377.20001220703</ele>
        <time>2015-07-27T15:47:18.000Z</time>
      </trkpt>
      <trkpt lat="45.58616" lon="4.31122">
        <ele>377.20001220703</ele>
        <time>2015-07-27T15:47:20.000Z</time>
      </trkpt>
      <trkpt lat="45.58603" lon="4.31138">
        <ele>377.39999389648</ele>
        <time>2015-07-27T15:47:24.000Z</time>
      </trkpt>
      <trkpt lat="45.58588" lon="4.31159">
        <ele>377.39999389648</ele>
        <time>2015-07-27T15:47:28.000Z</time>
      </trkpt>
      <trkpt lat="45.58579" lon="4.31165">
        <ele>377.39999389648</ele>
        <time>2015-07-27T15:47:30.000Z</time>
      </trkpt>
      <trkpt lat="45.58562" lon="4.31176">
        <ele>377.20001220703</ele>
        <time>2015-07-27T15:47:34.000Z</time>
      </trkpt>
      <trkpt lat="45.58558" lon="4.31179">
        <ele>377.20001220703</ele>
        <time>2015-07-27T15:47:35.000Z</time>
      </trkpt>
      <trkpt lat="45.58545" lon="4.31199">
        <ele>377</ele>
        <time>2015-07-27T15:47:39.000Z</time>
      </trkpt>
      <trkpt lat="45.58541" lon="4.31225">
        <ele>377.20001220703</ele>
        <time>2015-07-27T15:47:43.000Z</time>
      </trkpt>
      <trkpt lat="45.58541" lon="4.31239">
        <ele>377.20001220703</ele>
        <time>2015-07-27T15:47:45.000Z</time>
      </trkpt>
      <trkpt lat="45.58542" lon="4.31267">
        <ele>377.20001220703</ele>
        <time>2015-07-27T15:47:49.000Z</time>
      </trkpt>
      <trkpt lat="45.58545" lon="4.31281">
        <ele>377.20001220703</ele>
        <time>2015-07-27T15:47:51.000Z</time>
      </trkpt>
      <trkpt lat="45.58549" lon="4.31294">
        <ele>377.39999389648</ele>
        <time>2015-07-27T15:47:53.000Z</time>
      </trkpt>
      <trkpt lat="45.58558" lon="4.31319">
        <ele>377.79998779297</ele>
        <time>2015-07-27T15:47:57.000Z</time>
      </trkpt>
      <trkpt lat="45.58562" lon="4.31332">
        <ele>378.20001220703</ele>
        <time>2015-07-27T15:47:59.000Z</time>
      </trkpt>
      <trkpt lat="45.58563" lon="4.31359">
        <ele>378.79998779297</ele>
        <time>2015-07-27T15:48:03.000Z</time>
      </trkpt>
      <trkpt lat="45.58562" lon="4.31388">
        <ele>379.20001220703</ele>
        <time>2015-07-27T15:48:07.000Z</time>
      </trkpt>
      <trkpt lat="45.58562" lon="4.31417">
        <ele>379.60000610352</ele>
        <time>2015-07-27T15:48:11.000Z</time>
      </trkpt>
      <trkpt lat="45.58565" lon="4.31447">
        <ele>380</ele>
        <time>2015-07-27T15:48:15.000Z</time>
      </trkpt>
      <trkpt lat="45.58564" lon="4.31455">
        <ele>380</ele>
        <time>2015-07-27T15:48:16.000Z</time>
      </trkpt>
      <trkpt lat="45.58549" lon="4.31463">
        <ele>380.20001220703</ele>
        <time>2015-07-27T15:48:20.000Z</time>
      </trkpt>
      <trkpt lat="45.58545" lon="4.31462">
        <ele>380.20001220703</ele>
        <time>2015-07-27T15:48:21.000Z</time>
      </trkpt>
      <trkpt lat="45.58526" lon="4.31457">
        <ele>380.20001220703</ele>
        <time>2015-07-27T15:48:25.000Z</time>
      </trkpt>
      <trkpt lat="45.58507" lon="4.31451">
        <ele>380</ele>
        <time>2015-07-27T15:48:29.000Z</time>
      </trkpt>
      <trkpt lat="45.58487" lon="4.31446">
        <ele>380</ele>
        <time>2015-07-27T15:48:33.000Z</time>
      </trkpt>
      <trkpt lat="45.58466" lon="4.31441">
        <ele>380</ele>
        <time>2015-07-27T15:48:37.000Z</time>
      </trkpt>
      <trkpt lat="45.58444" lon="4.31436">
        <ele>380.39999389648</ele>
        <time>2015-07-27T15:48:41.000Z</time>
      </trkpt>
      <trkpt lat="45.58423" lon="4.31431">
        <ele>381</ele>
        <time>2015-07-27T15:48:45.000Z</time>
      </trkpt>
      <trkpt lat="45.58402" lon="4.31426">
        <ele>381.39999389648</ele>
        <time>2015-07-27T15:48:49.000Z</time>
      </trkpt>
      <trkpt lat="45.58382" lon="4.3142">
        <ele>381.79998779297</ele>
        <time>2015-07-27T15:48:53.000Z</time>
      </trkpt>
      <trkpt lat="45.58377" lon="4.31419">
        <ele>382</ele>
        <time>2015-07-27T15:48:54.000Z</time>
      </trkpt>
      <trkpt lat="45.58357" lon="4.31413">
        <ele>382.60000610352</ele>
        <time>2015-07-27T15:48:58.000Z</time>
      </trkpt>
      <trkpt lat="45.58338" lon="4.31406">
        <ele>383.20001220703</ele>
        <time>2015-07-27T15:49:02.000Z</time>
      </trkpt>
      <trkpt lat="45.58319" lon="4.31403">
        <ele>383.60000610352</ele>
        <time>2015-07-27T15:49:06.000Z</time>
      </trkpt>
      <trkpt lat="45.583" lon="4.314">
        <ele>384</ele>
        <time>2015-07-27T15:49:10.000Z</time>
      </trkpt>
      <trkpt lat="45.58283" lon="4.31396">
        <ele>384.60000610352</ele>
        <time>2015-07-27T15:49:14.000Z</time>
      </trkpt>
      <trkpt lat="45.58265" lon="4.31397">
        <ele>385.39999389648</ele>
        <time>2015-07-27T15:49:19.000Z</time>
      </trkpt>
      <trkpt lat="45.58256" lon="4.31418">
        <ele>385.39999389648</ele>
        <time>2015-07-27T15:49:23.000Z</time>
      </trkpt>
      <trkpt lat="45.58246" lon="4.31446">
        <ele>385.39999389648</ele>
        <time>2015-07-27T15:49:28.000Z</time>
      </trkpt>
      <trkpt lat="45.58236" lon="4.31474">
        <ele>385.79998779297</ele>
        <time>2015-07-27T15:49:33.000Z</time>
      </trkpt>
      <trkpt lat="45.58227" lon="4.31496">
        <ele>386.39999389648</ele>
        <time>2015-07-27T15:49:37.000Z</time>
      </trkpt>
      <trkpt lat="45.58217" lon="4.31519">
        <ele>387</ele>
        <time>2015-07-27T15:49:41.000Z</time>
      </trkpt>
      <trkpt lat="45.58206" lon="4.3154">
        <ele>387.60000610352</ele>
        <time>2015-07-27T15:49:45.000Z</time>
      </trkpt>
      <trkpt lat="45.58193" lon="4.31565">
        <ele>388.39999389648</ele>
        <time>2015-07-27T15:49:50.000Z</time>
      </trkpt>
      <trkpt lat="45.58181" lon="4.31585">
        <ele>389.20001220703</ele>
        <time>2015-07-27T15:49:55.000Z</time>
      </trkpt>
      <trkpt lat="45.58177" lon="4.31592">
        <ele>389.79998779297</ele>
        <time>2015-07-27T15:49:57.000Z</time>
      </trkpt>
      <trkpt lat="45.58164" lon="4.3161">
        <ele>391.20001220703</ele>
        <time>2015-07-27T15:50:02.000Z</time>
      </trkpt>
      <trkpt lat="45.5815" lon="4.3163">
        <ele>392.20001220703</ele>
        <time>2015-07-27T15:50:07.000Z</time>
      </trkpt>
      <trkpt lat="45.58137" lon="4.3165">
        <ele>393</ele>
        <time>2015-07-27T15:50:12.000Z</time>
      </trkpt>
      <trkpt lat="45.58124" lon="4.31672">
        <ele>393.20001220703</ele>
        <time>2015-07-27T15:50:17.000Z</time>
      </trkpt>
      <trkpt lat="45.58111" lon="4.31692">
        <ele>393.79998779297</ele>
        <time>2015-07-27T15:50:22.000Z</time>
      </trkpt>
      <trkpt lat="45.58099" lon="4.31712">
        <ele>394.39999389648</ele>
        <time>2015-07-27T15:50:27.000Z</time>
      </trkpt>
      <trkpt lat="45.58086" lon="4.31733">
        <ele>395.20001220703</ele>
        <time>2015-07-27T15:50:32.000Z</time>
      </trkpt>
      <trkpt lat="45.58072" lon="4.31754">
        <ele>396</ele>
        <time>2015-07-27T15:50:37.000Z</time>
      </trkpt>
      <trkpt lat="45.58058" lon="4.31773">
        <ele>396.60000610352</ele>
        <time>2015-07-27T15:50:42.000Z</time>
      </trkpt>
      <trkpt lat="45.5804" lon="4.31787">
        <ele>397.60000610352</ele>
        <time>2015-07-27T15:50:47.000Z</time>
      </trkpt>
      <trkpt lat="45.58021" lon="4.31794">
        <ele>398.60000610352</ele>
        <time>2015-07-27T15:50:52.000Z</time>
      </trkpt>
      <trkpt lat="45.58002" lon="4.31794">
        <ele>399.20001220703</ele>
        <time>2015-07-27T15:50:57.000Z</time>
      </trkpt>
      <trkpt lat="45.57982" lon="4.3179">
        <ele>399.79998779297</ele>
        <time>2015-07-27T15:51:02.000Z</time>
      </trkpt>
      <trkpt lat="45.57963" lon="4.31781">
        <ele>400.20001220703</ele>
        <time>2015-07-27T15:51:07.000Z</time>
      </trkpt>
      <trkpt lat="45.57944" lon="4.31769">
        <ele>400.20001220703</ele>
        <time>2015-07-27T15:51:12.000Z</time>
      </trkpt>
      <trkpt lat="45.57925" lon="4.31755">
        <ele>400.20001220703</ele>
        <time>2015-07-27T15:51:17.000Z</time>
      </trkpt>
      <trkpt lat="45.57908" lon="4.31741">
        <ele>400</ele>
        <time>2015-07-27T15:51:21.000Z</time>
      </trkpt>
      <trkpt lat="45.57891" lon="4.31726">
        <ele>400</ele>
        <time>2015-07-27T15:51:25.000Z</time>
      </trkpt>
      <trkpt lat="45.57874" lon="4.31712">
        <ele>399.60000610352</ele>
        <time>2015-07-27T15:51:29.000Z</time>
      </trkpt>
      <trkpt lat="45.57857" lon="4.31698">
        <ele>399.39999389648</ele>
        <time>2015-07-27T15:51:33.000Z</time>
      </trkpt>
      <trkpt lat="45.57839" lon="4.31684">
        <ele>399.20001220703</ele>
        <time>2015-07-27T15:51:37.000Z</time>
      </trkpt>
      <trkpt lat="45.57821" lon="4.31672">
        <ele>399.20001220703</ele>
        <time>2015-07-27T15:51:41.000Z</time>
      </trkpt>
      <trkpt lat="45.57801" lon="4.3166">
        <ele>399.20001220703</ele>
        <time>2015-07-27T15:51:45.000Z</time>
      </trkpt>
      <trkpt lat="45.57781" lon="4.3165">
        <ele>399.39999389648</ele>
        <time>2015-07-27T15:51:49.000Z</time>
      </trkpt>
      <trkpt lat="45.57761" lon="4.31642">
        <ele>399.60000610352</ele>
        <time>2015-07-27T15:51:53.000Z</time>
      </trkpt>
      <trkpt lat="45.57746" lon="4.31638">
        <ele>400</ele>
        <time>2015-07-27T15:51:56.000Z</time>
      </trkpt>
      <trkpt lat="45.57725" lon="4.31642">
        <ele>400.79998779297</ele>
        <time>2015-07-27T15:52:00.000Z</time>
      </trkpt>
      <trkpt lat="45.57704" lon="4.31649">
        <ele>401</ele>
        <time>2015-07-27T15:52:04.000Z</time>
      </trkpt>
      <trkpt lat="45.5769" lon="4.31656">
        <ele>401.20001220703</ele>
        <time>2015-07-27T15:52:07.000Z</time>
      </trkpt>
      <trkpt lat="45.5769" lon="4.31682">
        <ele>402.39999389648</ele>
        <time>2015-07-27T15:52:11.000Z</time>
      </trkpt>
      <trkpt lat="45.57692" lon="4.31694">
        <ele>402.79998779297</ele>
        <time>2015-07-27T15:52:13.000Z</time>
      </trkpt>
      <trkpt lat="45.57694" lon="4.31704">
        <ele>403.39999389648</ele>
        <time>2015-07-27T15:52:15.000Z</time>
      </trkpt>
      <trkpt lat="45.57699" lon="4.31733">
        <ele>404.79998779297</ele>
        <time>2015-07-27T15:52:21.000Z</time>
      </trkpt>
      <trkpt lat="45.57702" lon="4.31762">
        <ele>406.20001220703</ele>
        <time>2015-07-27T15:52:27.000Z</time>
      </trkpt>
      <trkpt lat="45.57702" lon="4.31771">
        <ele>406.39999389648</ele>
        <time>2015-07-27T15:52:29.000Z</time>
      </trkpt>
      <trkpt lat="45.57701" lon="4.31798">
        <ele>407.39999389648</ele>
        <time>2015-07-27T15:52:35.000Z</time>
      </trkpt>
      <trkpt lat="45.57698" lon="4.31825">
        <ele>408.39999389648</ele>
        <time>2015-07-27T15:52:41.000Z</time>
      </trkpt>
      <trkpt lat="45.57695" lon="4.31854">
        <ele>409.79998779297</ele>
        <time>2015-07-27T15:52:48.000Z</time>
      </trkpt>
      <trkpt lat="45.57691" lon="4.3188">
        <ele>412</ele>
        <time>2015-07-27T15:52:55.000Z</time>
      </trkpt>
      <trkpt lat="45.57683" lon="4.31905">
        <ele>414.39999389648</ele>
        <time>2015-07-27T15:53:03.000Z</time>
      </trkpt>
      <trkpt lat="45.57671" lon="4.31926">
        <ele>416</ele>
        <time>2015-07-27T15:53:10.000Z</time>
      </trkpt>
      <trkpt lat="45.57657" lon="4.31946">
        <ele>417.60000610352</ele>
        <time>2015-07-27T15:53:18.000Z</time>
      </trkpt>
      <trkpt lat="45.57642" lon="4.31966">
        <ele>419.60000610352</ele>
        <time>2015-07-27T15:53:26.000Z</time>
      </trkpt>
      <trkpt lat="45.57626" lon="4.31983">
        <ele>421.20001220703</ele>
        <time>2015-07-27T15:53:34.000Z</time>
      </trkpt>
      <trkpt lat="45.57613" lon="4.32004">
        <ele>423</ele>
        <time>2015-07-27T15:53:42.000Z</time>
      </trkpt>
      <trkpt lat="45.5761" lon="4.32006">
        <ele>423</ele>
        <time>2015-07-27T15:53:43.000Z</time>
      </trkpt>
      <trkpt lat="45.57606" lon="4.32005">
        <ele>422.79998779297</ele>
        <time>2015-07-27T15:53:44.000Z</time>
      </trkpt>
      <trkpt lat="45.57586" lon="4.32007">
        <ele>422</ele>
        <time>2015-07-27T15:53:48.000Z</time>
      </trkpt>
      <trkpt lat="45.57579" lon="4.32008">
        <ele>421.79998779297</ele>
        <time>2015-07-27T15:53:49.000Z</time>
      </trkpt>
      <trkpt lat="45.57558" lon="4.32013">
        <ele>421</ele>
        <time>2015-07-27T15:53:52.000Z</time>
      </trkpt>
      <trkpt lat="45.5755" lon="4.32015">
        <ele>420.79998779297</ele>
        <time>2015-07-27T15:53:53.000Z</time>
      </trkpt>
      <trkpt lat="45.57532" lon="4.32012">
        <ele>419.79998779297</ele>
        <time>2015-07-27T15:53:55.000Z</time>
      </trkpt>
      <trkpt lat="45.57514" lon="4.32005">
        <ele>418.20001220703</ele>
        <time>2015-07-27T15:53:57.000Z</time>
      </trkpt>
      <trkpt lat="45.57496" lon="4.31999">
        <ele>416.60000610352</ele>
        <time>2015-07-27T15:53:59.000Z</time>
      </trkpt>
      <trkpt lat="45.57488" lon="4.31997">
        <ele>415.79998779297</ele>
        <time>2015-07-27T15:54:00.000Z</time>
      </trkpt>
      <trkpt lat="45.5748" lon="4.31996">
        <ele>415.20001220703</ele>
        <time>2015-07-27T15:54:01.000Z</time>
      </trkpt>
      <trkpt lat="45.57465" lon="4.32008">
        <ele>415</ele>
        <time>2015-07-27T15:54:04.000Z</time>
      </trkpt>
      <trkpt lat="45.57463" lon="4.32024">
        <ele>415.79998779297</ele>
        <time>2015-07-27T15:54:06.000Z</time>
      </trkpt>
      <trkpt lat="45.57462" lon="4.32031">
        <ele>416</ele>
        <time>2015-07-27T15:54:07.000Z</time>
      </trkpt>
      <trkpt lat="45.57461" lon="4.32059">
        <ele>417.39999389648</ele>
        <time>2015-07-27T15:54:14.000Z</time>
      </trkpt>
      <trkpt lat="45.57459" lon="4.32087">
        <ele>418.79998779297</ele>
        <time>2015-07-27T15:54:22.000Z</time>
      </trkpt>
      <trkpt lat="45.5745" lon="4.32111">
        <ele>419.60000610352</ele>
        <time>2015-07-27T15:54:30.000Z</time>
      </trkpt>
      <trkpt lat="45.57431" lon="4.32122">
        <ele>420.20001220703</ele>
        <time>2015-07-27T15:54:38.000Z</time>
      </trkpt>
      <trkpt lat="45.57417" lon="4.3214">
        <ele>421.60000610352</ele>
        <time>2015-07-27T15:54:46.000Z</time>
      </trkpt>
      <trkpt lat="45.5741" lon="4.32167">
        <ele>424</ele>
        <time>2015-07-27T15:54:54.000Z</time>
      </trkpt>
      <trkpt lat="45.57398" lon="4.32187">
        <ele>426</ele>
        <time>2015-07-27T15:55:02.000Z</time>
      </trkpt>
      <trkpt lat="45.5738" lon="4.32193">
        <ele>426.79998779297</ele>
        <time>2015-07-27T15:55:09.000Z</time>
      </trkpt>
      <trkpt lat="45.57361" lon="4.32198">
        <ele>427</ele>
        <time>2015-07-27T15:55:16.000Z</time>
      </trkpt>
      <trkpt lat="45.57343" lon="4.32203">
        <ele>427.39999389648</ele>
        <time>2015-07-27T15:55:23.000Z</time>
      </trkpt>
      <trkpt lat="45.57325" lon="4.32208">
        <ele>427.79998779297</ele>
        <time>2015-07-27T15:55:30.000Z</time>
      </trkpt>
      <trkpt lat="45.5731" lon="4.32221">
        <ele>428.79998779297</ele>
        <time>2015-07-27T15:55:37.000Z</time>
      </trkpt>
      <trkpt lat="45.57308" lon="4.32249">
        <ele>430.79998779297</ele>
        <time>2015-07-27T15:55:45.000Z</time>
      </trkpt>
      <trkpt lat="45.57305" lon="4.32277">
        <ele>432.79998779297</ele>
        <time>2015-07-27T15:55:54.000Z</time>
      </trkpt>
      <trkpt lat="45.57302" lon="4.32303">
        <ele>435.39999389648</ele>
        <time>2015-07-27T15:56:02.000Z</time>
      </trkpt>
      <trkpt lat="45.5729" lon="4.32325">
        <ele>438</ele>
        <time>2015-07-27T15:56:11.000Z</time>
      </trkpt>
      <trkpt lat="45.57277" lon="4.32345">
        <ele>440.20001220703</ele>
        <time>2015-07-27T15:56:19.000Z</time>
      </trkpt>
      <trkpt lat="45.57265" lon="4.32365">
        <ele>442</ele>
        <time>2015-07-27T15:56:26.000Z</time>
      </trkpt>
      <trkpt lat="45.57252" lon="4.32386">
        <ele>442.79998779297</ele>
        <time>2015-07-27T15:56:33.000Z</time>
      </trkpt>
      <trkpt lat="45.5724" lon="4.32406">
        <ele>443.79998779297</ele>
        <time>2015-07-27T15:56:39.000Z</time>
      </trkpt>
      <trkpt lat="45.57228" lon="4.32426">
        <ele>444.79998779297</ele>
        <time>2015-07-27T15:56:45.000Z</time>
      </trkpt>
      <trkpt lat="45.57213" lon="4.32448">
        <ele>446</ele>
        <time>2015-07-27T15:56:52.000Z</time>
      </trkpt>
      <trkpt lat="45.57201" lon="4.32468">
        <ele>446.60000610352</ele>
        <time>2015-07-27T15:56:58.000Z</time>
      </trkpt>
      <trkpt lat="45.57189" lon="4.32488">
        <ele>447.20001220703</ele>
        <time>2015-07-27T15:57:04.000Z</time>
      </trkpt>
      <trkpt lat="45.57176" lon="4.32506">
        <ele>448.39999389648</ele>
        <time>2015-07-27T15:57:10.000Z</time>
      </trkpt>
      <trkpt lat="45.57161" lon="4.32524">
        <ele>450.20001220703</ele>
        <time>2015-07-27T15:57:17.000Z</time>
      </trkpt>
      <trkpt lat="45.57148" lon="4.32542">
        <ele>451.39999389648</ele>
        <time>2015-07-27T15:57:23.000Z</time>
      </trkpt>
      <trkpt lat="45.57137" lon="4.32566">
        <ele>452.20001220703</ele>
        <time>2015-07-27T15:57:30.000Z</time>
      </trkpt>
      <trkpt lat="45.57125" lon="4.32586">
        <ele>453</ele>
        <time>2015-07-27T15:57:36.000Z</time>
      </trkpt>
      <trkpt lat="45.57111" lon="4.32609">
        <ele>454.79998779297</ele>
        <time>2015-07-27T15:57:43.000Z</time>
      </trkpt>
      <trkpt lat="45.57097" lon="4.3263">
        <ele>457.20001220703</ele>
        <time>2015-07-27T15:57:50.000Z</time>
      </trkpt>
      <trkpt lat="45.57081" lon="4.32648">
        <ele>459.39999389648</ele>
        <time>2015-07-27T15:57:58.000Z</time>
      </trkpt>
      <trkpt lat="45.57068" lon="4.32668">
        <ele>461.20001220703</ele>
        <time>2015-07-27T15:58:06.000Z</time>
      </trkpt>
      <trkpt lat="45.57055" lon="4.32687">
        <ele>463.20001220703</ele>
        <time>2015-07-27T15:58:14.000Z</time>
      </trkpt>
      <trkpt lat="45.57039" lon="4.32705">
        <ele>464.79998779297</ele>
        <time>2015-07-27T15:58:23.000Z</time>
      </trkpt>
      <trkpt lat="45.57025" lon="4.32724">
        <ele>466.20001220703</ele>
        <time>2015-07-27T15:58:32.000Z</time>
      </trkpt>
      <trkpt lat="45.5701" lon="4.32741">
        <ele>467.60000610352</ele>
        <time>2015-07-27T15:58:41.000Z</time>
      </trkpt>
      <trkpt lat="45.57007" lon="4.32745">
        <ele>468</ele>
        <time>2015-07-27T15:58:43.000Z</time>
      </trkpt>
      <trkpt lat="45.57" lon="4.32756">
        <ele>469.20001220703</ele>
        <time>2015-07-27T15:58:49.000Z</time>
      </trkpt>
      <trkpt lat="45.56985" lon="4.32774">
        <ele>471</ele>
        <time>2015-07-27T15:58:59.000Z</time>
      </trkpt>
      <trkpt lat="45.5697" lon="4.3279">
        <ele>472.39999389648</ele>
        <time>2015-07-27T15:59:08.000Z</time>
      </trkpt>
      <trkpt lat="45.56952" lon="4.328">
        <ele>474.20001220703</ele>
        <time>2015-07-27T15:59:17.000Z</time>
      </trkpt>
      <trkpt lat="45.56935" lon="4.32807">
        <ele>476</ele>
        <time>2015-07-27T15:59:26.000Z</time>
      </trkpt>
      <trkpt lat="45.56916" lon="4.32814">
        <ele>478</ele>
        <time>2015-07-27T15:59:36.000Z</time>
      </trkpt>
      <trkpt lat="45.56898" lon="4.32822">
        <ele>479.60000610352</ele>
        <time>2015-07-27T15:59:45.000Z</time>
      </trkpt>
      <trkpt lat="45.56879" lon="4.3283">
        <ele>481</ele>
        <time>2015-07-27T15:59:54.000Z</time>
      </trkpt>
      <trkpt lat="45.56862" lon="4.32838">
        <ele>482.20001220703</ele>
        <time>2015-07-27T16:00:02.000Z</time>
      </trkpt>
      <trkpt lat="45.56844" lon="4.32846">
        <ele>483.79998779297</ele>
        <time>2015-07-27T16:00:11.000Z</time>
      </trkpt>
      <trkpt lat="45.56826" lon="4.32853">
        <ele>485.60000610352</ele>
        <time>2015-07-27T16:00:20.000Z</time>
      </trkpt>
      <trkpt lat="45.56807" lon="4.32861">
        <ele>487.39999389648</ele>
        <time>2015-07-27T16:00:29.000Z</time>
      </trkpt>
      <trkpt lat="45.56789" lon="4.32867">
        <ele>488.79998779297</ele>
        <time>2015-07-27T16:00:38.000Z</time>
      </trkpt>
      <trkpt lat="45.56788" lon="4.32868">
        <ele>488.79998779297</ele>
        <time>2015-07-27T16:00:39.000Z</time>
      </trkpt>
      <trkpt lat="45.56783" lon="4.32874">
        <ele>489.20001220703</ele>
        <time>2015-07-27T16:00:42.000Z</time>
      </trkpt>
      <trkpt lat="45.5678" lon="4.32901">
        <ele>489.60000610352</ele>
        <time>2015-07-27T16:00:50.000Z</time>
      </trkpt>
      <trkpt lat="45.56774" lon="4.32926">
        <ele>490.39999389648</ele>
        <time>2015-07-27T16:00:56.000Z</time>
      </trkpt>
      <trkpt lat="45.56763" lon="4.32953">
        <ele>491.39999389648</ele>
        <time>2015-07-27T16:01:01.000Z</time>
      </trkpt>
      <trkpt lat="45.56752" lon="4.32968">
        <ele>491.39999389648</ele>
        <time>2015-07-27T16:01:04.000Z</time>
      </trkpt>
      <trkpt lat="45.56735" lon="4.32986">
        <ele>491.20001220703</ele>
        <time>2015-07-27T16:01:08.000Z</time>
      </trkpt>
      <trkpt lat="45.56719" lon="4.33004">
        <ele>490.79998779297</ele>
        <time>2015-07-27T16:01:12.000Z</time>
      </trkpt>
      <trkpt lat="45.56708" lon="4.33014">
        <ele>491.20001220703</ele>
        <time>2015-07-27T16:01:15.000Z</time>
      </trkpt>
      <trkpt lat="45.56691" lon="4.33014">
        <ele>492.79998779297</ele>
        <time>2015-07-27T16:01:21.000Z</time>
      </trkpt>
      <trkpt lat="45.5667" lon="4.33015">
        <ele>494.39999389648</ele>
        <time>2015-07-27T16:01:29.000Z</time>
      </trkpt>
      <trkpt lat="45.5665" lon="4.33015">
        <ele>496</ele>
        <time>2015-07-27T16:01:37.000Z</time>
      </trkpt>
      <trkpt lat="45.56631" lon="4.33014">
        <ele>497.39999389648</ele>
        <time>2015-07-27T16:01:44.000Z</time>
      </trkpt>
      <trkpt lat="45.56612" lon="4.33013">
        <ele>498.20001220703</ele>
        <time>2015-07-27T16:01:51.000Z</time>
      </trkpt>
      <trkpt lat="45.56592" lon="4.33013">
        <ele>499.39999389648</ele>
        <time>2015-07-27T16:01:58.000Z</time>
      </trkpt>
      <trkpt lat="45.56573" lon="4.33012">
        <ele>500.60000610352</ele>
        <time>2015-07-27T16:02:04.000Z</time>
      </trkpt>
      <trkpt lat="45.56553" lon="4.33012">
        <ele>501.79998779297</ele>
        <time>2015-07-27T16:02:10.000Z</time>
      </trkpt>
      <trkpt lat="45.56534" lon="4.33012">
        <ele>500.20001220703</ele>
        <time>2015-07-27T16:02:15.000Z</time>
      </trkpt>
      <trkpt lat="45.56516" lon="4.33012">
        <ele>499.20001220703</ele>
        <time>2015-07-27T16:02:19.000Z</time>
      </trkpt>
      <trkpt lat="45.56497" lon="4.33013">
        <ele>498.39999389648</ele>
        <time>2015-07-27T16:02:23.000Z</time>
      </trkpt>
      <trkpt lat="45.56476" lon="4.33004">
        <ele>497.39999389648</ele>
        <time>2015-07-27T16:02:29.000Z</time>
      </trkpt>
      <trkpt lat="45.56458" lon="4.3299">
        <ele>496.20001220703</ele>
        <time>2015-07-27T16:02:35.000Z</time>
      </trkpt>
      <trkpt lat="45.56441" lon="4.32983">
        <ele>494.79998779297</ele>
        <time>2015-07-27T16:02:39.000Z</time>
      </trkpt>
      <trkpt lat="45.56423" lon="4.32975">
        <ele>493.20001220703</ele>
        <time>2015-07-27T16:02:42.000Z</time>
      </trkpt>
      <trkpt lat="45.56401" lon="4.32965">
        <ele>491.39999389648</ele>
        <time>2015-07-27T16:02:45.000Z</time>
      </trkpt>
      <trkpt lat="45.56378" lon="4.32955">
        <ele>489.20001220703</ele>
        <time>2015-07-27T16:02:48.000Z</time>
      </trkpt>
      <trkpt lat="45.56353" lon="4.32945">
        <ele>487.60000610352</ele>
        <time>2015-07-27T16:02:51.000Z</time>
      </trkpt>
      <trkpt lat="45.56336" lon="4.32938">
        <ele>485.79998779297</ele>
        <time>2015-07-27T16:02:53.000Z</time>
      </trkpt>
      <trkpt lat="45.56317" lon="4.3293">
        <ele>483.79998779297</ele>
        <time>2015-07-27T16:02:55.000Z</time>
      </trkpt>
      <trkpt lat="45.56297" lon="4.32921">
        <ele>481.79998779297</ele>
        <time>2015-07-27T16:02:57.000Z</time>
      </trkpt>
      <trkpt lat="45.56277" lon="4.32912">
        <ele>479.20001220703</ele>
        <time>2015-07-27T16:02:59.000Z</time>
      </trkpt>
      <trkpt lat="45.56256" lon="4.32904">
        <ele>476.39999389648</ele>
        <time>2015-07-27T16:03:01.000Z</time>
      </trkpt>
      <trkpt lat="45.56235" lon="4.32897">
        <ele>473.79998779297</ele>
        <time>2015-07-27T16:03:03.000Z</time>
      </trkpt>
      <trkpt lat="45.56215" lon="4.32891">
        <ele>471.39999389648</ele>
        <time>2015-07-27T16:03:05.000Z</time>
      </trkpt>
      <trkpt lat="45.56196" lon="4.32886">
        <ele>469.60000610352</ele>
        <time>2015-07-27T16:03:07.000Z</time>
      </trkpt>
      <trkpt lat="45.56187" lon="4.32884">
        <ele>468.60000610352</ele>
        <time>2015-07-27T16:03:08.000Z</time>
      </trkpt>
      <trkpt lat="45.56178" lon="4.32883">
        <ele>467.79998779297</ele>
        <time>2015-07-27T16:03:09.000Z</time>
      </trkpt>
      <trkpt lat="45.56155" lon="4.32881">
        <ele>465.79998779297</ele>
        <time>2015-07-27T16:03:12.000Z</time>
      </trkpt>
      <trkpt lat="45.56149" lon="4.32879">
        <ele>465.20001220703</ele>
        <time>2015-07-27T16:03:13.000Z</time>
      </trkpt>
      <trkpt lat="45.56139" lon="4.32875">
        <ele>464</ele>
        <time>2015-07-27T16:03:15.000Z</time>
      </trkpt>
      <trkpt lat="45.56116" lon="4.32873">
        <ele>462.60000610352</ele>
        <time>2015-07-27T16:03:19.000Z</time>
      </trkpt>
      <trkpt lat="45.56109" lon="4.32872">
        <ele>462</ele>
        <time>2015-07-27T16:03:20.000Z</time>
      </trkpt>
      <trkpt lat="45.56087" lon="4.32866">
        <ele>460.20001220703</ele>
        <time>2015-07-27T16:03:23.000Z</time>
      </trkpt>
      <trkpt lat="45.56064" lon="4.32859">
        <ele>458.39999389648</ele>
        <time>2015-07-27T16:03:26.000Z</time>
      </trkpt>
      <trkpt lat="45.56041" lon="4.32854">
        <ele>456.39999389648</ele>
        <time>2015-07-27T16:03:29.000Z</time>
      </trkpt>
      <trkpt lat="45.56016" lon="4.3285">
        <ele>454.60000610352</ele>
        <time>2015-07-27T16:03:32.000Z</time>
      </trkpt>
      <trkpt lat="45.55993" lon="4.32847">
        <ele>453.20001220703</ele>
        <time>2015-07-27T16:03:35.000Z</time>
      </trkpt>
      <trkpt lat="45.55972" lon="4.32844">
        <ele>452</ele>
        <time>2015-07-27T16:03:39.000Z</time>
      </trkpt>
      <trkpt lat="45.55968" lon="4.32844">
        <ele>451.60000610352</ele>
        <time>2015-07-27T16:03:40.000Z</time>
      </trkpt>
      <trkpt lat="45.5595" lon="4.32839">
        <ele>449.20001220703</ele>
        <time>2015-07-27T16:03:45.000Z</time>
      </trkpt>
      <trkpt lat="45.55935" lon="4.32824">
        <ele>445.60000610352</ele>
        <time>2015-07-27T16:03:50.000Z</time>
      </trkpt>
      <trkpt lat="45.55924" lon="4.32812">
        <ele>443</ele>
        <time>2015-07-27T16:03:54.000Z</time>
      </trkpt>
      <trkpt lat="45.55918" lon="4.32807">
        <ele>441.79998779297</ele>
        <time>2015-07-27T16:04:01.000Z</time>
      </trkpt>
      <trkpt lat="45.559" lon="4.32793">
        <ele>438.20001220703</ele>
        <time>2015-07-27T16:04:07.000Z</time>
      </trkpt>
      <trkpt lat="45.55897" lon="4.32788">
        <ele>437.39999389648</ele>
        <time>2015-07-27T16:04:08.000Z</time>
      </trkpt>
      <trkpt lat="45.55884" lon="4.3277">
        <ele>433.79998779297</ele>
        <time>2015-07-27T16:04:13.000Z</time>
      </trkpt>
      <trkpt lat="45.55882" lon="4.32764">
        <ele>432.79998779297</ele>
        <time>2015-07-27T16:04:14.000Z</time>
      </trkpt>
      <trkpt lat="45.55877" lon="4.3274">
        <ele>429.60000610352</ele>
        <time>2015-07-27T16:04:18.000Z</time>
      </trkpt>
      <trkpt lat="45.55881" lon="4.3271">
        <ele>427</ele>
        <time>2015-07-27T16:04:22.000Z</time>
      </trkpt>
      <trkpt lat="45.55883" lon="4.32702">
        <ele>426.39999389648</ele>
        <time>2015-07-27T16:04:23.000Z</time>
      </trkpt>
      <trkpt lat="45.5589" lon="4.32683">
        <ele>425.20001220703</ele>
        <time>2015-07-27T16:04:26.000Z</time>
      </trkpt>
      <trkpt lat="45.55875" lon="4.32662">
        <ele>421.39999389648</ele>
        <time>2015-07-27T16:04:32.000Z</time>
      </trkpt>
      <trkpt lat="45.55872" lon="4.32658">
        <ele>420.79998779297</ele>
        <time>2015-07-27T16:04:33.000Z</time>
      </trkpt>
      <trkpt lat="45.55868" lon="4.32655">
        <ele>420</ele>
        <time>2015-07-27T16:04:34.000Z</time>
      </trkpt>
      <trkpt lat="45.55859" lon="4.32646">
        <ele>418.39999389648</ele>
        <time>2015-07-27T16:04:37.000Z</time>
      </trkpt>
      <trkpt lat="45.55848" lon="4.3264">
        <ele>416.60000610352</ele>
        <time>2015-07-27T16:04:40.000Z</time>
      </trkpt>
      <trkpt lat="45.55827" lon="4.3263">
        <ele>413.79998779297</ele>
        <time>2015-07-27T16:04:44.000Z</time>
      </trkpt>
      <trkpt lat="45.55823" lon="4.32625">
        <ele>413</ele>
        <time>2015-07-27T16:04:45.000Z</time>
      </trkpt>
      <trkpt lat="45.55813" lon="4.32612">
        <ele>411</ele>
        <time>2015-07-27T16:04:48.000Z</time>
      </trkpt>
      <trkpt lat="45.55797" lon="4.32611">
        <ele>410.20001220703</ele>
        <time>2015-07-27T16:04:53.000Z</time>
      </trkpt>
      <trkpt lat="45.55778" lon="4.32612">
        <ele>410.60000610352</ele>
        <time>2015-07-27T16:04:57.000Z</time>
      </trkpt>
      <trkpt lat="45.55774" lon="4.32611">
        <ele>410.60000610352</ele>
        <time>2015-07-27T16:04:58.000Z</time>
      </trkpt>
      <trkpt lat="45.55761" lon="4.32608">
        <ele>411</ele>
        <time>2015-07-27T16:05:03.000Z</time>
      </trkpt>
      <trkpt lat="45.55744" lon="4.32598">
        <ele>411.60000610352</ele>
        <time>2015-07-27T16:05:11.000Z</time>
      </trkpt>
      <trkpt lat="45.55742" lon="4.32598">
        <ele>411.60000610352</ele>
        <time>2015-07-27T16:05:12.000Z</time>
      </trkpt>
      <trkpt lat="45.5574" lon="4.32611">
        <ele>411.60000610352</ele>
        <time>2015-07-27T16:05:17.000Z</time>
      </trkpt>
      <trkpt lat="45.55737" lon="4.32637">
        <ele>412.60000610352</ele>
        <time>2015-07-27T16:05:25.000Z</time>
      </trkpt>
      <trkpt lat="45.55731" lon="4.32663">
        <ele>411.60000610352</ele>
        <time>2015-07-27T16:05:33.000Z</time>
      </trkpt>
      <trkpt lat="45.55724" lon="4.32687">
        <ele>410.60000610352</ele>
        <time>2015-07-27T16:05:39.000Z</time>
      </trkpt>
      <trkpt lat="45.55717" lon="4.32713">
        <ele>410.39999389648</ele>
        <time>2015-07-27T16:05:44.000Z</time>
      </trkpt>
      <trkpt lat="45.55716" lon="4.32739">
        <ele>411.20001220703</ele>
        <time>2015-07-27T16:05:49.000Z</time>
      </trkpt>
      <trkpt lat="45.55716" lon="4.32767">
        <ele>412</ele>
        <time>2015-07-27T16:05:57.000Z</time>
      </trkpt>
      <trkpt lat="45.55719" lon="4.32792">
        <ele>413.79998779297</ele>
        <time>2015-07-27T16:06:07.000Z</time>
      </trkpt>
      <trkpt lat="45.55721" lon="4.32794">
        <ele>414</ele>
        <time>2015-07-27T16:06:08.000Z</time>
      </trkpt>
      <trkpt lat="45.55734" lon="4.32815">
        <ele>417.79998779297</ele>
        <time>2015-07-27T16:06:17.000Z</time>
      </trkpt>
      <trkpt lat="45.55741" lon="4.32842">
        <ele>421.79998779297</ele>
        <time>2015-07-27T16:06:25.000Z</time>
      </trkpt>
      <trkpt lat="45.55746" lon="4.3287">
        <ele>425</ele>
        <time>2015-07-27T16:06:32.000Z</time>
      </trkpt>
      <trkpt lat="45.55757" lon="4.32895">
        <ele>425.79998779297</ele>
        <time>2015-07-27T16:06:39.000Z</time>
      </trkpt>
      <trkpt lat="45.55766" lon="4.32919">
        <ele>427.39999389648</ele>
        <time>2015-07-27T16:06:44.000Z</time>
      </trkpt>
      <trkpt lat="45.55765" lon="4.32949">
        <ele>431.20001220703</ele>
        <time>2015-07-27T16:06:49.000Z</time>
      </trkpt>
      <trkpt lat="45.55759" lon="4.32977">
        <ele>431.79998779297</ele>
        <time>2015-07-27T16:06:55.000Z</time>
      </trkpt>
      <trkpt lat="45.55759" lon="4.33006">
        <ele>433</ele>
        <time>2015-07-27T16:07:01.000Z</time>
      </trkpt>
      <trkpt lat="45.55762" lon="4.33035">
        <ele>434.20001220703</ele>
        <time>2015-07-27T16:07:07.000Z</time>
      </trkpt>
      <trkpt lat="45.55773" lon="4.33056">
        <ele>433.39999389648</ele>
        <time>2015-07-27T16:07:12.000Z</time>
      </trkpt>
      <trkpt lat="45.55787" lon="4.33076">
        <ele>432</ele>
        <time>2015-07-27T16:07:20.000Z</time>
      </trkpt>
      <trkpt lat="45.55795" lon="4.33097">
        <ele>431.39999389648</ele>
        <time>2015-07-27T16:07:28.000Z</time>
      </trkpt>
      <trkpt lat="45.55794" lon="4.33099">
        <ele>431.60000610352</ele>
        <time>2015-07-27T16:07:29.000Z</time>
      </trkpt>
      <trkpt lat="45.55786" lon="4.33109">
        <ele>431.79998779297</ele>
        <time>2015-07-27T16:07:35.000Z</time>
      </trkpt>
      <trkpt lat="45.55776" lon="4.33132">
        <ele>431.39999389648</ele>
        <time>2015-07-27T16:07:46.000Z</time>
      </trkpt>
      <trkpt lat="45.55778" lon="4.33158">
        <ele>430.79998779297</ele>
        <time>2015-07-27T16:07:55.000Z</time>
      </trkpt>
      <trkpt lat="45.55775" lon="4.33183">
        <ele>430.20001220703</ele>
        <time>2015-07-27T16:08:06.000Z</time>
      </trkpt>
      <trkpt lat="45.55764" lon="4.33202">
        <ele>430.39999389648</ele>
        <time>2015-07-27T16:08:18.000Z</time>
      </trkpt>
      <trkpt lat="45.55762" lon="4.33203">
        <ele>430.60000610352</ele>
        <time>2015-07-27T16:08:19.000Z</time>
      </trkpt>
      <trkpt lat="45.55756" lon="4.33209">
        <ele>431.39999389648</ele>
        <time>2015-07-27T16:08:24.000Z</time>
      </trkpt>
      <trkpt lat="45.5574" lon="4.33222">
        <ele>433.39999389648</ele>
        <time>2015-07-27T16:08:37.000Z</time>
      </trkpt>
      <trkpt lat="45.5573" lon="4.3323">
        <ele>435.39999389648</ele>
        <time>2015-07-27T16:08:44.000Z</time>
      </trkpt>
      <trkpt lat="45.55731" lon="4.33239">
        <ele>436.79998779297</ele>
        <time>2015-07-27T16:08:48.000Z</time>
      </trkpt>
      <trkpt lat="45.55732" lon="4.3324">
        <ele>437</ele>
        <time>2015-07-27T16:08:49.000Z</time>
      </trkpt>
      <trkpt lat="45.55738" lon="4.33239">
        <ele>436.39999389648</ele>
        <time>2015-07-27T16:08:54.000Z</time>
      </trkpt>
      <trkpt lat="45.55755" lon="4.33251">
        <ele>436.79998779297</ele>
        <time>2015-07-27T16:09:11.000Z</time>
      </trkpt>
      <trkpt lat="45.5577" lon="4.33268">
        <ele>438.39999389648</ele>
        <time>2015-07-27T16:09:25.000Z</time>
      </trkpt>
      <trkpt lat="45.5577" lon="4.33269">
        <ele>438.60000610352</ele>
        <time>2015-07-27T16:09:26.000Z</time>
      </trkpt>
      <trkpt lat="45.55774" lon="4.33274">
        <ele>439.20001220703</ele>
        <time>2015-07-27T16:09:31.000Z</time>
      </trkpt>
      <trkpt lat="45.55788" lon="4.33292">
        <ele>441.20001220703</ele>
        <time>2015-07-27T16:09:47.000Z</time>
      </trkpt>
      <trkpt lat="45.55801" lon="4.33311">
        <ele>444</ele>
        <time>2015-07-27T16:10:01.000Z</time>
      </trkpt>
      <trkpt lat="45.55807" lon="4.33335">
        <ele>447.60000610352</ele>
        <time>2015-07-27T16:10:14.000Z</time>
      </trkpt>
      <trkpt lat="45.55808" lon="4.33337">
        <ele>447.79998779297</ele>
        <time>2015-07-27T16:10:15.000Z</time>
      </trkpt>
      <trkpt lat="45.55815" lon="4.33357">
        <ele>450.60000610352</ele>
        <time>2015-07-27T16:10:25.000Z</time>
      </trkpt>
      <trkpt lat="45.55818" lon="4.33376">
        <ele>451.79998779297</ele>
        <time>2015-07-27T16:11:15.000Z</time>
      </trkpt>
      <trkpt lat="45.55818" lon="4.33388">
        <ele>453</ele>
        <time>2015-07-27T16:11:48.000Z</time>
      </trkpt>
      <trkpt lat="45.55816" lon="4.3339">
        <ele>453.79998779297</ele>
        <time>2015-07-27T16:11:50.000Z</time>
      </trkpt>
      <trkpt lat="45.558" lon="4.33401">
        <ele>458.60000610352</ele>
        <time>2015-07-27T16:12:12.000Z</time>
      </trkpt>
      <trkpt lat="45.55782" lon="4.33405">
        <ele>460.60000610352</ele>
        <time>2015-07-27T16:12:34.000Z</time>
      </trkpt>
      <trkpt lat="45.55765" lon="4.33414">
        <ele>463</ele>
        <time>2015-07-27T16:12:58.000Z</time>
      </trkpt>
      <trkpt lat="45.55754" lon="4.33433">
        <ele>467.39999389648</ele>
        <time>2015-07-27T16:13:15.000Z</time>
      </trkpt>
      <trkpt lat="45.55745" lon="4.33447">
        <ele>470.60000610352</ele>
        <time>2015-07-27T16:13:25.000Z</time>
      </trkpt>
      <trkpt lat="45.55741" lon="4.33456">
        <ele>471.20001220703</ele>
        <time>2015-07-27T16:13:32.000Z</time>
      </trkpt>
      <trkpt lat="45.55739" lon="4.3346">
        <ele>471.39999389648</ele>
        <time>2015-07-27T16:13:35.000Z</time>
      </trkpt>
      <trkpt lat="45.55735" lon="4.3347">
        <ele>472.20001220703</ele>
        <time>2015-07-27T16:13:40.000Z</time>
      </trkpt>
      <trkpt lat="45.55734" lon="4.3348">
        <ele>472.60000610352</ele>
        <time>2015-07-27T16:13:44.000Z</time>
      </trkpt>
      <trkpt lat="45.55731" lon="4.33506">
        <ele>474</ele>
        <time>2015-07-27T16:13:55.000Z</time>
      </trkpt>
      <trkpt lat="45.55727" lon="4.33534">
        <ele>475.39999389648</ele>
        <time>2015-07-27T16:14:06.000Z</time>
      </trkpt>
      <trkpt lat="45.55724" lon="4.33563">
        <ele>475</ele>
        <time>2015-07-27T16:14:14.000Z</time>
      </trkpt>
      <trkpt lat="45.55715" lon="4.33588">
        <ele>475.39999389648</ele>
        <time>2015-07-27T16:14:22.000Z</time>
      </trkpt>
      <trkpt lat="45.55704" lon="4.33609">
        <ele>476.79998779297</ele>
        <time>2015-07-27T16:14:30.000Z</time>
      </trkpt>
      <trkpt lat="45.55691" lon="4.3363">
        <ele>480.39999389648</ele>
        <time>2015-07-27T16:14:39.000Z</time>
      </trkpt>
      <trkpt lat="45.55679" lon="4.3365">
        <ele>483.60000610352</ele>
        <time>2015-07-27T16:14:46.000Z</time>
      </trkpt>
      <trkpt lat="45.55667" lon="4.33669">
        <ele>485.60000610352</ele>
        <time>2015-07-27T16:14:55.000Z</time>
      </trkpt>
      <trkpt lat="45.55652" lon="4.33686">
        <ele>487.39999389648</ele>
        <time>2015-07-27T16:15:03.000Z</time>
      </trkpt>
      <trkpt lat="45.55634" lon="4.33694">
        <ele>490</ele>
        <time>2015-07-27T16:15:11.000Z</time>
      </trkpt>
      <trkpt lat="45.55617" lon="4.33705">
        <ele>490.39999389648</ele>
        <time>2015-07-27T16:15:20.000Z</time>
      </trkpt>
      <trkpt lat="45.55613" lon="4.33731">
        <ele>490.60000610352</ele>
        <time>2015-07-27T16:15:29.000Z</time>
      </trkpt>
      <trkpt lat="45.55614" lon="4.33757">
        <ele>490.39999389648</ele>
        <time>2015-07-27T16:15:38.000Z</time>
      </trkpt>
      <trkpt lat="45.55619" lon="4.33784">
        <ele>489.79998779297</ele>
        <time>2015-07-27T16:15:47.000Z</time>
      </trkpt>
      <trkpt lat="45.55626" lon="4.33809">
        <ele>491.79998779297</ele>
        <time>2015-07-27T16:15:57.000Z</time>
      </trkpt>
      <trkpt lat="45.55631" lon="4.33832">
        <ele>493.60000610352</ele>
        <time>2015-07-27T16:16:07.000Z</time>
      </trkpt>
      <trkpt lat="45.55637" lon="4.3385">
        <ele>495.20001220703</ele>
        <time>2015-07-27T16:16:16.000Z</time>
      </trkpt>
      <trkpt lat="45.55641" lon="4.3386">
        <ele>496</ele>
        <time>2015-07-27T16:16:22.000Z</time>
      </trkpt>
      <trkpt lat="45.55643" lon="4.33868">
        <ele>497</ele>
        <time>2015-07-27T16:16:26.000Z</time>
      </trkpt>
      <trkpt lat="45.55648" lon="4.33894">
        <ele>499.79998779297</ele>
        <time>2015-07-27T16:16:39.000Z</time>
      </trkpt>
      <trkpt lat="45.5565" lon="4.33921">
        <ele>502.60000610352</ele>
        <time>2015-07-27T16:16:50.000Z</time>
      </trkpt>
      <trkpt lat="45.5565" lon="4.33948">
        <ele>505.20001220703</ele>
        <time>2015-07-27T16:17:01.000Z</time>
      </trkpt>
      <trkpt lat="45.55649" lon="4.33976">
        <ele>506.20001220703</ele>
        <time>2015-07-27T16:17:13.000Z</time>
      </trkpt>
      <trkpt lat="45.55646" lon="4.34002">
        <ele>508.39999389648</ele>
        <time>2015-07-27T16:17:24.000Z</time>
      </trkpt>
      <trkpt lat="45.55643" lon="4.34028">
        <ele>510.60000610352</ele>
        <time>2015-07-27T16:17:36.000Z</time>
      </trkpt>
      <trkpt lat="45.55642" lon="4.34036">
        <ele>511</ele>
        <time>2015-07-27T16:17:39.000Z</time>
      </trkpt>
      <trkpt lat="45.55642" lon="4.34063">
        <ele>511.79998779297</ele>
        <time>2015-07-27T16:17:49.000Z</time>
      </trkpt>
      <trkpt lat="45.55645" lon="4.34092">
        <ele>512.59997558594</ele>
        <time>2015-07-27T16:17:58.000Z</time>
      </trkpt>
      <trkpt lat="45.5565" lon="4.34117">
        <ele>513.40002441406</ele>
        <time>2015-07-27T16:18:04.000Z</time>
      </trkpt>
      <trkpt lat="45.55654" lon="4.34146">
        <ele>513.59997558594</ele>
        <time>2015-07-27T16:18:10.000Z</time>
      </trkpt>
      <trkpt lat="45.55658" lon="4.34174">
        <ele>513.40002441406</ele>
        <time>2015-07-27T16:18:16.000Z</time>
      </trkpt>
      <trkpt lat="45.55661" lon="4.34201">
        <ele>513.40002441406</ele>
        <time>2015-07-27T16:18:23.000Z</time>
      </trkpt>
      <trkpt lat="45.55663" lon="4.34229">
        <ele>514.59997558594</ele>
        <time>2015-07-27T16:18:30.000Z</time>
      </trkpt>
      <trkpt lat="45.55663" lon="4.34255">
        <ele>516.20001220703</ele>
        <time>2015-07-27T16:18:36.000Z</time>
      </trkpt>
      <trkpt lat="45.55659" lon="4.34284">
        <ele>518</ele>
        <time>2015-07-27T16:18:43.000Z</time>
      </trkpt>
      <trkpt lat="45.55653" lon="4.34309">
        <ele>519</ele>
        <time>2015-07-27T16:18:49.000Z</time>
      </trkpt>
      <trkpt lat="45.55646" lon="4.34335">
        <ele>519.79998779297</ele>
        <time>2015-07-27T16:18:55.000Z</time>
      </trkpt>
      <trkpt lat="45.5564" lon="4.3436">
        <ele>520.59997558594</ele>
        <time>2015-07-27T16:19:00.000Z</time>
      </trkpt>
      <trkpt lat="45.55634" lon="4.34386">
        <ele>521.40002441406</ele>
        <time>2015-07-27T16:19:05.000Z</time>
      </trkpt>
      <trkpt lat="45.55626" lon="4.34411">
        <ele>522</ele>
        <time>2015-07-27T16:19:10.000Z</time>
      </trkpt>
      <trkpt lat="45.55613" lon="4.34432">
        <ele>522</ele>
        <time>2015-07-27T16:19:15.000Z</time>
      </trkpt>
      <trkpt lat="45.55601" lon="4.34452">
        <ele>522</ele>
        <time>2015-07-27T16:19:20.000Z</time>
      </trkpt>
      <trkpt lat="45.55589" lon="4.34473">
        <ele>522.79998779297</ele>
        <time>2015-07-27T16:19:25.000Z</time>
      </trkpt>
      <trkpt lat="45.55577" lon="4.34493">
        <ele>523.20001220703</ele>
        <time>2015-07-27T16:19:30.000Z</time>
      </trkpt>
      <trkpt lat="45.55566" lon="4.34514">
        <ele>523.40002441406</ele>
        <time>2015-07-27T16:19:35.000Z</time>
      </trkpt>
      <trkpt lat="45.55556" lon="4.34537">
        <ele>524.20001220703</ele>
        <time>2015-07-27T16:19:41.000Z</time>
      </trkpt>
      <trkpt lat="45.55547" lon="4.34562">
        <ele>525.59997558594</ele>
        <time>2015-07-27T16:19:47.000Z</time>
      </trkpt>
      <trkpt lat="45.5554" lon="4.34588">
        <ele>527.79998779297</ele>
        <time>2015-07-27T16:19:53.000Z</time>
      </trkpt>
      <trkpt lat="45.55537" lon="4.34614">
        <ele>529.40002441406</ele>
        <time>2015-07-27T16:19:59.000Z</time>
      </trkpt>
      <trkpt lat="45.55539" lon="4.34642">
        <ele>533</ele>
        <time>2015-07-27T16:20:06.000Z</time>
      </trkpt>
      <trkpt lat="45.55544" lon="4.34671">
        <ele>537</ele>
        <time>2015-07-27T16:20:12.000Z</time>
      </trkpt>
      <trkpt lat="45.55549" lon="4.34697">
        <ele>540.59997558594</ele>
        <time>2015-07-27T16:20:17.000Z</time>
      </trkpt>
      <trkpt lat="45.55554" lon="4.34723">
        <ele>541.40002441406</ele>
        <time>2015-07-27T16:20:22.000Z</time>
      </trkpt>
      <trkpt lat="45.55559" lon="4.34749">
        <ele>542</ele>
        <time>2015-07-27T16:20:27.000Z</time>
      </trkpt>
      <trkpt lat="45.55567" lon="4.34773">
        <ele>542.79998779297</ele>
        <time>2015-07-27T16:20:32.000Z</time>
      </trkpt>
      <trkpt lat="45.55574" lon="4.34797">
        <ele>541.59997558594</ele>
        <time>2015-07-27T16:20:38.000Z</time>
      </trkpt>
      <trkpt lat="45.55585" lon="4.34821">
        <ele>540.59997558594</ele>
        <time>2015-07-27T16:20:45.000Z</time>
      </trkpt>
      <trkpt lat="45.55596" lon="4.34843">
        <ele>540.20001220703</ele>
        <time>2015-07-27T16:20:52.000Z</time>
      </trkpt>
      <trkpt lat="45.55607" lon="4.34866">
        <ele>540</ele>
        <time>2015-07-27T16:20:59.000Z</time>
      </trkpt>
      <trkpt lat="45.55616" lon="4.34891">
        <ele>538.40002441406</ele>
        <time>2015-07-27T16:21:06.000Z</time>
      </trkpt>
      <trkpt lat="45.55624" lon="4.34917">
        <ele>536.79998779297</ele>
        <time>2015-07-27T16:21:13.000Z</time>
      </trkpt>
      <trkpt lat="45.55628" lon="4.34943">
        <ele>535.40002441406</ele>
        <time>2015-07-27T16:21:19.000Z</time>
      </trkpt>
      <trkpt lat="45.55631" lon="4.34973">
        <ele>535</ele>
        <time>2015-07-27T16:21:25.000Z</time>
      </trkpt>
      <trkpt lat="45.55631" lon="4.35003">
        <ele>534.59997558594</ele>
        <time>2015-07-27T16:21:31.000Z</time>
      </trkpt>
      <trkpt lat="45.55633" lon="4.35029">
        <ele>534.20001220703</ele>
        <time>2015-07-27T16:21:37.000Z</time>
      </trkpt>
      <trkpt lat="45.55637" lon="4.35057">
        <ele>534.40002441406</ele>
        <time>2015-07-27T16:21:43.000Z</time>
      </trkpt>
      <trkpt lat="45.55641" lon="4.35086">
        <ele>534.40002441406</ele>
        <time>2015-07-27T16:21:47.000Z</time>
      </trkpt>
      <trkpt lat="45.55645" lon="4.35116">
        <ele>534.79998779297</ele>
        <time>2015-07-27T16:21:51.000Z</time>
      </trkpt>
      <trkpt lat="45.55649" lon="4.35142">
        <ele>535.79998779297</ele>
        <time>2015-07-27T16:21:55.000Z</time>
      </trkpt>
      <trkpt lat="45.55655" lon="4.35172">
        <ele>536.20001220703</ele>
        <time>2015-07-27T16:22:00.000Z</time>
      </trkpt>
      <trkpt lat="45.5566" lon="4.352">
        <ele>536.79998779297</ele>
        <time>2015-07-27T16:22:05.000Z</time>
      </trkpt>
      <trkpt lat="45.55662" lon="4.35222">
        <ele>536.59997558594</ele>
        <time>2015-07-27T16:22:09.000Z</time>
      </trkpt>
      <trkpt lat="45.55662" lon="4.35234">
        <ele>536.79998779297</ele>
        <time>2015-07-27T16:22:11.000Z</time>
      </trkpt>
      <trkpt lat="45.55659" lon="4.35262">
        <ele>537.40002441406</ele>
        <time>2015-07-27T16:22:16.000Z</time>
      </trkpt>
      <trkpt lat="45.55654" lon="4.35294">
        <ele>538.59997558594</ele>
        <time>2015-07-27T16:22:21.000Z</time>
      </trkpt>
      <trkpt lat="45.55652" lon="4.35301">
        <ele>539</ele>
        <time>2015-07-27T16:22:22.000Z</time>
      </trkpt>
      <trkpt lat="45.55646" lon="4.35315">
        <ele>539</ele>
        <time>2015-07-27T16:22:24.000Z</time>
      </trkpt>
      <trkpt lat="45.55635" lon="4.35339">
        <ele>539.20001220703</ele>
        <time>2015-07-27T16:22:27.000Z</time>
      </trkpt>
      <trkpt lat="45.55629" lon="4.35358">
        <ele>539.20001220703</ele>
        <time>2015-07-27T16:22:29.000Z</time>
      </trkpt>
      <trkpt lat="45.55627" lon="4.35392">
        <ele>538.59997558594</ele>
        <time>2015-07-27T16:22:32.000Z</time>
      </trkpt>
      <trkpt lat="45.55631" lon="4.35427">
        <ele>537.59997558594</ele>
        <time>2015-07-27T16:22:35.000Z</time>
      </trkpt>
      <trkpt lat="45.55635" lon="4.35452">
        <ele>536.79998779297</ele>
        <time>2015-07-27T16:22:37.000Z</time>
      </trkpt>
      <trkpt lat="45.55642" lon="4.35487">
        <ele>535</ele>
        <time>2015-07-27T16:22:40.000Z</time>
      </trkpt>
      <trkpt lat="45.55649" lon="4.35521">
        <ele>533.59997558594</ele>
        <time>2015-07-27T16:22:43.000Z</time>
      </trkpt>
      <trkpt lat="45.5565" lon="4.35532">
        <ele>533</ele>
        <time>2015-07-27T16:22:44.000Z</time>
      </trkpt>
      <trkpt lat="45.55652" lon="4.35563">
        <ele>532.79998779297</ele>
        <time>2015-07-27T16:22:47.000Z</time>
      </trkpt>
      <trkpt lat="45.55652" lon="4.35572">
        <ele>532.59997558594</ele>
        <time>2015-07-27T16:22:48.000Z</time>
      </trkpt>
      <trkpt lat="45.55651" lon="4.356">
        <ele>532.40002441406</ele>
        <time>2015-07-27T16:22:51.000Z</time>
      </trkpt>
      <trkpt lat="45.55651" lon="4.35632">
        <ele>533.20001220703</ele>
        <time>2015-07-27T16:22:55.000Z</time>
      </trkpt>
      <trkpt lat="45.55651" lon="4.3564">
        <ele>533.59997558594</ele>
        <time>2015-07-27T16:22:56.000Z</time>
      </trkpt>
      <trkpt lat="45.55653" lon="4.35666">
        <ele>535</ele>
        <time>2015-07-27T16:23:00.000Z</time>
      </trkpt>
      <trkpt lat="45.55654" lon="4.35693">
        <ele>536.59997558594</ele>
        <time>2015-07-27T16:23:05.000Z</time>
      </trkpt>
      <trkpt lat="45.55655" lon="4.35719">
        <ele>538.20001220703</ele>
        <time>2015-07-27T16:23:11.000Z</time>
      </trkpt>
      <trkpt lat="45.55655" lon="4.35746">
        <ele>540</ele>
        <time>2015-07-27T16:23:19.000Z</time>
      </trkpt>
      <trkpt lat="45.55656" lon="4.35773">
        <ele>541.40002441406</ele>
        <time>2015-07-27T16:23:27.000Z</time>
      </trkpt>
      <trkpt lat="45.55657" lon="4.35801">
        <ele>543.59997558594</ele>
        <time>2015-07-27T16:23:36.000Z</time>
      </trkpt>
      <trkpt lat="45.55658" lon="4.35803">
        <ele>543.79998779297</ele>
        <time>2015-07-27T16:23:37.000Z</time>
      </trkpt>
      <trkpt lat="45.55663" lon="4.3581">
        <ele>544</ele>
        <time>2015-07-27T16:23:41.000Z</time>
      </trkpt>
      <trkpt lat="45.55665" lon="4.35813">
        <ele>544.20001220703</ele>
        <time>2015-07-27T16:26:07.000Z</time>
      </trkpt>
      <trkpt lat="45.5566" lon="4.35813">
        <ele>544.59997558594</ele>
        <time>2015-07-27T16:28:01.000Z</time>
      </trkpt>
      <trkpt lat="45.55659" lon="4.35814">
        <ele>544.59997558594</ele>
        <time>2015-07-27T16:28:02.000Z</time>
      </trkpt>
      <trkpt lat="45.55658" lon="4.35822">
        <ele>545.59997558594</ele>
        <time>2015-07-27T16:28:06.000Z</time>
      </trkpt>
      <trkpt lat="45.55659" lon="4.35836">
        <ele>546.79998779297</ele>
        <time>2015-07-27T16:28:11.000Z</time>
      </trkpt>
      <trkpt lat="45.55671" lon="4.35858">
        <ele>548.20001220703</ele>
        <time>2015-07-27T16:28:21.000Z</time>
      </trkpt>
      <trkpt lat="45.55677" lon="4.35883">
        <ele>549.40002441406</ele>
        <time>2015-07-27T16:28:31.000Z</time>
      </trkpt>
      <trkpt lat="45.55677" lon="4.3591">
        <ele>550.79998779297</ele>
        <time>2015-07-27T16:28:41.000Z</time>
      </trkpt>
      <trkpt lat="45.55676" lon="4.35912">
        <ele>551</ele>
        <time>2015-07-27T16:28:42.000Z</time>
      </trkpt>
      <trkpt lat="45.55671" lon="4.35926">
        <ele>552.40002441406</ele>
        <time>2015-07-27T16:28:49.000Z</time>
      </trkpt>
      <trkpt lat="45.55658" lon="4.35945">
        <ele>554.79998779297</ele>
        <time>2015-07-27T16:29:00.000Z</time>
      </trkpt>
      <trkpt lat="45.55646" lon="4.35964">
        <ele>556.59997558594</ele>
        <time>2015-07-27T16:29:09.000Z</time>
      </trkpt>
      <trkpt lat="45.55633" lon="4.35982">
        <ele>559.59997558594</ele>
        <time>2015-07-27T16:29:18.000Z</time>
      </trkpt>
      <trkpt lat="45.55618" lon="4.35999">
        <ele>561.20001220703</ele>
        <time>2015-07-27T16:29:27.000Z</time>
      </trkpt>
      <trkpt lat="45.55602" lon="4.36017">
        <ele>563.40002441406</ele>
        <time>2015-07-27T16:29:36.000Z</time>
      </trkpt>
      <trkpt lat="45.55588" lon="4.36036">
        <ele>565.79998779297</ele>
        <time>2015-07-27T16:29:44.000Z</time>
      </trkpt>
      <trkpt lat="45.55576" lon="4.36056">
        <ele>568.59997558594</ele>
        <time>2015-07-27T16:29:52.000Z</time>
      </trkpt>
      <trkpt lat="45.55566" lon="4.36079">
        <ele>571</ele>
        <time>2015-07-27T16:30:00.000Z</time>
      </trkpt>
      <trkpt lat="45.55558" lon="4.36103">
        <ele>573.59997558594</ele>
        <time>2015-07-27T16:30:08.000Z</time>
      </trkpt>
      <trkpt lat="45.55553" lon="4.36128">
        <ele>576</ele>
        <time>2015-07-27T16:30:16.000Z</time>
      </trkpt>
      <trkpt lat="45.55548" lon="4.36155">
        <ele>577.79998779297</ele>
        <time>2015-07-27T16:30:24.000Z</time>
      </trkpt>
      <trkpt lat="45.55543" lon="4.36182">
        <ele>579.59997558594</ele>
        <time>2015-07-27T16:30:32.000Z</time>
      </trkpt>
      <trkpt lat="45.55536" lon="4.36208">
        <ele>581.20001220703</ele>
        <time>2015-07-27T16:30:40.000Z</time>
      </trkpt>
      <trkpt lat="45.55538" lon="4.36236">
        <ele>583.79998779297</ele>
        <time>2015-07-27T16:30:49.000Z</time>
      </trkpt>
      <trkpt lat="45.55539" lon="4.36237">
        <ele>584.20001220703</ele>
        <time>2015-07-27T16:30:50.000Z</time>
      </trkpt>
      <trkpt lat="45.55548" lon="4.36239">
        <ele>584.79998779297</ele>
        <time>2015-07-27T16:30:54.000Z</time>
      </trkpt>
      <trkpt lat="45.55567" lon="4.36235">
        <ele>585.20001220703</ele>
        <time>2015-07-27T16:31:03.000Z</time>
      </trkpt>
      <trkpt lat="45.55586" lon="4.36233">
        <ele>585.59997558594</ele>
        <time>2015-07-27T16:31:11.000Z</time>
      </trkpt>
      <trkpt lat="45.55606" lon="4.36232">
        <ele>586.20001220703</ele>
        <time>2015-07-27T16:31:19.000Z</time>
      </trkpt>
      <trkpt lat="45.55626" lon="4.36233">
        <ele>587.20001220703</ele>
        <time>2015-07-27T16:31:26.000Z</time>
      </trkpt>
      <trkpt lat="45.55628" lon="4.36235">
        <ele>587.40002441406</ele>
        <time>2015-07-27T16:31:27.000Z</time>
      </trkpt>
      <trkpt lat="45.5563" lon="4.36255">
        <ele>589.40002441406</ele>
        <time>2015-07-27T16:31:34.000Z</time>
      </trkpt>
      <trkpt lat="45.55622" lon="4.36278">
        <ele>591.40002441406</ele>
        <time>2015-07-27T16:31:43.000Z</time>
      </trkpt>
      <trkpt lat="45.55614" lon="4.36303">
        <ele>593.40002441406</ele>
        <time>2015-07-27T16:31:52.000Z</time>
      </trkpt>
      <trkpt lat="45.55607" lon="4.36327">
        <ele>595.40002441406</ele>
        <time>2015-07-27T16:32:01.000Z</time>
      </trkpt>
      <trkpt lat="45.55604" lon="4.36354">
        <ele>597.59997558594</ele>
        <time>2015-07-27T16:32:10.000Z</time>
      </trkpt>
      <trkpt lat="45.55601" lon="4.36381">
        <ele>598.79998779297</ele>
        <time>2015-07-27T16:32:19.000Z</time>
      </trkpt>
      <trkpt lat="45.55598" lon="4.3641">
        <ele>599.40002441406</ele>
        <time>2015-07-27T16:32:26.000Z</time>
      </trkpt>
      <trkpt lat="45.55594" lon="4.3644">
        <ele>600.59997558594</ele>
        <time>2015-07-27T16:32:31.000Z</time>
      </trkpt>
      <trkpt lat="45.55589" lon="4.3647">
        <ele>600.59997558594</ele>
        <time>2015-07-27T16:32:36.000Z</time>
      </trkpt>
      <trkpt lat="45.55584" lon="4.36496">
        <ele>601</ele>
        <time>2015-07-27T16:32:41.000Z</time>
      </trkpt>
      <trkpt lat="45.55581" lon="4.36524">
        <ele>602</ele>
        <time>2015-07-27T16:32:47.000Z</time>
      </trkpt>
      <trkpt lat="45.55576" lon="4.3655">
        <ele>601.20001220703</ele>
        <time>2015-07-27T16:32:52.000Z</time>
      </trkpt>
      <trkpt lat="45.55568" lon="4.36577">
        <ele>601.59997558594</ele>
        <time>2015-07-27T16:32:57.000Z</time>
      </trkpt>
      <trkpt lat="45.5556" lon="4.36605">
        <ele>602.20001220703</ele>
        <time>2015-07-27T16:33:02.000Z</time>
      </trkpt>
      <trkpt lat="45.55553" lon="4.36633">
        <ele>603</ele>
        <time>2015-07-27T16:33:07.000Z</time>
      </trkpt>
      <trkpt lat="45.55547" lon="4.36658">
        <ele>603.20001220703</ele>
        <time>2015-07-27T16:33:12.000Z</time>
      </trkpt>
      <trkpt lat="45.55543" lon="4.36685">
        <ele>603.20001220703</ele>
        <time>2015-07-27T16:33:18.000Z</time>
      </trkpt>
      <trkpt lat="45.55541" lon="4.36712">
        <ele>603.40002441406</ele>
        <time>2015-07-27T16:33:25.000Z</time>
      </trkpt>
      <trkpt lat="45.55541" lon="4.36738">
        <ele>602.79998779297</ele>
        <time>2015-07-27T16:33:32.000Z</time>
      </trkpt>
      <trkpt lat="45.55541" lon="4.36743">
        <ele>602.59997558594</ele>
        <time>2015-07-27T16:33:33.000Z</time>
      </trkpt>
      <trkpt lat="45.55533" lon="4.3677">
        <ele>602.59997558594</ele>
        <time>2015-07-27T16:33:39.000Z</time>
      </trkpt>
      <trkpt lat="45.55522" lon="4.36791">
        <ele>604</ele>
        <time>2015-07-27T16:33:45.000Z</time>
      </trkpt>
      <trkpt lat="45.55511" lon="4.36811">
        <ele>604</ele>
        <time>2015-07-27T16:33:52.000Z</time>
      </trkpt>
      <trkpt lat="45.55498" lon="4.3683">
        <ele>606.40002441406</ele>
        <time>2015-07-27T16:34:00.000Z</time>
      </trkpt>
      <trkpt lat="45.55483" lon="4.36849">
        <ele>610.79998779297</ele>
        <time>2015-07-27T16:34:08.000Z</time>
      </trkpt>
      <trkpt lat="45.55469" lon="4.36867">
        <ele>614.40002441406</ele>
        <time>2015-07-27T16:34:14.000Z</time>
      </trkpt>
      <trkpt lat="45.55455" lon="4.36887">
        <ele>612.59997558594</ele>
        <time>2015-07-27T16:34:19.000Z</time>
      </trkpt>
      <trkpt lat="45.55439" lon="4.36911">
        <ele>610</ele>
        <time>2015-07-27T16:34:24.000Z</time>
      </trkpt>
      <trkpt lat="45.55426" lon="4.36929">
        <ele>611.59997558594</ele>
        <time>2015-07-27T16:34:28.000Z</time>
      </trkpt>
      <trkpt lat="45.55411" lon="4.36952">
        <ele>614.59997558594</ele>
        <time>2015-07-27T16:34:33.000Z</time>
      </trkpt>
      <trkpt lat="45.55398" lon="4.36973">
        <ele>615</ele>
        <time>2015-07-27T16:34:38.000Z</time>
      </trkpt>
      <trkpt lat="45.55384" lon="4.36993">
        <ele>618</ele>
        <time>2015-07-27T16:34:44.000Z</time>
      </trkpt>
      <trkpt lat="45.5537" lon="4.37011">
        <ele>618</ele>
        <time>2015-07-27T16:34:50.000Z</time>
      </trkpt>
      <trkpt lat="45.55353" lon="4.37026">
        <ele>619.59997558594</ele>
        <time>2015-07-27T16:34:57.000Z</time>
      </trkpt>
      <trkpt lat="45.55335" lon="4.37027">
        <ele>620.79998779297</ele>
        <time>2015-07-27T16:35:03.000Z</time>
      </trkpt>
      <trkpt lat="45.55317" lon="4.37029">
        <ele>622</ele>
        <time>2015-07-27T16:35:09.000Z</time>
      </trkpt>
      <trkpt lat="45.55297" lon="4.37037">
        <ele>622.59997558594</ele>
        <time>2015-07-27T16:35:14.000Z</time>
      </trkpt>
      <trkpt lat="45.55286" lon="4.37045">
        <ele>621</ele>
        <time>2015-07-27T16:35:16.000Z</time>
      </trkpt>
      <trkpt lat="45.55267" lon="4.37063">
        <ele>618.59997558594</ele>
        <time>2015-07-27T16:35:19.000Z</time>
      </trkpt>
      <trkpt lat="45.55249" lon="4.37081">
        <ele>618.40002441406</ele>
        <time>2015-07-27T16:35:22.000Z</time>
      </trkpt>
      <trkpt lat="45.55235" lon="4.371">
        <ele>620.40002441406</ele>
        <time>2015-07-27T16:35:25.000Z</time>
      </trkpt>
      <trkpt lat="45.55216" lon="4.3712">
        <ele>622.20001220703</ele>
        <time>2015-07-27T16:35:29.000Z</time>
      </trkpt>
      <trkpt lat="45.55197" lon="4.37136">
        <ele>622</ele>
        <time>2015-07-27T16:35:33.000Z</time>
      </trkpt>
      <trkpt lat="45.55179" lon="4.37149">
        <ele>621.79998779297</ele>
        <time>2015-07-27T16:35:37.000Z</time>
      </trkpt>
      <trkpt lat="45.55169" lon="4.37154">
        <ele>621.79998779297</ele>
        <time>2015-07-27T16:35:40.000Z</time>
      </trkpt>
      <trkpt lat="45.55168" lon="4.37155">
        <ele>621.79998779297</ele>
        <time>2015-07-27T16:35:42.000Z</time>
      </trkpt>
      <trkpt lat="45.55152" lon="4.37161">
        <ele>622.20001220703</ele>
        <time>2015-07-27T16:36:11.000Z</time>
      </trkpt>
      <trkpt lat="45.55135" lon="4.37167">
        <ele>622.59997558594</ele>
        <time>2015-07-27T16:36:19.000Z</time>
      </trkpt>
      <trkpt lat="45.55115" lon="4.37168">
        <ele>623.79998779297</ele>
        <time>2015-07-27T16:36:28.000Z</time>
      </trkpt>
      <trkpt lat="45.55096" lon="4.37166">
        <ele>624.79998779297</ele>
        <time>2015-07-27T16:36:35.000Z</time>
      </trkpt>
      <trkpt lat="45.55078" lon="4.37161">
        <ele>625</ele>
        <time>2015-07-27T16:36:41.000Z</time>
      </trkpt>
      <trkpt lat="45.5506" lon="4.37153">
        <ele>624.79998779297</ele>
        <time>2015-07-27T16:36:47.000Z</time>
      </trkpt>
      <trkpt lat="45.5504" lon="4.37146">
        <ele>625.79998779297</ele>
        <time>2015-07-27T16:36:54.000Z</time>
      </trkpt>
      <trkpt lat="45.55019" lon="4.37139">
        <ele>627.20001220703</ele>
        <time>2015-07-27T16:37:01.000Z</time>
      </trkpt>
      <trkpt lat="45.55" lon="4.3713">
        <ele>628.20001220703</ele>
        <time>2015-07-27T16:37:07.000Z</time>
      </trkpt>
      <trkpt lat="45.54981" lon="4.37122">
        <ele>629.20001220703</ele>
        <time>2015-07-27T16:37:13.000Z</time>
      </trkpt>
      <trkpt lat="45.54962" lon="4.37117">
        <ele>630</ele>
        <time>2015-07-27T16:37:18.000Z</time>
      </trkpt>
      <trkpt lat="45.54943" lon="4.37126">
        <ele>630</ele>
        <time>2015-07-27T16:37:22.000Z</time>
      </trkpt>
      <trkpt lat="45.5494" lon="4.37131">
        <ele>630.20001220703</ele>
        <time>2015-07-27T16:37:23.000Z</time>
      </trkpt>
      <trkpt lat="45.54929" lon="4.37153">
        <ele>631.40002441406</ele>
        <time>2015-07-27T16:37:27.000Z</time>
      </trkpt>
      <trkpt lat="45.54924" lon="4.37164">
        <ele>631.79998779297</ele>
        <time>2015-07-27T16:37:29.000Z</time>
      </trkpt>
      <trkpt lat="45.54917" lon="4.37191">
        <ele>633.20001220703</ele>
        <time>2015-07-27T16:37:34.000Z</time>
      </trkpt>
      <trkpt lat="45.54911" lon="4.37216">
        <ele>634.59997558594</ele>
        <time>2015-07-27T16:37:39.000Z</time>
      </trkpt>
      <trkpt lat="45.54906" lon="4.37243">
        <ele>636.59997558594</ele>
        <time>2015-07-27T16:37:44.000Z</time>
      </trkpt>
      <trkpt lat="45.54903" lon="4.37256">
        <ele>637.59997558594</ele>
        <time>2015-07-27T16:37:47.000Z</time>
      </trkpt>
      <trkpt lat="45.54884" lon="4.37273">
        <ele>638.40002441406</ele>
        <time>2015-07-27T16:37:52.000Z</time>
      </trkpt>
      <trkpt lat="45.54859" lon="4.37276">
        <ele>635.40002441406</ele>
        <time>2015-07-27T16:37:55.000Z</time>
      </trkpt>
      <trkpt lat="45.54849" lon="4.37277">
        <ele>634.20001220703</ele>
        <time>2015-07-27T16:37:56.000Z</time>
      </trkpt>
      <trkpt lat="45.54831" lon="4.3728">
        <ele>631.79998779297</ele>
        <time>2015-07-27T16:37:58.000Z</time>
      </trkpt>
      <trkpt lat="45.54823" lon="4.37283">
        <ele>631</ele>
        <time>2015-07-27T16:37:59.000Z</time>
      </trkpt>
      <trkpt lat="45.54804" lon="4.37287">
        <ele>628.59997558594</ele>
        <time>2015-07-27T16:38:02.000Z</time>
      </trkpt>
      <trkpt lat="45.54793" lon="4.37288">
        <ele>626.79998779297</ele>
        <time>2015-07-27T16:38:04.000Z</time>
      </trkpt>
      <trkpt lat="45.5477" lon="4.37292">
        <ele>622.59997558594</ele>
        <time>2015-07-27T16:38:08.000Z</time>
      </trkpt>
      <trkpt lat="45.54751" lon="4.37298">
        <ele>619.40002441406</ele>
        <time>2015-07-27T16:38:11.000Z</time>
      </trkpt>
      <trkpt lat="45.54733" lon="4.37308">
        <ele>616.20001220703</ele>
        <time>2015-07-27T16:38:14.000Z</time>
      </trkpt>
      <trkpt lat="45.54728" lon="4.37312">
        <ele>615.40002441406</ele>
        <time>2015-07-27T16:38:15.000Z</time>
      </trkpt>
      <trkpt lat="45.54715" lon="4.3733">
        <ele>613.79998779297</ele>
        <time>2015-07-27T16:38:18.000Z</time>
      </trkpt>
      <trkpt lat="45.54707" lon="4.37346">
        <ele>613.20001220703</ele>
        <time>2015-07-27T16:38:20.000Z</time>
      </trkpt>
      <trkpt lat="45.54698" lon="4.37369">
        <ele>612.59997558594</ele>
        <time>2015-07-27T16:38:23.000Z</time>
      </trkpt>
      <trkpt lat="45.54694" lon="4.37374">
        <ele>612</ele>
        <time>2015-07-27T16:38:24.000Z</time>
      </trkpt>
      <trkpt lat="45.54674" lon="4.37388">
        <ele>608.59997558594</ele>
        <time>2015-07-27T16:38:28.000Z</time>
      </trkpt>
      <trkpt lat="45.54654" lon="4.37402">
        <ele>605.59997558594</ele>
        <time>2015-07-27T16:38:31.000Z</time>
      </trkpt>
      <trkpt lat="45.54634" lon="4.37417">
        <ele>602.79998779297</ele>
        <time>2015-07-27T16:38:34.000Z</time>
      </trkpt>
      <trkpt lat="45.54612" lon="4.3743">
        <ele>600.20001220703</ele>
        <time>2015-07-27T16:38:37.000Z</time>
      </trkpt>
      <trkpt lat="45.54594" lon="4.37442">
        <ele>599.20001220703</ele>
        <time>2015-07-27T16:38:40.000Z</time>
      </trkpt>
      <trkpt lat="45.54575" lon="4.37461">
        <ele>598.79998779297</ele>
        <time>2015-07-27T16:38:44.000Z</time>
      </trkpt>
      <trkpt lat="45.54558" lon="4.37481">
        <ele>598.59997558594</ele>
        <time>2015-07-27T16:38:48.000Z</time>
      </trkpt>
      <trkpt lat="45.54538" lon="4.375">
        <ele>598.40002441406</ele>
        <time>2015-07-27T16:38:52.000Z</time>
      </trkpt>
      <trkpt lat="45.5453" lon="4.3751">
        <ele>598.59997558594</ele>
        <time>2015-07-27T16:38:54.000Z</time>
      </trkpt>
      <trkpt lat="45.54521" lon="4.37539">
        <ele>599.79998779297</ele>
        <time>2015-07-27T16:38:58.000Z</time>
      </trkpt>
      <trkpt lat="45.54519" lon="4.37547">
        <ele>600.20001220703</ele>
        <time>2015-07-27T16:38:59.000Z</time>
      </trkpt>
      <trkpt lat="45.54517" lon="4.37563">
        <ele>600.59997558594</ele>
        <time>2015-07-27T16:39:01.000Z</time>
      </trkpt>
      <trkpt lat="45.54509" lon="4.37595">
        <ele>600.20001220703</ele>
        <time>2015-07-27T16:39:05.000Z</time>
      </trkpt>
      <trkpt lat="45.54502" lon="4.37624">
        <ele>599.20001220703</ele>
        <time>2015-07-27T16:39:09.000Z</time>
      </trkpt>
      <trkpt lat="45.54497" lon="4.37641">
        <ele>598.59997558594</ele>
        <time>2015-07-27T16:39:12.000Z</time>
      </trkpt>
      <trkpt lat="45.54492" lon="4.37653">
        <ele>598.79998779297</ele>
        <time>2015-07-27T16:39:15.000Z</time>
      </trkpt>
      <trkpt lat="45.54477" lon="4.37661">
        <ele>598.20001220703</ele>
        <time>2015-07-27T16:39:21.000Z</time>
      </trkpt>
      <trkpt lat="45.54457" lon="4.37662">
        <ele>597.59997558594</ele>
        <time>2015-07-27T16:39:30.000Z</time>
      </trkpt>
      <trkpt lat="45.54439" lon="4.37656">
        <ele>597.40002441406</ele>
        <time>2015-07-27T16:39:38.000Z</time>
      </trkpt>
      <trkpt lat="45.5443" lon="4.37653">
        <ele>597.20001220703</ele>
        <time>2015-07-27T16:39:43.000Z</time>
      </trkpt>
      <trkpt lat="45.54422" lon="4.3765">
        <ele>597.20001220703</ele>
        <time>2015-07-27T16:39:47.000Z</time>
      </trkpt>
      <trkpt lat="45.54406" lon="4.37658">
        <ele>598.59997558594</ele>
        <time>2015-07-27T16:39:58.000Z</time>
      </trkpt>
      <trkpt lat="45.54398" lon="4.3768">
        <ele>601.40002441406</ele>
        <time>2015-07-27T16:40:22.000Z</time>
      </trkpt>
      <trkpt lat="45.54387" lon="4.377">
        <ele>603.79998779297</ele>
        <time>2015-07-27T16:40:51.000Z</time>
      </trkpt>
      <trkpt lat="45.54371" lon="4.37713">
        <ele>605.79998779297</ele>
        <time>2015-07-27T16:41:19.000Z</time>
      </trkpt>
      <trkpt lat="45.54353" lon="4.37719">
        <ele>607.59997558594</ele>
        <time>2015-07-27T16:41:43.000Z</time>
      </trkpt>
      <trkpt lat="45.54337" lon="4.3773">
        <ele>609.40002441406</ele>
        <time>2015-07-27T16:42:14.000Z</time>
      </trkpt>
      <trkpt lat="45.54322" lon="4.37736">
        <ele>612.40002441406</ele>
        <time>2015-07-27T16:42:23.000Z</time>
      </trkpt>
      <trkpt lat="45.54304" lon="4.37741">
        <ele>616.20001220703</ele>
        <time>2015-07-27T16:42:47.000Z</time>
      </trkpt>
      <trkpt lat="45.54285" lon="4.37742">
        <ele>618.20001220703</ele>
        <time>2015-07-27T16:43:01.000Z</time>
      </trkpt>
      <trkpt lat="45.54267" lon="4.3774">
        <ele>619.40002441406</ele>
        <time>2015-07-27T16:43:16.000Z</time>
      </trkpt>
      <trkpt lat="45.54263" lon="4.37739">
        <ele>619.59997558594</ele>
        <time>2015-07-27T16:43:19.000Z</time>
      </trkpt>
      <trkpt lat="45.54244" lon="4.37738">
        <ele>621.59997558594</ele>
        <time>2015-07-27T16:43:36.000Z</time>
      </trkpt>
      <trkpt lat="45.54238" lon="4.37738">
        <ele>622.20001220703</ele>
        <time>2015-07-27T16:43:41.000Z</time>
      </trkpt>
      <trkpt lat="45.54228" lon="4.37736">
        <ele>623.20001220703</ele>
        <time>2015-07-27T16:43:50.000Z</time>
      </trkpt>
      <trkpt lat="45.54209" lon="4.37734">
        <ele>625.59997558594</ele>
        <time>2015-07-27T16:44:05.000Z</time>
      </trkpt>
      <trkpt lat="45.54197" lon="4.37732">
        <ele>628</ele>
        <time>2015-07-27T16:44:16.000Z</time>
      </trkpt>
      <trkpt lat="45.54185" lon="4.37733">
        <ele>630.40002441406</ele>
        <time>2015-07-27T16:44:25.000Z</time>
      </trkpt>
      <trkpt lat="45.54166" lon="4.3773">
        <ele>633.79998779297</ele>
        <time>2015-07-27T16:44:38.000Z</time>
      </trkpt>
      <trkpt lat="45.54148" lon="4.37723">
        <ele>636.40002441406</ele>
        <time>2015-07-27T16:44:51.000Z</time>
      </trkpt>
      <trkpt lat="45.54129" lon="4.37722">
        <ele>640.20001220703</ele>
        <time>2015-07-27T16:45:03.000Z</time>
      </trkpt>
      <trkpt lat="45.54111" lon="4.37725">
        <ele>644.20001220703</ele>
        <time>2015-07-27T16:45:15.000Z</time>
      </trkpt>
      <trkpt lat="45.54092" lon="4.37725">
        <ele>647.20001220703</ele>
        <time>2015-07-27T16:45:27.000Z</time>
      </trkpt>
      <trkpt lat="45.54073" lon="4.37722">
        <ele>650</ele>
        <time>2015-07-27T16:45:39.000Z</time>
      </trkpt>
      <trkpt lat="45.54054" lon="4.37725">
        <ele>651.20001220703</ele>
        <time>2015-07-27T16:45:52.000Z</time>
      </trkpt>
      <trkpt lat="45.54036" lon="4.3773">
        <ele>652.59997558594</ele>
        <time>2015-07-27T16:46:03.000Z</time>
      </trkpt>
      <trkpt lat="45.54016" lon="4.37733">
        <ele>654.20001220703</ele>
        <time>2015-07-27T16:46:13.000Z</time>
      </trkpt>
      <trkpt lat="45.53996" lon="4.37737">
        <ele>655.40002441406</ele>
        <time>2015-07-27T16:46:21.000Z</time>
      </trkpt>
      <trkpt lat="45.53979" lon="4.3774">
        <ele>655.79998779297</ele>
        <time>2015-07-27T16:46:28.000Z</time>
      </trkpt>
      <trkpt lat="45.53956" lon="4.37741">
        <ele>655.59997558594</ele>
        <time>2015-07-27T16:46:32.000Z</time>
      </trkpt>
      <trkpt lat="45.53933" lon="4.37744">
        <ele>654.79998779297</ele>
        <time>2015-07-27T16:46:35.000Z</time>
      </trkpt>
      <trkpt lat="45.53913" lon="4.37744">
        <ele>653.59997558594</ele>
        <time>2015-07-27T16:46:38.000Z</time>
      </trkpt>
      <trkpt lat="45.53905" lon="4.37745">
        <ele>653</ele>
        <time>2015-07-27T16:46:40.000Z</time>
      </trkpt>
      <trkpt lat="45.53882" lon="4.37749">
        <ele>651.59997558594</ele>
        <time>2015-07-27T16:46:45.000Z</time>
      </trkpt>
      <trkpt lat="45.53861" lon="4.37752">
        <ele>648.59997558594</ele>
        <time>2015-07-27T16:46:48.000Z</time>
      </trkpt>
      <trkpt lat="45.53834" lon="4.37757">
        <ele>645.40002441406</ele>
        <time>2015-07-27T16:46:51.000Z</time>
      </trkpt>
      <trkpt lat="45.53815" lon="4.37761">
        <ele>643</ele>
        <time>2015-07-27T16:46:53.000Z</time>
      </trkpt>
      <trkpt lat="45.53795" lon="4.37766">
        <ele>640.59997558594</ele>
        <time>2015-07-27T16:46:55.000Z</time>
      </trkpt>
      <trkpt lat="45.53785" lon="4.37769">
        <ele>639.59997558594</ele>
        <time>2015-07-27T16:46:56.000Z</time>
      </trkpt>
      <trkpt lat="45.53767" lon="4.37775">
        <ele>638.40002441406</ele>
        <time>2015-07-27T16:46:58.000Z</time>
      </trkpt>
      <trkpt lat="45.53759" lon="4.37777">
        <ele>637.79998779297</ele>
        <time>2015-07-27T16:46:59.000Z</time>
      </trkpt>
      <trkpt lat="45.5374" lon="4.37775">
        <ele>636.40002441406</ele>
        <time>2015-07-27T16:47:02.000Z</time>
      </trkpt>
      <trkpt lat="45.5373" lon="4.37772">
        <ele>635.79998779297</ele>
        <time>2015-07-27T16:47:04.000Z</time>
      </trkpt>
      <trkpt lat="45.53723" lon="4.37769">
        <ele>635.20001220703</ele>
        <time>2015-07-27T16:47:06.000Z</time>
      </trkpt>
      <trkpt lat="45.53705" lon="4.37762">
        <ele>636</ele>
        <time>2015-07-27T16:47:13.000Z</time>
      </trkpt>
      <trkpt lat="45.53685" lon="4.37759">
        <ele>638.40002441406</ele>
        <time>2015-07-27T16:47:22.000Z</time>
      </trkpt>
      <trkpt lat="45.53667" lon="4.37757">
        <ele>640.79998779297</ele>
        <time>2015-07-27T16:47:30.000Z</time>
      </trkpt>
      <trkpt lat="45.53647" lon="4.37757">
        <ele>643.40002441406</ele>
        <time>2015-07-27T16:47:38.000Z</time>
      </trkpt>
      <trkpt lat="45.53629" lon="4.37757">
        <ele>645.79998779297</ele>
        <time>2015-07-27T16:47:46.000Z</time>
      </trkpt>
      <trkpt lat="45.5361" lon="4.37759">
        <ele>648.59997558594</ele>
        <time>2015-07-27T16:47:56.000Z</time>
      </trkpt>
      <trkpt lat="45.53591" lon="4.37763">
        <ele>650.59997558594</ele>
        <time>2015-07-27T16:48:06.000Z</time>
      </trkpt>
      <trkpt lat="45.53571" lon="4.3777">
        <ele>652.79998779297</ele>
        <time>2015-07-27T16:48:15.000Z</time>
      </trkpt>
      <trkpt lat="45.53564" lon="4.3777">
        <ele>653.59997558594</ele>
        <time>2015-07-27T16:48:18.000Z</time>
      </trkpt>
      <trkpt lat="45.53545" lon="4.37767">
        <ele>655</ele>
        <time>2015-07-27T16:48:27.000Z</time>
      </trkpt>
      <trkpt lat="45.53529" lon="4.37778">
        <ele>655.59997558594</ele>
        <time>2015-07-27T16:48:36.000Z</time>
      </trkpt>
      <trkpt lat="45.53529" lon="4.37781">
        <ele>655.79998779297</ele>
        <time>2015-07-27T16:48:37.000Z</time>
      </trkpt>
      <trkpt lat="45.53526" lon="4.37808">
        <ele>657.79998779297</ele>
        <time>2015-07-27T16:48:44.000Z</time>
      </trkpt>
      <trkpt lat="45.5352" lon="4.37833">
        <ele>659.79998779297</ele>
        <time>2015-07-27T16:48:50.000Z</time>
      </trkpt>
      <trkpt lat="45.5351" lon="4.37854">
        <ele>661</ele>
        <time>2015-07-27T16:48:58.000Z</time>
      </trkpt>
      <trkpt lat="45.53499" lon="4.37877">
        <ele>663.59997558594</ele>
        <time>2015-07-27T16:49:07.000Z</time>
      </trkpt>
      <trkpt lat="45.53487" lon="4.37897">
        <ele>665.79998779297</ele>
        <time>2015-07-27T16:49:16.000Z</time>
      </trkpt>
      <trkpt lat="45.53474" lon="4.37917">
        <ele>666.20001220703</ele>
        <time>2015-07-27T16:49:25.000Z</time>
      </trkpt>
      <trkpt lat="45.53463" lon="4.37938">
        <ele>667.20001220703</ele>
        <time>2015-07-27T16:49:34.000Z</time>
      </trkpt>
      <trkpt lat="45.53459" lon="4.37967">
        <ele>668.59997558594</ele>
        <time>2015-07-27T16:49:43.000Z</time>
      </trkpt>
      <trkpt lat="45.53457" lon="4.37993">
        <ele>670</ele>
        <time>2015-07-27T16:49:48.000Z</time>
      </trkpt>
      <trkpt lat="45.53456" lon="4.38022">
        <ele>671.59997558594</ele>
        <time>2015-07-27T16:49:53.000Z</time>
      </trkpt>
      <trkpt lat="45.53453" lon="4.3805">
        <ele>671.40002441406</ele>
        <time>2015-07-27T16:49:58.000Z</time>
      </trkpt>
      <trkpt lat="45.53439" lon="4.38067">
        <ele>670</ele>
        <time>2015-07-27T16:50:03.000Z</time>
      </trkpt>
      <trkpt lat="45.53418" lon="4.38074">
        <ele>668</ele>
        <time>2015-07-27T16:50:08.000Z</time>
      </trkpt>
      <trkpt lat="45.53398" lon="4.38083">
        <ele>666.59997558594</ele>
        <time>2015-07-27T16:50:13.000Z</time>
      </trkpt>
      <trkpt lat="45.53378" lon="4.38092">
        <ele>665.79998779297</ele>
        <time>2015-07-27T16:50:18.000Z</time>
      </trkpt>
      <trkpt lat="45.53357" lon="4.38102">
        <ele>665.40002441406</ele>
        <time>2015-07-27T16:50:23.000Z</time>
      </trkpt>
      <trkpt lat="45.5334" lon="4.38114">
        <ele>664.40002441406</ele>
        <time>2015-07-27T16:50:27.000Z</time>
      </trkpt>
      <trkpt lat="45.53323" lon="4.38133">
        <ele>665</ele>
        <time>2015-07-27T16:50:32.000Z</time>
      </trkpt>
      <trkpt lat="45.5331" lon="4.38153">
        <ele>666.20001220703</ele>
        <time>2015-07-27T16:50:36.000Z</time>
      </trkpt>
      <trkpt lat="45.53307" lon="4.38157">
        <ele>666.40002441406</ele>
        <time>2015-07-27T16:50:37.000Z</time>
      </trkpt>
      <trkpt lat="45.53291" lon="4.38177">
        <ele>669.20001220703</ele>
        <time>2015-07-27T16:50:41.000Z</time>
      </trkpt>
      <trkpt lat="45.53276" lon="4.38198">
        <ele>669.40002441406</ele>
        <time>2015-07-27T16:50:45.000Z</time>
      </trkpt>
      <trkpt lat="45.53262" lon="4.38215">
        <ele>670.20001220703</ele>
        <time>2015-07-27T16:50:49.000Z</time>
      </trkpt>
      <trkpt lat="45.53252" lon="4.38227">
        <ele>670.59997558594</ele>
        <time>2015-07-27T16:50:53.000Z</time>
      </trkpt>
      <trkpt lat="45.53234" lon="4.3822">
        <ele>669.79998779297</ele>
        <time>2015-07-27T16:51:01.000Z</time>
      </trkpt>
      <trkpt lat="45.53218" lon="4.3822">
        <ele>669.40002441406</ele>
        <time>2015-07-27T16:51:11.000Z</time>
      </trkpt>
      <trkpt lat="45.53217" lon="4.38221">
        <ele>669.59997558594</ele>
        <time>2015-07-27T16:51:12.000Z</time>
      </trkpt>
      <trkpt lat="45.53199" lon="4.38234">
        <ele>673</ele>
        <time>2015-07-27T16:51:24.000Z</time>
      </trkpt>
      <trkpt lat="45.53183" lon="4.3825">
        <ele>676.20001220703</ele>
        <time>2015-07-27T16:51:54.000Z</time>
      </trkpt>
      <trkpt lat="45.53167" lon="4.38262">
        <ele>676.79998779297</ele>
        <time>2015-07-27T16:52:23.000Z</time>
      </trkpt>
      <trkpt lat="45.5315" lon="4.38268">
        <ele>677.59997558594</ele>
        <time>2015-07-27T16:52:53.000Z</time>
      </trkpt>
      <trkpt lat="45.53133" lon="4.38276">
        <ele>678.40002441406</ele>
        <time>2015-07-27T16:53:06.000Z</time>
      </trkpt>
      <trkpt lat="45.53121" lon="4.38276">
        <ele>680.20001220703</ele>
        <time>2015-07-27T16:53:13.000Z</time>
      </trkpt>
      <trkpt lat="45.53115" lon="4.3828">
        <ele>680.79998779297</ele>
        <time>2015-07-27T16:53:17.000Z</time>
      </trkpt>
      <trkpt lat="45.53104" lon="4.3829">
        <ele>682.79998779297</ele>
        <time>2015-07-27T16:53:37.000Z</time>
      </trkpt>
      <trkpt lat="45.53086" lon="4.38295">
        <ele>685.59997558594</ele>
        <time>2015-07-27T16:54:06.000Z</time>
      </trkpt>
      <trkpt lat="45.53068" lon="4.38301">
        <ele>688.40002441406</ele>
        <time>2015-07-27T16:54:31.000Z</time>
      </trkpt>
      <trkpt lat="45.53051" lon="4.3831">
        <ele>691</ele>
        <time>2015-07-27T16:54:59.000Z</time>
      </trkpt>
      <trkpt lat="45.53032" lon="4.38317">
        <ele>695</ele>
        <time>2015-07-27T16:55:11.000Z</time>
      </trkpt>
      <trkpt lat="45.53031" lon="4.38317">
        <ele>695.40002441406</ele>
        <time>2015-07-27T16:55:12.000Z</time>
      </trkpt>
      <trkpt lat="45.53013" lon="4.38324">
        <ele>699.20001220703</ele>
        <time>2015-07-27T16:55:24.000Z</time>
      </trkpt>
      <trkpt lat="45.53011" lon="4.38324">
        <ele>699.59997558594</ele>
        <time>2015-07-27T16:55:25.000Z</time>
      </trkpt>
      <trkpt lat="45.52992" lon="4.38327">
        <ele>702.59997558594</ele>
        <time>2015-07-27T16:55:39.000Z</time>
      </trkpt>
      <trkpt lat="45.52975" lon="4.38335">
        <ele>705.20001220703</ele>
        <time>2015-07-27T16:55:50.000Z</time>
      </trkpt>
      <trkpt lat="45.52957" lon="4.38341">
        <ele>708.20001220703</ele>
        <time>2015-07-27T16:56:04.000Z</time>
      </trkpt>
      <trkpt lat="45.52939" lon="4.3835">
        <ele>710.40002441406</ele>
        <time>2015-07-27T16:56:15.000Z</time>
      </trkpt>
      <trkpt lat="45.52921" lon="4.38357">
        <ele>712.20001220703</ele>
        <time>2015-07-27T16:56:25.000Z</time>
      </trkpt>
      <trkpt lat="45.52903" lon="4.38364">
        <ele>713.79998779297</ele>
        <time>2015-07-27T16:56:39.000Z</time>
      </trkpt>
      <trkpt lat="45.52884" lon="4.38372">
        <ele>716.20001220703</ele>
        <time>2015-07-27T16:56:52.000Z</time>
      </trkpt>
      <trkpt lat="45.52872" lon="4.38377">
        <ele>717.59997558594</ele>
        <time>2015-07-27T16:56:59.000Z</time>
      </trkpt>
      <trkpt lat="45.52854" lon="4.38381">
        <ele>720</ele>
        <time>2015-07-27T16:57:10.000Z</time>
      </trkpt>
      <trkpt lat="45.52853" lon="4.38382">
        <ele>720.20001220703</ele>
        <time>2015-07-27T16:57:11.000Z</time>
      </trkpt>
      <trkpt lat="45.52842" lon="4.38388">
        <ele>721.59997558594</ele>
        <time>2015-07-27T16:57:17.000Z</time>
      </trkpt>
      <trkpt lat="45.52824" lon="4.38396">
        <ele>723.59997558594</ele>
        <time>2015-07-27T16:57:27.000Z</time>
      </trkpt>
      <trkpt lat="45.52806" lon="4.38404">
        <ele>725</ele>
        <time>2015-07-27T16:57:36.000Z</time>
      </trkpt>
      <trkpt lat="45.52787" lon="4.38406">
        <ele>725.59997558594</ele>
        <time>2015-07-27T16:57:45.000Z</time>
      </trkpt>
      <trkpt lat="45.52768" lon="4.3841">
        <ele>725.79998779297</ele>
        <time>2015-07-27T16:57:56.000Z</time>
      </trkpt>
      <trkpt lat="45.5275" lon="4.38415">
        <ele>725.79998779297</ele>
        <time>2015-07-27T16:58:05.000Z</time>
      </trkpt>
      <trkpt lat="45.52749" lon="4.38415">
        <ele>725.79998779297</ele>
        <time>2015-07-27T16:58:06.000Z</time>
      </trkpt>
      <trkpt lat="45.52748" lon="4.38418">
        <ele>725.79998779297</ele>
        <time>2015-07-27T16:59:32.000Z</time>
      </trkpt>
      <trkpt lat="45.52745" lon="4.38423">
        <ele>725.59997558594</ele>
        <time>2015-07-27T16:59:38.000Z</time>
      </trkpt>
      <trkpt lat="45.52729" lon="4.38437">
        <ele>725.20001220703</ele>
        <time>2015-07-27T16:59:44.000Z</time>
      </trkpt>
      <trkpt lat="45.52711" lon="4.38451">
        <ele>724.79998779297</ele>
        <time>2015-07-27T16:59:50.000Z</time>
      </trkpt>
      <trkpt lat="45.52693" lon="4.38461">
        <ele>724.59997558594</ele>
        <time>2015-07-27T16:59:55.000Z</time>
      </trkpt>
      <trkpt lat="45.52674" lon="4.38468">
        <ele>724.20001220703</ele>
        <time>2015-07-27T17:00:00.000Z</time>
      </trkpt>
      <trkpt lat="45.52654" lon="4.38475">
        <ele>723.79998779297</ele>
        <time>2015-07-27T17:00:05.000Z</time>
      </trkpt>
      <trkpt lat="45.52636" lon="4.38484">
        <ele>724</ele>
        <time>2015-07-27T17:00:11.000Z</time>
      </trkpt>
      <trkpt lat="45.52618" lon="4.38497">
        <ele>724.79998779297</ele>
        <time>2015-07-27T17:00:18.000Z</time>
      </trkpt>
      <trkpt lat="45.52602" lon="4.38511">
        <ele>726</ele>
        <time>2015-07-27T17:00:25.000Z</time>
      </trkpt>
      <trkpt lat="45.52586" lon="4.38526">
        <ele>728.40002441406</ele>
        <time>2015-07-27T17:00:32.000Z</time>
      </trkpt>
      <trkpt lat="45.52571" lon="4.38545">
        <ele>731.40002441406</ele>
        <time>2015-07-27T17:00:41.000Z</time>
      </trkpt>
      <trkpt lat="45.52557" lon="4.38565">
        <ele>734.20001220703</ele>
        <time>2015-07-27T17:00:52.000Z</time>
      </trkpt>
      <trkpt lat="45.52546" lon="4.38586">
        <ele>737.20001220703</ele>
        <time>2015-07-27T17:01:02.000Z</time>
      </trkpt>
      <trkpt lat="45.52535" lon="4.38609">
        <ele>739.40002441406</ele>
        <time>2015-07-27T17:01:11.000Z</time>
      </trkpt>
      <trkpt lat="45.52524" lon="4.38632">
        <ele>740.20001220703</ele>
        <time>2015-07-27T17:01:18.000Z</time>
      </trkpt>
      <trkpt lat="45.5251" lon="4.38652">
        <ele>740.20001220703</ele>
        <time>2015-07-27T17:01:23.000Z</time>
      </trkpt>
      <trkpt lat="45.5249" lon="4.38664">
        <ele>739.40002441406</ele>
        <time>2015-07-27T17:01:28.000Z</time>
      </trkpt>
      <trkpt lat="45.52471" lon="4.3867">
        <ele>738</ele>
        <time>2015-07-27T17:01:33.000Z</time>
      </trkpt>
      <trkpt lat="45.52452" lon="4.38678">
        <ele>738</ele>
        <time>2015-07-27T17:01:39.000Z</time>
      </trkpt>
      <trkpt lat="45.52433" lon="4.38686">
        <ele>738.40002441406</ele>
        <time>2015-07-27T17:01:45.000Z</time>
      </trkpt>
      <trkpt lat="45.52416" lon="4.38701">
        <ele>739.20001220703</ele>
        <time>2015-07-27T17:01:51.000Z</time>
      </trkpt>
      <trkpt lat="45.52414" lon="4.38705">
        <ele>739.40002441406</ele>
        <time>2015-07-27T17:01:52.000Z</time>
      </trkpt>
      <trkpt lat="45.5242" lon="4.38733">
        <ele>740.59997558594</ele>
        <time>2015-07-27T17:01:59.000Z</time>
      </trkpt>
      <trkpt lat="45.52428" lon="4.38759">
        <ele>741.59997558594</ele>
        <time>2015-07-27T17:02:07.000Z</time>
      </trkpt>
      <trkpt lat="45.52436" lon="4.38784">
        <ele>742.40002441406</ele>
        <time>2015-07-27T17:02:15.000Z</time>
      </trkpt>
      <trkpt lat="45.52448" lon="4.38806">
        <ele>745</ele>
        <time>2015-07-27T17:02:24.000Z</time>
      </trkpt>
      <trkpt lat="45.52457" lon="4.38829">
        <ele>747.40002441406</ele>
        <time>2015-07-27T17:02:34.000Z</time>
      </trkpt>
      <trkpt lat="45.52465" lon="4.38854">
        <ele>750</ele>
        <time>2015-07-27T17:02:45.000Z</time>
      </trkpt>
      <trkpt lat="45.52477" lon="4.38874">
        <ele>752</ele>
        <time>2015-07-27T17:02:53.000Z</time>
      </trkpt>
      <trkpt lat="45.52491" lon="4.38892">
        <ele>753.79998779297</ele>
        <time>2015-07-27T17:03:02.000Z</time>
      </trkpt>
      <trkpt lat="45.52506" lon="4.38908">
        <ele>755.40002441406</ele>
        <time>2015-07-27T17:03:13.000Z</time>
      </trkpt>
      <trkpt lat="45.52521" lon="4.38923">
        <ele>757</ele>
        <time>2015-07-27T17:03:23.000Z</time>
      </trkpt>
      <trkpt lat="45.52536" lon="4.38938">
        <ele>758.79998779297</ele>
        <time>2015-07-27T17:03:33.000Z</time>
      </trkpt>
      <trkpt lat="45.52552" lon="4.38955">
        <ele>760.40002441406</ele>
        <time>2015-07-27T17:03:44.000Z</time>
      </trkpt>
      <trkpt lat="45.52567" lon="4.38969">
        <ele>761</ele>
        <time>2015-07-27T17:03:55.000Z</time>
      </trkpt>
      <trkpt lat="45.52582" lon="4.38985">
        <ele>761.79998779297</ele>
        <time>2015-07-27T17:04:06.000Z</time>
      </trkpt>
      <trkpt lat="45.52596" lon="4.39001">
        <ele>762.59997558594</ele>
        <time>2015-07-27T17:04:16.000Z</time>
      </trkpt>
      <trkpt lat="45.52609" lon="4.39021">
        <ele>763.59997558594</ele>
        <time>2015-07-27T17:04:26.000Z</time>
      </trkpt>
      <trkpt lat="45.52623" lon="4.39041">
        <ele>764</ele>
        <time>2015-07-27T17:04:35.000Z</time>
      </trkpt>
      <trkpt lat="45.52625" lon="4.39044">
        <ele>764</ele>
        <time>2015-07-27T17:04:36.000Z</time>
      </trkpt>
      <trkpt lat="45.52625" lon="4.39057">
        <ele>763.79998779297</ele>
        <time>2015-07-27T17:04:40.000Z</time>
      </trkpt>
      <trkpt lat="45.52631" lon="4.39085">
        <ele>763.40002441406</ele>
        <time>2015-07-27T17:04:48.000Z</time>
      </trkpt>
      <trkpt lat="45.52633" lon="4.39091">
        <ele>763.20001220703</ele>
        <time>2015-07-27T17:04:50.000Z</time>
      </trkpt>
      <trkpt lat="45.52638" lon="4.39118">
        <ele>762.59997558594</ele>
        <time>2015-07-27T17:04:59.000Z</time>
      </trkpt>
      <trkpt lat="45.52643" lon="4.39145">
        <ele>762.79998779297</ele>
        <time>2015-07-27T17:05:08.000Z</time>
      </trkpt>
      <trkpt lat="45.52647" lon="4.39173">
        <ele>763.40002441406</ele>
        <time>2015-07-27T17:05:18.000Z</time>
      </trkpt>
      <trkpt lat="45.5265" lon="4.392">
        <ele>763.79998779297</ele>
        <time>2015-07-27T17:05:28.000Z</time>
      </trkpt>
      <trkpt lat="45.52654" lon="4.39227">
        <ele>764.59997558594</ele>
        <time>2015-07-27T17:05:39.000Z</time>
      </trkpt>
      <trkpt lat="45.52655" lon="4.39254">
        <ele>766.59997558594</ele>
        <time>2015-07-27T17:05:49.000Z</time>
      </trkpt>
      <trkpt lat="45.52657" lon="4.39281">
        <ele>768.59997558594</ele>
        <time>2015-07-27T17:05:59.000Z</time>
      </trkpt>
      <trkpt lat="45.52657" lon="4.39309">
        <ele>769.79998779297</ele>
        <time>2015-07-27T17:06:09.000Z</time>
      </trkpt>
      <trkpt lat="45.52657" lon="4.39337">
        <ele>771.20001220703</ele>
        <time>2015-07-27T17:06:19.000Z</time>
      </trkpt>
      <trkpt lat="45.52656" lon="4.39364">
        <ele>772.59997558594</ele>
        <time>2015-07-27T17:06:29.000Z</time>
      </trkpt>
      <trkpt lat="45.52656" lon="4.3939">
        <ele>774.40002441406</ele>
        <time>2015-07-27T17:06:39.000Z</time>
      </trkpt>
      <trkpt lat="45.52654" lon="4.39418">
        <ele>776.20001220703</ele>
        <time>2015-07-27T17:06:49.000Z</time>
      </trkpt>
      <trkpt lat="45.52653" lon="4.39444">
        <ele>778.20001220703</ele>
        <time>2015-07-27T17:06:58.000Z</time>
      </trkpt>
      <trkpt lat="45.52651" lon="4.39471">
        <ele>779.59997558594</ele>
        <time>2015-07-27T17:07:08.000Z</time>
      </trkpt>
      <trkpt lat="45.52647" lon="4.39497">
        <ele>781</ele>
        <time>2015-07-27T17:07:17.000Z</time>
      </trkpt>
      <trkpt lat="45.5264" lon="4.39521">
        <ele>782.79998779297</ele>
        <time>2015-07-27T17:07:27.000Z</time>
      </trkpt>
      <trkpt lat="45.52632" lon="4.39545">
        <ele>784.59997558594</ele>
        <time>2015-07-27T17:07:37.000Z</time>
      </trkpt>
      <trkpt lat="45.52625" lon="4.39571">
        <ele>786</ele>
        <time>2015-07-27T17:07:46.000Z</time>
      </trkpt>
      <trkpt lat="45.5262" lon="4.39598">
        <ele>787.40002441406</ele>
        <time>2015-07-27T17:07:55.000Z</time>
      </trkpt>
      <trkpt lat="45.52617" lon="4.39624">
        <ele>787.79998779297</ele>
        <time>2015-07-27T17:08:04.000Z</time>
      </trkpt>
      <trkpt lat="45.52617" lon="4.3965">
        <ele>789.79998779297</ele>
        <time>2015-07-27T17:08:13.000Z</time>
      </trkpt>
      <trkpt lat="45.52618" lon="4.39677">
        <ele>791.59997558594</ele>
        <time>2015-07-27T17:08:22.000Z</time>
      </trkpt>
      <trkpt lat="45.52618" lon="4.39703">
        <ele>792.79998779297</ele>
        <time>2015-07-27T17:08:32.000Z</time>
      </trkpt>
      <trkpt lat="45.52616" lon="4.3973">
        <ele>795.79998779297</ele>
        <time>2015-07-27T17:08:43.000Z</time>
      </trkpt>
      <trkpt lat="45.52612" lon="4.39755">
        <ele>799</ele>
        <time>2015-07-27T17:08:54.000Z</time>
      </trkpt>
      <trkpt lat="45.5261" lon="4.39756">
        <ele>799.20001220703</ele>
        <time>2015-07-27T17:08:55.000Z</time>
      </trkpt>
      <trkpt lat="45.52595" lon="4.39759">
        <ele>800</ele>
        <time>2015-07-27T17:09:03.000Z</time>
      </trkpt>
      <trkpt lat="45.52577" lon="4.39763">
        <ele>800.79998779297</ele>
        <time>2015-07-27T17:09:12.000Z</time>
      </trkpt>
      <trkpt lat="45.52557" lon="4.39766">
        <ele>801.79998779297</ele>
        <time>2015-07-27T17:09:20.000Z</time>
      </trkpt>
      <trkpt lat="45.52538" lon="4.39771">
        <ele>802.40002441406</ele>
        <time>2015-07-27T17:09:26.000Z</time>
      </trkpt>
      <trkpt lat="45.52518" lon="4.39776">
        <ele>802</ele>
        <time>2015-07-27T17:09:31.000Z</time>
      </trkpt>
      <trkpt lat="45.52499" lon="4.39781">
        <ele>801.79998779297</ele>
        <time>2015-07-27T17:09:35.000Z</time>
      </trkpt>
      <trkpt lat="45.52478" lon="4.39785">
        <ele>801.59997558594</ele>
        <time>2015-07-27T17:09:39.000Z</time>
      </trkpt>
      <trkpt lat="45.52472" lon="4.39787">
        <ele>801.40002441406</ele>
        <time>2015-07-27T17:09:40.000Z</time>
      </trkpt>
      <trkpt lat="45.52454" lon="4.39793">
        <ele>800.59997558594</ele>
        <time>2015-07-27T17:09:43.000Z</time>
      </trkpt>
      <trkpt lat="45.52436" lon="4.39799">
        <ele>799.79998779297</ele>
        <time>2015-07-27T17:09:46.000Z</time>
      </trkpt>
      <trkpt lat="45.52415" lon="4.39804">
        <ele>798.59997558594</ele>
        <time>2015-07-27T17:09:49.000Z</time>
      </trkpt>
      <trkpt lat="45.52395" lon="4.39806">
        <ele>797.20001220703</ele>
        <time>2015-07-27T17:09:52.000Z</time>
      </trkpt>
      <trkpt lat="45.52377" lon="4.39809">
        <ele>795.40002441406</ele>
        <time>2015-07-27T17:09:56.000Z</time>
      </trkpt>
      <trkpt lat="45.52375" lon="4.3981">
        <ele>795.20001220703</ele>
        <time>2015-07-27T17:09:57.000Z</time>
      </trkpt>
      <trkpt lat="45.52358" lon="4.3982">
        <ele>793.59997558594</ele>
        <time>2015-07-27T17:10:05.000Z</time>
      </trkpt>
      <trkpt lat="45.52349" lon="4.39827">
        <ele>792.59997558594</ele>
        <time>2015-07-27T17:10:07.000Z</time>
      </trkpt>
      <trkpt lat="45.52333" lon="4.39846">
        <ele>789.40002441406</ele>
        <time>2015-07-27T17:10:10.000Z</time>
      </trkpt>
      <trkpt lat="45.52324" lon="4.39862">
        <ele>786.79998779297</ele>
        <time>2015-07-27T17:10:12.000Z</time>
      </trkpt>
      <trkpt lat="45.52309" lon="4.39891">
        <ele>784.40002441406</ele>
        <time>2015-07-27T17:10:15.000Z</time>
      </trkpt>
      <trkpt lat="45.52303" lon="4.399">
        <ele>783.40002441406</ele>
        <time>2015-07-27T17:10:16.000Z</time>
      </trkpt>
      <trkpt lat="45.52282" lon="4.39923">
        <ele>779.59997558594</ele>
        <time>2015-07-27T17:10:19.000Z</time>
      </trkpt>
      <trkpt lat="45.52268" lon="4.39931">
        <ele>777.59997558594</ele>
        <time>2015-07-27T17:10:21.000Z</time>
      </trkpt>
      <trkpt lat="45.5225" lon="4.39942">
        <ele>775.40002441406</ele>
        <time>2015-07-27T17:10:24.000Z</time>
      </trkpt>
      <trkpt lat="45.5224" lon="4.39949">
        <ele>774.20001220703</ele>
        <time>2015-07-27T17:10:26.000Z</time>
      </trkpt>
      <trkpt lat="45.52236" lon="4.39963">
        <ele>773.40002441406</ele>
        <time>2015-07-27T17:10:28.000Z</time>
      </trkpt>
      <trkpt lat="45.52237" lon="4.39984">
        <ele>773.59997558594</ele>
        <time>2015-07-27T17:10:31.000Z</time>
      </trkpt>
      <trkpt lat="45.5224" lon="4.40012">
        <ele>774.20001220703</ele>
        <time>2015-07-27T17:10:36.000Z</time>
      </trkpt>
      <trkpt lat="45.52242" lon="4.40035">
        <ele>774.59997558594</ele>
        <time>2015-07-27T17:10:41.000Z</time>
      </trkpt>
      <trkpt lat="45.52242" lon="4.40057">
        <ele>774.40002441406</ele>
        <time>2015-07-27T17:11:03.000Z</time>
      </trkpt>
      <trkpt lat="45.52238" lon="4.40086">
        <ele>772.79998779297</ele>
        <time>2015-07-27T17:11:08.000Z</time>
      </trkpt>
      <trkpt lat="45.52236" lon="4.401">
        <ele>772</ele>
        <time>2015-07-27T17:11:10.000Z</time>
      </trkpt>
      <trkpt lat="45.52235" lon="4.40133">
        <ele>771.59997558594</ele>
        <time>2015-07-27T17:11:14.000Z</time>
      </trkpt>
      <trkpt lat="45.52234" lon="4.40142">
        <ele>771.20001220703</ele>
        <time>2015-07-27T17:11:15.000Z</time>
      </trkpt>
      <trkpt lat="45.5223" lon="4.40174">
        <ele>769.79998779297</ele>
        <time>2015-07-27T17:11:18.000Z</time>
      </trkpt>
      <trkpt lat="45.52224" lon="4.40212">
        <ele>767.79998779297</ele>
        <time>2015-07-27T17:11:21.000Z</time>
      </trkpt>
      <trkpt lat="45.52221" lon="4.40239">
        <ele>766.20001220703</ele>
        <time>2015-07-27T17:11:23.000Z</time>
      </trkpt>
      <trkpt lat="45.52217" lon="4.40267">
        <ele>764.59997558594</ele>
        <time>2015-07-27T17:11:25.000Z</time>
      </trkpt>
      <trkpt lat="45.52214" lon="4.40293">
        <ele>762.79998779297</ele>
        <time>2015-07-27T17:11:27.000Z</time>
      </trkpt>
      <trkpt lat="45.52209" lon="4.40327">
        <ele>759.59997558594</ele>
        <time>2015-07-27T17:11:30.000Z</time>
      </trkpt>
      <trkpt lat="45.52203" lon="4.40355">
        <ele>756.79998779297</ele>
        <time>2015-07-27T17:11:33.000Z</time>
      </trkpt>
      <trkpt lat="45.52199" lon="4.40381">
        <ele>753.20001220703</ele>
        <time>2015-07-27T17:11:37.000Z</time>
      </trkpt>
      <trkpt lat="45.52199" lon="4.40388">
        <ele>752.20001220703</ele>
        <time>2015-07-27T17:11:38.000Z</time>
      </trkpt>
      <trkpt lat="45.52204" lon="4.40416">
        <ele>749.20001220703</ele>
        <time>2015-07-27T17:11:42.000Z</time>
      </trkpt>
      <trkpt lat="45.52208" lon="4.40431">
        <ele>748.20001220703</ele>
        <time>2015-07-27T17:11:44.000Z</time>
      </trkpt>
      <trkpt lat="45.52214" lon="4.40445">
        <ele>747.79998779297</ele>
        <time>2015-07-27T17:11:46.000Z</time>
      </trkpt>
      <trkpt lat="45.5223" lon="4.40466">
        <ele>747.79998779297</ele>
        <time>2015-07-27T17:11:50.000Z</time>
      </trkpt>
      <trkpt lat="45.5225" lon="4.40474">
        <ele>749.20001220703</ele>
        <time>2015-07-27T17:11:54.000Z</time>
      </trkpt>
      <trkpt lat="45.52261" lon="4.40474">
        <ele>749.79998779297</ele>
        <time>2015-07-27T17:11:56.000Z</time>
      </trkpt>
      <trkpt lat="45.52267" lon="4.40473">
        <ele>750</ele>
        <time>2015-07-27T17:11:57.000Z</time>
      </trkpt>
      <trkpt lat="45.52288" lon="4.40468">
        <ele>751.20001220703</ele>
        <time>2015-07-27T17:12:01.000Z</time>
      </trkpt>
      <trkpt lat="45.52306" lon="4.40465">
        <ele>753.20001220703</ele>
        <time>2015-07-27T17:12:06.000Z</time>
      </trkpt>
      <trkpt lat="45.52309" lon="4.40466">
        <ele>753.79998779297</ele>
        <time>2015-07-27T17:12:07.000Z</time>
      </trkpt>
      <trkpt lat="45.52307" lon="4.40491">
        <ele>753.20001220703</ele>
        <time>2015-07-27T17:12:13.000Z</time>
      </trkpt>
      <trkpt lat="45.52305" lon="4.40495">
        <ele>752.79998779297</ele>
        <time>2015-07-27T17:12:14.000Z</time>
      </trkpt>
      <trkpt lat="45.52295" lon="4.40519">
        <ele>750.79998779297</ele>
        <time>2015-07-27T17:12:18.000Z</time>
      </trkpt>
      <trkpt lat="45.52283" lon="4.40543">
        <ele>748</ele>
        <time>2015-07-27T17:12:21.000Z</time>
      </trkpt>
      <trkpt lat="45.52272" lon="4.40568">
        <ele>746.20001220703</ele>
        <time>2015-07-27T17:12:24.000Z</time>
      </trkpt>
      <trkpt lat="45.52259" lon="4.40594">
        <ele>743</ele>
        <time>2015-07-27T17:12:27.000Z</time>
      </trkpt>
      <trkpt lat="45.52252" lon="4.40612">
        <ele>740.59997558594</ele>
        <time>2015-07-27T17:12:30.000Z</time>
      </trkpt>
      <trkpt lat="45.52252" lon="4.40622">
        <ele>739.79998779297</ele>
        <time>2015-07-27T17:12:35.000Z</time>
      </trkpt>
      <trkpt lat="45.52254" lon="4.40623">
        <ele>740.20001220703</ele>
        <time>2015-07-27T17:12:46.000Z</time>
      </trkpt>
      <trkpt lat="45.52248" lon="4.40624">
        <ele>738.59997558594</ele>
        <time>2015-07-27T17:12:58.000Z</time>
      </trkpt>
      <trkpt lat="45.52224" lon="4.40627">
        <ele>732.79998779297</ele>
        <time>2015-07-27T17:13:02.000Z</time>
      </trkpt>
      <trkpt lat="45.52217" lon="4.4063">
        <ele>731.20001220703</ele>
        <time>2015-07-27T17:13:03.000Z</time>
      </trkpt>
      <trkpt lat="45.52204" lon="4.40634">
        <ele>729.59997558594</ele>
        <time>2015-07-27T17:13:05.000Z</time>
      </trkpt>
      <trkpt lat="45.52184" lon="4.40635">
        <ele>727.20001220703</ele>
        <time>2015-07-27T17:13:08.000Z</time>
      </trkpt>
      <trkpt lat="45.52178" lon="4.40635">
        <ele>726.40002441406</ele>
        <time>2015-07-27T17:13:09.000Z</time>
      </trkpt>
      <trkpt lat="45.5216" lon="4.4063">
        <ele>724.40002441406</ele>
        <time>2015-07-27T17:13:12.000Z</time>
      </trkpt>
      <trkpt lat="45.52155" lon="4.40627">
        <ele>724</ele>
        <time>2015-07-27T17:13:13.000Z</time>
      </trkpt>
      <trkpt lat="45.52134" lon="4.4062">
        <ele>722</ele>
        <time>2015-07-27T17:13:17.000Z</time>
      </trkpt>
      <trkpt lat="45.52116" lon="4.40614">
        <ele>719.40002441406</ele>
        <time>2015-07-27T17:13:20.000Z</time>
      </trkpt>
      <trkpt lat="45.52108" lon="4.40613">
        <ele>718.20001220703</ele>
        <time>2015-07-27T17:13:22.000Z</time>
      </trkpt>
      <trkpt lat="45.52089" lon="4.40615">
        <ele>715.59997558594</ele>
        <time>2015-07-27T17:13:27.000Z</time>
      </trkpt>
      <trkpt lat="45.52073" lon="4.40616">
        <ele>713.20001220703</ele>
        <time>2015-07-27T17:13:31.000Z</time>
      </trkpt>
      <trkpt lat="45.52054" lon="4.40624">
        <ele>710.40002441406</ele>
        <time>2015-07-27T17:13:36.000Z</time>
      </trkpt>
      <trkpt lat="45.52046" lon="4.40603">
        <ele>708.40002441406</ele>
        <time>2015-07-27T17:13:42.000Z</time>
      </trkpt>
      <trkpt lat="45.52043" lon="4.40594">
        <ele>707.40002441406</ele>
        <time>2015-07-27T17:13:45.000Z</time>
      </trkpt>
      <trkpt lat="45.52037" lon="4.40583">
        <ele>705.40002441406</ele>
        <time>2015-07-27T17:13:49.000Z</time>
      </trkpt>
      <trkpt lat="45.52023" lon="4.40581">
        <ele>702.20001220703</ele>
        <time>2015-07-27T17:13:55.000Z</time>
      </trkpt>
      <trkpt lat="45.52009" lon="4.40576">
        <ele>698.40002441406</ele>
        <time>2015-07-27T17:14:04.000Z</time>
      </trkpt>
      <trkpt lat="45.51992" lon="4.40569">
        <ele>693.79998779297</ele>
        <time>2015-07-27T17:14:33.000Z</time>
      </trkpt>
      <trkpt lat="45.51973" lon="4.40576">
        <ele>688.20001220703</ele>
        <time>2015-07-27T17:14:52.000Z</time>
      </trkpt>
      <trkpt lat="45.51967" lon="4.40579">
        <ele>686.40002441406</ele>
        <time>2015-07-27T17:14:54.000Z</time>
      </trkpt>
      <trkpt lat="45.5195" lon="4.40588">
        <ele>685.40002441406</ele>
        <time>2015-07-27T17:14:59.000Z</time>
      </trkpt>
      <trkpt lat="45.51942" lon="4.40593">
        <ele>684.20001220703</ele>
        <time>2015-07-27T17:15:03.000Z</time>
      </trkpt>
      <trkpt lat="45.51941" lon="4.40618">
        <ele>679.20001220703</ele>
        <time>2015-07-27T17:15:38.000Z</time>
      </trkpt>
      <trkpt lat="45.51945" lon="4.40638">
        <ele>679.40002441406</ele>
        <time>2015-07-27T17:15:52.000Z</time>
      </trkpt>
      <trkpt lat="45.51934" lon="4.40639">
        <ele>676.40002441406</ele>
        <time>2015-07-27T17:15:59.000Z</time>
      </trkpt>
      <trkpt lat="45.51914" lon="4.40635">
        <ele>671.40002441406</ele>
        <time>2015-07-27T17:16:10.000Z</time>
      </trkpt>
      <trkpt lat="45.51898" lon="4.40634">
        <ele>667</ele>
        <time>2015-07-27T17:16:19.000Z</time>
      </trkpt>
      <trkpt lat="45.51891" lon="4.40634">
        <ele>665</ele>
        <time>2015-07-27T17:16:24.000Z</time>
      </trkpt>
      <trkpt lat="45.51886" lon="4.40637">
        <ele>663.20001220703</ele>
        <time>2015-07-27T17:16:26.000Z</time>
      </trkpt>
      <trkpt lat="45.51874" lon="4.40646">
        <ele>662</ele>
        <time>2015-07-27T17:16:33.000Z</time>
      </trkpt>
      <trkpt lat="45.51864" lon="4.40654">
        <ele>661.40002441406</ele>
        <time>2015-07-27T17:17:11.000Z</time>
      </trkpt>
      <trkpt lat="45.5186" lon="4.40656">
        <ele>661.20001220703</ele>
        <time>2015-07-27T17:17:22.000Z</time>
      </trkpt>
      <trkpt lat="45.51857" lon="4.40655">
        <ele>661.20001220703</ele>
        <time>2015-07-27T17:17:31.000Z</time>
      </trkpt>
      <trkpt lat="45.51855" lon="4.4065">
        <ele>661.59997558594</ele>
        <time>2015-07-27T17:17:43.000Z</time>
      </trkpt>
      <trkpt lat="45.51849" lon="4.40643">
        <ele>662</ele>
        <time>2015-07-27T17:17:49.000Z</time>
      </trkpt>
      <trkpt lat="45.51835" lon="4.40631">
        <ele>662.40002441406</ele>
        <time>2015-07-27T17:18:15.000Z</time>
      </trkpt>
      <trkpt lat="45.51831" lon="4.40631">
        <ele>662.40002441406</ele>
        <time>2015-07-27T17:18:19.000Z</time>
      </trkpt>
      <trkpt lat="45.51827" lon="4.4063">
        <ele>662.40002441406</ele>
        <time>2015-07-27T17:18:22.000Z</time>
      </trkpt>
      <trkpt lat="45.51819" lon="4.40626">
        <ele>662.59997558594</ele>
        <time>2015-07-27T17:18:29.000Z</time>
      </trkpt>
      <trkpt lat="45.5181" lon="4.40618">
        <ele>663</ele>
        <time>2015-07-27T17:18:38.000Z</time>
      </trkpt>
      <trkpt lat="45.51793" lon="4.4061">
        <ele>664.79998779297</ele>
        <time>2015-07-27T17:18:54.000Z</time>
      </trkpt>
      <trkpt lat="45.51794" lon="4.40606">
        <ele>666.40002441406</ele>
        <time>2015-07-27T17:19:09.000Z</time>
      </trkpt>
      <trkpt lat="45.51784" lon="4.40597">
        <ele>669.79998779297</ele>
        <time>2015-07-27T17:19:42.000Z</time>
      </trkpt>
      <trkpt lat="45.51776" lon="4.40593">
        <ele>671.20001220703</ele>
        <time>2015-07-27T17:19:53.000Z</time>
      </trkpt>
      <trkpt lat="45.5176" lon="4.40583">
        <ele>675.20001220703</ele>
        <time>2015-07-27T17:20:17.000Z</time>
      </trkpt>
      <trkpt lat="45.5176" lon="4.40584">
        <ele>674.79998779297</ele>
        <time>2015-07-27T17:20:18.000Z</time>
      </trkpt>
      <trkpt lat="45.51743" lon="4.40579">
        <ele>677</ele>
        <time>2015-07-27T17:20:50.000Z</time>
      </trkpt>
      <trkpt lat="45.51726" lon="4.40567">
        <ele>681.40002441406</ele>
        <time>2015-07-27T17:21:19.000Z</time>
      </trkpt>
      <trkpt lat="45.51709" lon="4.40558">
        <ele>684.59997558594</ele>
        <time>2015-07-27T17:21:40.000Z</time>
      </trkpt>
      <trkpt lat="45.51691" lon="4.40554">
        <ele>685.20001220703</ele>
        <time>2015-07-27T17:22:06.000Z</time>
      </trkpt>
      <trkpt lat="45.51674" lon="4.40551">
        <ele>685.79998779297</ele>
        <time>2015-07-27T17:22:32.000Z</time>
      </trkpt>
      <trkpt lat="45.51656" lon="4.40541">
        <ele>688.40002441406</ele>
        <time>2015-07-27T17:22:56.000Z</time>
      </trkpt>
      <trkpt lat="45.51638" lon="4.40537">
        <ele>689.40002441406</ele>
        <time>2015-07-27T17:23:18.000Z</time>
      </trkpt>
      <trkpt lat="45.51621" lon="4.40532">
        <ele>691.40002441406</ele>
        <time>2015-07-27T17:23:47.000Z</time>
      </trkpt>
      <trkpt lat="45.51602" lon="4.40526">
        <ele>692.20001220703</ele>
        <time>2015-07-27T17:24:07.000Z</time>
      </trkpt>
      <trkpt lat="45.51598" lon="4.40524">
        <ele>692.40002441406</ele>
        <time>2015-07-27T17:24:10.000Z</time>
      </trkpt>
      <trkpt lat="45.51591" lon="4.40521">
        <ele>692.79998779297</ele>
        <time>2015-07-27T17:24:15.000Z</time>
      </trkpt>
      <trkpt lat="45.51573" lon="4.40512">
        <ele>693.59997558594</ele>
        <time>2015-07-27T17:24:27.000Z</time>
      </trkpt>
      <trkpt lat="45.51556" lon="4.40502">
        <ele>694.59997558594</ele>
        <time>2015-07-27T17:24:38.000Z</time>
      </trkpt>
      <trkpt lat="45.5154" lon="4.40487">
        <ele>693.79998779297</ele>
        <time>2015-07-27T17:24:47.000Z</time>
      </trkpt>
      <trkpt lat="45.5153" lon="4.40466">
        <ele>693</ele>
        <time>2015-07-27T17:24:55.000Z</time>
      </trkpt>
      <trkpt lat="45.51526" lon="4.4044">
        <ele>692.40002441406</ele>
        <time>2015-07-27T17:25:03.000Z</time>
      </trkpt>
      <trkpt lat="45.51528" lon="4.40438">
        <ele>692.40002441406</ele>
        <time>2015-07-27T17:25:06.000Z</time>
      </trkpt>
      <trkpt lat="45.51544" lon="4.40431">
        <ele>693.59997558594</ele>
        <time>2015-07-27T17:25:26.000Z</time>
      </trkpt>
      <trkpt lat="45.51563" lon="4.40428">
        <ele>694.79998779297</ele>
        <time>2015-07-27T17:25:33.000Z</time>
      </trkpt>
      <trkpt lat="45.51575" lon="4.40434">
        <ele>696</ele>
        <time>2015-07-27T17:25:37.000Z</time>
      </trkpt>
      <trkpt lat="45.51593" lon="4.40444">
        <ele>698.20001220703</ele>
        <time>2015-07-27T17:25:45.000Z</time>
      </trkpt>
      <trkpt lat="45.51612" lon="4.40449">
        <ele>699.59997558594</ele>
        <time>2015-07-27T17:25:51.000Z</time>
      </trkpt>
      <trkpt lat="45.5163" lon="4.40447">
        <ele>700.79998779297</ele>
        <time>2015-07-27T17:25:57.000Z</time>
      </trkpt>
      <trkpt lat="45.51649" lon="4.40444">
        <ele>703</ele>
        <time>2015-07-27T17:26:06.000Z</time>
      </trkpt>
      <trkpt lat="45.51666" lon="4.40436">
        <ele>705.40002441406</ele>
        <time>2015-07-27T17:26:15.000Z</time>
      </trkpt>
      <trkpt lat="45.51683" lon="4.40423">
        <ele>707.79998779297</ele>
        <time>2015-07-27T17:26:26.000Z</time>
      </trkpt>
      <trkpt lat="45.51687" lon="4.40421">
        <ele>708.40002441406</ele>
        <time>2015-07-27T17:26:28.000Z</time>
      </trkpt>
      <trkpt lat="45.51698" lon="4.40415">
        <ele>710.59997558594</ele>
        <time>2015-07-27T17:26:34.000Z</time>
      </trkpt>
      <trkpt lat="45.51714" lon="4.40402">
        <ele>714.20001220703</ele>
        <time>2015-07-27T17:26:45.000Z</time>
      </trkpt>
      <trkpt lat="45.51726" lon="4.40384">
        <ele>716</ele>
        <time>2015-07-27T17:26:57.000Z</time>
      </trkpt>
      <trkpt lat="45.51726" lon="4.40382">
        <ele>716</ele>
        <time>2015-07-27T17:26:58.000Z</time>
      </trkpt>
      <trkpt lat="45.51733" lon="4.40357">
        <ele>717.59997558594</ele>
        <time>2015-07-27T17:27:10.000Z</time>
      </trkpt>
      <trkpt lat="45.51735" lon="4.40332">
        <ele>717.59997558594</ele>
        <time>2015-07-27T17:27:20.000Z</time>
      </trkpt>
      <trkpt lat="45.51738" lon="4.40324">
        <ele>717.79998779297</ele>
        <time>2015-07-27T17:27:25.000Z</time>
      </trkpt>
      <trkpt lat="45.51753" lon="4.40308">
        <ele>718.79998779297</ele>
        <time>2015-07-27T17:27:37.000Z</time>
      </trkpt>
      <trkpt lat="45.51767" lon="4.4029">
        <ele>720.79998779297</ele>
        <time>2015-07-27T17:27:52.000Z</time>
      </trkpt>
      <trkpt lat="45.51786" lon="4.40293">
        <ele>722.20001220703</ele>
        <time>2015-07-27T17:28:03.000Z</time>
      </trkpt>
      <trkpt lat="45.51803" lon="4.40297">
        <ele>723.40002441406</ele>
        <time>2015-07-27T17:28:11.000Z</time>
      </trkpt>
      <trkpt lat="45.51805" lon="4.40296">
        <ele>723.59997558594</ele>
        <time>2015-07-27T17:28:12.000Z</time>
      </trkpt>
      <trkpt lat="45.51814" lon="4.40288">
        <ele>725</ele>
        <time>2015-07-27T17:28:58.000Z</time>
      </trkpt>
      <trkpt lat="45.51826" lon="4.40283">
        <ele>727</ele>
        <time>2015-07-27T17:30:44.000Z</time>
      </trkpt>
      <trkpt lat="45.51843" lon="4.40272">
        <ele>729</ele>
        <time>2015-07-27T17:30:52.000Z</time>
      </trkpt>
      <trkpt lat="45.5186" lon="4.40262">
        <ele>731</ele>
        <time>2015-07-27T17:31:00.000Z</time>
      </trkpt>
      <trkpt lat="45.51878" lon="4.40253">
        <ele>734.40002441406</ele>
        <time>2015-07-27T17:31:10.000Z</time>
      </trkpt>
      <trkpt lat="45.51891" lon="4.40249">
        <ele>735.79998779297</ele>
        <time>2015-07-27T17:31:18.000Z</time>
      </trkpt>
      <trkpt lat="45.51897" lon="4.40247">
        <ele>736.20001220703</ele>
        <time>2015-07-27T17:31:23.000Z</time>
      </trkpt>
      <trkpt lat="45.51914" lon="4.40239">
        <ele>737.20001220703</ele>
        <time>2015-07-27T17:31:36.000Z</time>
      </trkpt>
      <trkpt lat="45.51932" lon="4.40231">
        <ele>739.40002441406</ele>
        <time>2015-07-27T17:31:50.000Z</time>
      </trkpt>
      <trkpt lat="45.51951" lon="4.40225">
        <ele>742</ele>
        <time>2015-07-27T17:32:03.000Z</time>
      </trkpt>
      <trkpt lat="45.51969" lon="4.40216">
        <ele>744.79998779297</ele>
        <time>2015-07-27T17:32:15.000Z</time>
      </trkpt>
      <trkpt lat="45.51986" lon="4.40208">
        <ele>745</ele>
        <time>2015-07-27T17:32:28.000Z</time>
      </trkpt>
      <trkpt lat="45.52003" lon="4.40198">
        <ele>746.20001220703</ele>
        <time>2015-07-27T17:32:39.000Z</time>
      </trkpt>
      <trkpt lat="45.52019" lon="4.40185">
        <ele>746.40002441406</ele>
        <time>2015-07-27T17:32:50.000Z</time>
      </trkpt>
      <trkpt lat="45.52033" lon="4.40169">
        <ele>747.79998779297</ele>
        <time>2015-07-27T17:33:01.000Z</time>
      </trkpt>
      <trkpt lat="45.52049" lon="4.40151">
        <ele>750.59997558594</ele>
        <time>2015-07-27T17:33:12.000Z</time>
      </trkpt>
      <trkpt lat="45.52063" lon="4.40135">
        <ele>753.20001220703</ele>
        <time>2015-07-27T17:33:22.000Z</time>
      </trkpt>
      <trkpt lat="45.52077" lon="4.40118">
        <ele>755.79998779297</ele>
        <time>2015-07-27T17:33:32.000Z</time>
      </trkpt>
      <trkpt lat="45.52089" lon="4.40107">
        <ele>757.40002441406</ele>
        <time>2015-07-27T17:33:40.000Z</time>
      </trkpt>
      <trkpt lat="45.52096" lon="4.40103">
        <ele>758</ele>
        <time>2015-07-27T17:33:44.000Z</time>
      </trkpt>
      <trkpt lat="45.52114" lon="4.40091">
        <ele>759.40002441406</ele>
        <time>2015-07-27T17:33:55.000Z</time>
      </trkpt>
      <trkpt lat="45.52132" lon="4.40082">
        <ele>761</ele>
        <time>2015-07-27T17:34:05.000Z</time>
      </trkpt>
      <trkpt lat="45.52149" lon="4.40072">
        <ele>763.40002441406</ele>
        <time>2015-07-27T17:34:15.000Z</time>
      </trkpt>
      <trkpt lat="45.52167" lon="4.40064">
        <ele>766</ele>
        <time>2015-07-27T17:34:25.000Z</time>
      </trkpt>
      <trkpt lat="45.52186" lon="4.40059">
        <ele>768</ele>
        <time>2015-07-27T17:34:35.000Z</time>
      </trkpt>
      <trkpt lat="45.52205" lon="4.40054">
        <ele>770</ele>
        <time>2015-07-27T17:34:46.000Z</time>
      </trkpt>
      <trkpt lat="45.52222" lon="4.40048">
        <ele>772.20001220703</ele>
        <time>2015-07-27T17:34:56.000Z</time>
      </trkpt>
      <trkpt lat="45.52239" lon="4.40034">
        <ele>774.40002441406</ele>
        <time>2015-07-27T17:35:07.000Z</time>
      </trkpt>
      <trkpt lat="45.5224" lon="4.4003">
        <ele>774.40002441406</ele>
        <time>2015-07-27T17:35:09.000Z</time>
      </trkpt>
      <trkpt lat="45.52239" lon="4.40003">
        <ele>774</ele>
        <time>2015-07-27T17:35:19.000Z</time>
      </trkpt>
      <trkpt lat="45.52239" lon="4.39976">
        <ele>773.59997558594</ele>
        <time>2015-07-27T17:35:29.000Z</time>
      </trkpt>
      <trkpt lat="45.52241" lon="4.3995">
        <ele>774.40002441406</ele>
        <time>2015-07-27T17:35:37.000Z</time>
      </trkpt>
      <trkpt lat="45.52257" lon="4.39936">
        <ele>776.20001220703</ele>
        <time>2015-07-27T17:35:45.000Z</time>
      </trkpt>
      <trkpt lat="45.52274" lon="4.39924">
        <ele>778.40002441406</ele>
        <time>2015-07-27T17:35:54.000Z</time>
      </trkpt>
      <trkpt lat="45.52292" lon="4.39914">
        <ele>781.40002441406</ele>
        <time>2015-07-27T17:36:05.000Z</time>
      </trkpt>
      <trkpt lat="45.52307" lon="4.39897">
        <ele>784</ele>
        <time>2015-07-27T17:36:16.000Z</time>
      </trkpt>
      <trkpt lat="45.52318" lon="4.39876">
        <ele>785.79998779297</ele>
        <time>2015-07-27T17:36:28.000Z</time>
      </trkpt>
      <trkpt lat="45.52321" lon="4.39871">
        <ele>786.20001220703</ele>
        <time>2015-07-27T17:36:31.000Z</time>
      </trkpt>
      <trkpt lat="45.52333" lon="4.39849">
        <ele>789</ele>
        <time>2015-07-27T17:36:43.000Z</time>
      </trkpt>
      <trkpt lat="45.52345" lon="4.39829">
        <ele>792</ele>
        <time>2015-07-27T17:36:54.000Z</time>
      </trkpt>
      <trkpt lat="45.52361" lon="4.39813">
        <ele>793.79998779297</ele>
        <time>2015-07-27T17:37:05.000Z</time>
      </trkpt>
      <trkpt lat="45.52371" lon="4.39793">
        <ele>794.79998779297</ele>
        <time>2015-07-27T17:37:15.000Z</time>
      </trkpt>
      <trkpt lat="45.5237" lon="4.3979">
        <ele>794.79998779297</ele>
        <time>2015-07-27T17:37:16.000Z</time>
      </trkpt>
      <trkpt lat="45.52362" lon="4.39766">
        <ele>794.20001220703</ele>
        <time>2015-07-27T17:37:24.000Z</time>
      </trkpt>
      <trkpt lat="45.52349" lon="4.39745">
        <ele>793.59997558594</ele>
        <time>2015-07-27T17:37:30.000Z</time>
      </trkpt>
      <trkpt lat="45.52335" lon="4.39723">
        <ele>792.59997558594</ele>
        <time>2015-07-27T17:37:36.000Z</time>
      </trkpt>
      <trkpt lat="45.52324" lon="4.39702">
        <ele>792</ele>
        <time>2015-07-27T17:37:41.000Z</time>
      </trkpt>
      <trkpt lat="45.52317" lon="4.39676">
        <ele>790.79998779297</ele>
        <time>2015-07-27T17:37:46.000Z</time>
      </trkpt>
      <trkpt lat="45.52317" lon="4.39648">
        <ele>790.20001220703</ele>
        <time>2015-07-27T17:37:51.000Z</time>
      </trkpt>
      <trkpt lat="45.5232" lon="4.39622">
        <ele>789.59997558594</ele>
        <time>2015-07-27T17:37:55.000Z</time>
      </trkpt>
      <trkpt lat="45.52327" lon="4.39593">
        <ele>788.79998779297</ele>
        <time>2015-07-27T17:37:59.000Z</time>
      </trkpt>
      <trkpt lat="45.52335" lon="4.3957">
        <ele>788.20001220703</ele>
        <time>2015-07-27T17:38:02.000Z</time>
      </trkpt>
      <trkpt lat="45.52345" lon="4.39548">
        <ele>787.40002441406</ele>
        <time>2015-07-27T17:38:05.000Z</time>
      </trkpt>
      <trkpt lat="45.5235" lon="4.39541">
        <ele>787</ele>
        <time>2015-07-27T17:38:06.000Z</time>
      </trkpt>
      <trkpt lat="45.52364" lon="4.39522">
        <ele>786.20001220703</ele>
        <time>2015-07-27T17:38:09.000Z</time>
      </trkpt>
      <trkpt lat="45.5238" lon="4.39503">
        <ele>786.59997558594</ele>
        <time>2015-07-27T17:38:12.000Z</time>
      </trkpt>
      <trkpt lat="45.52385" lon="4.39496">
        <ele>787</ele>
        <time>2015-07-27T17:38:13.000Z</time>
      </trkpt>
      <trkpt lat="45.52397" lon="4.39471">
        <ele>787.79998779297</ele>
        <time>2015-07-27T17:38:16.000Z</time>
      </trkpt>
      <trkpt lat="45.52403" lon="4.39441">
        <ele>787.59997558594</ele>
        <time>2015-07-27T17:38:19.000Z</time>
      </trkpt>
      <trkpt lat="45.52401" lon="4.39409">
        <ele>787</ele>
        <time>2015-07-27T17:38:22.000Z</time>
      </trkpt>
      <trkpt lat="45.52398" lon="4.39388">
        <ele>786.40002441406</ele>
        <time>2015-07-27T17:38:24.000Z</time>
      </trkpt>
      <trkpt lat="45.52393" lon="4.39355">
        <ele>784.40002441406</ele>
        <time>2015-07-27T17:38:27.000Z</time>
      </trkpt>
      <trkpt lat="45.52388" lon="4.39321">
        <ele>782.79998779297</ele>
        <time>2015-07-27T17:38:30.000Z</time>
      </trkpt>
      <trkpt lat="45.52385" lon="4.39287">
        <ele>781.20001220703</ele>
        <time>2015-07-27T17:38:33.000Z</time>
      </trkpt>
      <trkpt lat="45.52384" lon="4.39275">
        <ele>780.59997558594</ele>
        <time>2015-07-27T17:38:34.000Z</time>
      </trkpt>
      <trkpt lat="45.52388" lon="4.39239">
        <ele>778.40002441406</ele>
        <time>2015-07-27T17:38:37.000Z</time>
      </trkpt>
      <trkpt lat="45.52397" lon="4.39205">
        <ele>776.40002441406</ele>
        <time>2015-07-27T17:38:40.000Z</time>
      </trkpt>
      <trkpt lat="45.52406" lon="4.39183">
        <ele>775</ele>
        <time>2015-07-27T17:38:42.000Z</time>
      </trkpt>
      <trkpt lat="45.52421" lon="4.39152">
        <ele>772.59997558594</ele>
        <time>2015-07-27T17:38:45.000Z</time>
      </trkpt>
      <trkpt lat="45.52431" lon="4.39132">
        <ele>771.79998779297</ele>
        <time>2015-07-27T17:38:47.000Z</time>
      </trkpt>
      <trkpt lat="45.52451" lon="4.39107">
        <ele>770.59997558594</ele>
        <time>2015-07-27T17:38:50.000Z</time>
      </trkpt>
      <trkpt lat="45.52475" lon="4.39091">
        <ele>769.40002441406</ele>
        <time>2015-07-27T17:38:53.000Z</time>
      </trkpt>
      <trkpt lat="45.52501" lon="4.39084">
        <ele>768.20001220703</ele>
        <time>2015-07-27T17:38:56.000Z</time>
      </trkpt>
      <trkpt lat="45.5251" lon="4.39082">
        <ele>767.79998779297</ele>
        <time>2015-07-27T17:38:57.000Z</time>
      </trkpt>
      <trkpt lat="45.52535" lon="4.39078">
        <ele>767.59997558594</ele>
        <time>2015-07-27T17:39:00.000Z</time>
      </trkpt>
      <trkpt lat="45.52561" lon="4.39074">
        <ele>766.59997558594</ele>
        <time>2015-07-27T17:39:03.000Z</time>
      </trkpt>
      <trkpt lat="45.52586" lon="4.39069">
        <ele>764.20001220703</ele>
        <time>2015-07-27T17:39:06.000Z</time>
      </trkpt>
      <trkpt lat="45.52611" lon="4.39062">
        <ele>764</ele>
        <time>2015-07-27T17:39:09.000Z</time>
      </trkpt>
      <trkpt lat="45.52619" lon="4.39058">
        <ele>763.79998779297</ele>
        <time>2015-07-27T17:39:10.000Z</time>
      </trkpt>
      <trkpt lat="45.52635" lon="4.39049">
        <ele>763.59997558594</ele>
        <time>2015-07-27T17:39:12.000Z</time>
      </trkpt>
      <trkpt lat="45.52652" lon="4.39038">
        <ele>762.20001220703</ele>
        <time>2015-07-27T17:39:14.000Z</time>
      </trkpt>
      <trkpt lat="45.52668" lon="4.39026">
        <ele>760.59997558594</ele>
        <time>2015-07-27T17:39:16.000Z</time>
      </trkpt>
      <trkpt lat="45.52685" lon="4.39014">
        <ele>758.59997558594</ele>
        <time>2015-07-27T17:39:18.000Z</time>
      </trkpt>
      <trkpt lat="45.52702" lon="4.39002">
        <ele>757.59997558594</ele>
        <time>2015-07-27T17:39:20.000Z</time>
      </trkpt>
      <trkpt lat="45.52719" lon="4.3899">
        <ele>757.20001220703</ele>
        <time>2015-07-27T17:39:22.000Z</time>
      </trkpt>
      <trkpt lat="45.52736" lon="4.38978">
        <ele>755</ele>
        <time>2015-07-27T17:39:24.000Z</time>
      </trkpt>
      <trkpt lat="45.52753" lon="4.38966">
        <ele>754.20001220703</ele>
        <time>2015-07-27T17:39:26.000Z</time>
      </trkpt>
      <trkpt lat="45.52769" lon="4.38951">
        <ele>754.20001220703</ele>
        <time>2015-07-27T17:39:28.000Z</time>
      </trkpt>
      <trkpt lat="45.52777" lon="4.38943">
        <ele>753.79998779297</ele>
        <time>2015-07-27T17:39:29.000Z</time>
      </trkpt>
      <trkpt lat="45.52793" lon="4.38927">
        <ele>753.20001220703</ele>
        <time>2015-07-27T17:39:31.000Z</time>
      </trkpt>
      <trkpt lat="45.52808" lon="4.3891">
        <ele>752.79998779297</ele>
        <time>2015-07-27T17:39:33.000Z</time>
      </trkpt>
      <trkpt lat="45.52824" lon="4.38892">
        <ele>751.59997558594</ele>
        <time>2015-07-27T17:39:35.000Z</time>
      </trkpt>
      <trkpt lat="45.52841" lon="4.38877">
        <ele>751.40002441406</ele>
        <time>2015-07-27T17:39:37.000Z</time>
      </trkpt>
      <trkpt lat="45.5285" lon="4.38871">
        <ele>751.20001220703</ele>
        <time>2015-07-27T17:39:38.000Z</time>
      </trkpt>
      <trkpt lat="45.5287" lon="4.38863">
        <ele>750.20001220703</ele>
        <time>2015-07-27T17:39:40.000Z</time>
      </trkpt>
      <trkpt lat="45.5289" lon="4.38858">
        <ele>747.59997558594</ele>
        <time>2015-07-27T17:39:42.000Z</time>
      </trkpt>
      <trkpt lat="45.52901" lon="4.38855">
        <ele>745.59997558594</ele>
        <time>2015-07-27T17:39:43.000Z</time>
      </trkpt>
      <trkpt lat="45.52911" lon="4.38852">
        <ele>743.59997558594</ele>
        <time>2015-07-27T17:39:44.000Z</time>
      </trkpt>
      <trkpt lat="45.5293" lon="4.3884">
        <ele>739.59997558594</ele>
        <time>2015-07-27T17:39:46.000Z</time>
      </trkpt>
      <trkpt lat="45.52945" lon="4.3882">
        <ele>737.59997558594</ele>
        <time>2015-07-27T17:39:48.000Z</time>
      </trkpt>
      <trkpt lat="45.52954" lon="4.38794">
        <ele>737.20001220703</ele>
        <time>2015-07-27T17:39:50.000Z</time>
      </trkpt>
      <trkpt lat="45.52962" lon="4.38767">
        <ele>736.79998779297</ele>
        <time>2015-07-27T17:39:52.000Z</time>
      </trkpt>
      <trkpt lat="45.52965" lon="4.38753">
        <ele>736.79998779297</ele>
        <time>2015-07-27T17:39:53.000Z</time>
      </trkpt>
      <trkpt lat="45.52972" lon="4.38725">
        <ele>736.59997558594</ele>
        <time>2015-07-27T17:39:55.000Z</time>
      </trkpt>
      <trkpt lat="45.5298" lon="4.38698">
        <ele>735.20001220703</ele>
        <time>2015-07-27T17:39:57.000Z</time>
      </trkpt>
      <trkpt lat="45.52986" lon="4.38671">
        <ele>732</ele>
        <time>2015-07-27T17:39:59.000Z</time>
      </trkpt>
      <trkpt lat="45.52989" lon="4.38657">
        <ele>730.40002441406</ele>
        <time>2015-07-27T17:40:00.000Z</time>
      </trkpt>
      <trkpt lat="45.52989" lon="4.3863">
        <ele>728.79998779297</ele>
        <time>2015-07-27T17:40:02.000Z</time>
      </trkpt>
      <trkpt lat="45.52981" lon="4.38603">
        <ele>728.40002441406</ele>
        <time>2015-07-27T17:40:04.000Z</time>
      </trkpt>
      <trkpt lat="45.52967" lon="4.3858">
        <ele>727.79998779297</ele>
        <time>2015-07-27T17:40:06.000Z</time>
      </trkpt>
      <trkpt lat="45.52951" lon="4.38558">
        <ele>726.20001220703</ele>
        <time>2015-07-27T17:40:08.000Z</time>
      </trkpt>
      <trkpt lat="45.52942" lon="4.38548">
        <ele>725.40002441406</ele>
        <time>2015-07-27T17:40:09.000Z</time>
      </trkpt>
      <trkpt lat="45.52925" lon="4.38527">
        <ele>724</ele>
        <time>2015-07-27T17:40:11.000Z</time>
      </trkpt>
      <trkpt lat="45.52906" lon="4.38507">
        <ele>723</ele>
        <time>2015-07-27T17:40:13.000Z</time>
      </trkpt>
      <trkpt lat="45.52896" lon="4.38499">
        <ele>722.79998779297</ele>
        <time>2015-07-27T17:40:14.000Z</time>
      </trkpt>
      <trkpt lat="45.52875" lon="4.38486">
        <ele>722.79998779297</ele>
        <time>2015-07-27T17:40:16.000Z</time>
      </trkpt>
      <trkpt lat="45.52852" lon="4.3848">
        <ele>724.20001220703</ele>
        <time>2015-07-27T17:40:18.000Z</time>
      </trkpt>
      <trkpt lat="45.52828" lon="4.38478">
        <ele>725.79998779297</ele>
        <time>2015-07-27T17:40:20.000Z</time>
      </trkpt>
      <trkpt lat="45.52805" lon="4.38469">
        <ele>726.20001220703</ele>
        <time>2015-07-27T17:40:22.000Z</time>
      </trkpt>
      <trkpt lat="45.52789" lon="4.38446">
        <ele>725</ele>
        <time>2015-07-27T17:40:24.000Z</time>
      </trkpt>
      <trkpt lat="45.52786" lon="4.38415">
        <ele>725.59997558594</ele>
        <time>2015-07-27T17:40:26.000Z</time>
      </trkpt>
      <trkpt lat="45.52795" lon="4.38388">
        <ele>725.79998779297</ele>
        <time>2015-07-27T17:40:28.000Z</time>
      </trkpt>
      <trkpt lat="45.52811" lon="4.3837">
        <ele>724.79998779297</ele>
        <time>2015-07-27T17:40:30.000Z</time>
      </trkpt>
      <trkpt lat="45.5283" lon="4.38358">
        <ele>723</ele>
        <time>2015-07-27T17:40:32.000Z</time>
      </trkpt>
      <trkpt lat="45.52839" lon="4.38352">
        <ele>722.40002441406</ele>
        <time>2015-07-27T17:40:33.000Z</time>
      </trkpt>
      <trkpt lat="45.52857" lon="4.38339">
        <ele>721.40002441406</ele>
        <time>2015-07-27T17:40:35.000Z</time>
      </trkpt>
      <trkpt lat="45.52865" lon="4.38331">
        <ele>720.79998779297</ele>
        <time>2015-07-27T17:40:36.000Z</time>
      </trkpt>
      <trkpt lat="45.52881" lon="4.38314">
        <ele>720</ele>
        <time>2015-07-27T17:40:38.000Z</time>
      </trkpt>
      <trkpt lat="45.52889" lon="4.38305">
        <ele>719.59997558594</ele>
        <time>2015-07-27T17:40:39.000Z</time>
      </trkpt>
      <trkpt lat="45.52904" lon="4.38284">
        <ele>718.40002441406</ele>
        <time>2015-07-27T17:40:41.000Z</time>
      </trkpt>
      <trkpt lat="45.52917" lon="4.38263">
        <ele>718</ele>
        <time>2015-07-27T17:40:43.000Z</time>
      </trkpt>
      <trkpt lat="45.52924" lon="4.38252">
        <ele>718</ele>
        <time>2015-07-27T17:40:44.000Z</time>
      </trkpt>
      <trkpt lat="45.52938" lon="4.38231">
        <ele>718.20001220703</ele>
        <time>2015-07-27T17:40:46.000Z</time>
      </trkpt>
      <trkpt lat="45.52952" lon="4.38212">
        <ele>718.40002441406</ele>
        <time>2015-07-27T17:40:48.000Z</time>
      </trkpt>
      <trkpt lat="45.52968" lon="4.38194">
        <ele>718</ele>
        <time>2015-07-27T17:40:50.000Z</time>
      </trkpt>
      <trkpt lat="45.52984" lon="4.38177">
        <ele>715.40002441406</ele>
        <time>2015-07-27T17:40:52.000Z</time>
      </trkpt>
      <trkpt lat="45.53001" lon="4.38159">
        <ele>712.79998779297</ele>
        <time>2015-07-27T17:40:54.000Z</time>
      </trkpt>
      <trkpt lat="45.53017" lon="4.38141">
        <ele>711.20001220703</ele>
        <time>2015-07-27T17:40:56.000Z</time>
      </trkpt>
      <trkpt lat="45.53034" lon="4.38124">
        <ele>710.20001220703</ele>
        <time>2015-07-27T17:40:58.000Z</time>
      </trkpt>
      <trkpt lat="45.5305" lon="4.38106">
        <ele>708.59997558594</ele>
        <time>2015-07-27T17:41:00.000Z</time>
      </trkpt>
      <trkpt lat="45.53066" lon="4.38088">
        <ele>706.20001220703</ele>
        <time>2015-07-27T17:41:02.000Z</time>
      </trkpt>
      <trkpt lat="45.53082" lon="4.3807">
        <ele>704</ele>
        <time>2015-07-27T17:41:04.000Z</time>
      </trkpt>
      <trkpt lat="45.5309" lon="4.38061">
        <ele>702.79998779297</ele>
        <time>2015-07-27T17:41:05.000Z</time>
      </trkpt>
      <trkpt lat="45.53102" lon="4.38038">
        <ele>700.79998779297</ele>
        <time>2015-07-27T17:41:07.000Z</time>
      </trkpt>
      <trkpt lat="45.53109" lon="4.38012">
        <ele>699</ele>
        <time>2015-07-27T17:41:09.000Z</time>
      </trkpt>
      <trkpt lat="45.53113" lon="4.37984">
        <ele>698.40002441406</ele>
        <time>2015-07-27T17:41:11.000Z</time>
      </trkpt>
      <trkpt lat="45.53115" lon="4.3797">
        <ele>698</ele>
        <time>2015-07-27T17:41:12.000Z</time>
      </trkpt>
      <trkpt lat="45.53118" lon="4.37955">
        <ele>697.79998779297</ele>
        <time>2015-07-27T17:41:13.000Z</time>
      </trkpt>
      <trkpt lat="45.53122" lon="4.37927">
        <ele>697.20001220703</ele>
        <time>2015-07-27T17:41:15.000Z</time>
      </trkpt>
      <trkpt lat="45.53125" lon="4.37914">
        <ele>697.40002441406</ele>
        <time>2015-07-27T17:41:16.000Z</time>
      </trkpt>
      <trkpt lat="45.53134" lon="4.37888">
        <ele>697.20001220703</ele>
        <time>2015-07-27T17:41:18.000Z</time>
      </trkpt>
      <trkpt lat="45.53146" lon="4.37866">
        <ele>695.79998779297</ele>
        <time>2015-07-27T17:41:20.000Z</time>
      </trkpt>
      <trkpt lat="45.53161" lon="4.37847">
        <ele>693.40002441406</ele>
        <time>2015-07-27T17:41:22.000Z</time>
      </trkpt>
      <trkpt lat="45.53176" lon="4.37829">
        <ele>690.79998779297</ele>
        <time>2015-07-27T17:41:24.000Z</time>
      </trkpt>
      <trkpt lat="45.53191" lon="4.37809">
        <ele>688.79998779297</ele>
        <time>2015-07-27T17:41:26.000Z</time>
      </trkpt>
      <trkpt lat="45.53203" lon="4.37788">
        <ele>687.20001220703</ele>
        <time>2015-07-27T17:41:28.000Z</time>
      </trkpt>
      <trkpt lat="45.53209" lon="4.37763">
        <ele>684</ele>
        <time>2015-07-27T17:41:30.000Z</time>
      </trkpt>
      <trkpt lat="45.5321" lon="4.37737">
        <ele>680.79998779297</ele>
        <time>2015-07-27T17:41:32.000Z</time>
      </trkpt>
      <trkpt lat="45.53204" lon="4.37713">
        <ele>678.79998779297</ele>
        <time>2015-07-27T17:41:34.000Z</time>
      </trkpt>
      <trkpt lat="45.53193" lon="4.37692">
        <ele>677.79998779297</ele>
        <time>2015-07-27T17:41:36.000Z</time>
      </trkpt>
      <trkpt lat="45.53178" lon="4.37676">
        <ele>677.59997558594</ele>
        <time>2015-07-27T17:41:38.000Z</time>
      </trkpt>
      <trkpt lat="45.53161" lon="4.37666">
        <ele>678.79998779297</ele>
        <time>2015-07-27T17:41:40.000Z</time>
      </trkpt>
      <trkpt lat="45.53142" lon="4.37664">
        <ele>681.40002441406</ele>
        <time>2015-07-27T17:41:42.000Z</time>
      </trkpt>
      <trkpt lat="45.53123" lon="4.37668">
        <ele>685.20001220703</ele>
        <time>2015-07-27T17:41:44.000Z</time>
      </trkpt>
      <trkpt lat="45.53112" lon="4.37651">
        <ele>684.59997558594</ele>
        <time>2015-07-27T17:41:47.000Z</time>
      </trkpt>
      <trkpt lat="45.53133" lon="4.37641">
        <ele>679.20001220703</ele>
        <time>2015-07-27T17:41:51.000Z</time>
      </trkpt>
      <trkpt lat="45.53156" lon="4.37642">
        <ele>675.79998779297</ele>
        <time>2015-07-27T17:41:54.000Z</time>
      </trkpt>
      <trkpt lat="45.53173" lon="4.37638">
        <ele>673.40002441406</ele>
        <time>2015-07-27T17:41:56.000Z</time>
      </trkpt>
      <trkpt lat="45.53191" lon="4.37635">
        <ele>671.59997558594</ele>
        <time>2015-07-27T17:41:58.000Z</time>
      </trkpt>
      <trkpt lat="45.53209" lon="4.37637">
        <ele>669.79998779297</ele>
        <time>2015-07-27T17:42:00.000Z</time>
      </trkpt>
      <trkpt lat="45.53227" lon="4.37645">
        <ele>667.79998779297</ele>
        <time>2015-07-27T17:42:02.000Z</time>
      </trkpt>
      <trkpt lat="45.53245" lon="4.37661">
        <ele>665.79998779297</ele>
        <time>2015-07-27T17:42:04.000Z</time>
      </trkpt>
      <trkpt lat="45.53261" lon="4.37681">
        <ele>664.40002441406</ele>
        <time>2015-07-27T17:42:06.000Z</time>
      </trkpt>
      <trkpt lat="45.53275" lon="4.37706">
        <ele>664</ele>
        <time>2015-07-27T17:42:08.000Z</time>
      </trkpt>
      <trkpt lat="45.53285" lon="4.37733">
        <ele>664</ele>
        <time>2015-07-27T17:42:10.000Z</time>
      </trkpt>
      <trkpt lat="45.53295" lon="4.37762">
        <ele>664.40002441406</ele>
        <time>2015-07-27T17:42:12.000Z</time>
      </trkpt>
      <trkpt lat="45.533" lon="4.37776">
        <ele>664.79998779297</ele>
        <time>2015-07-27T17:42:13.000Z</time>
      </trkpt>
      <trkpt lat="45.5331" lon="4.37805">
        <ele>665.59997558594</ele>
        <time>2015-07-27T17:42:15.000Z</time>
      </trkpt>
      <trkpt lat="45.5332" lon="4.37833">
        <ele>666.40002441406</ele>
        <time>2015-07-27T17:42:17.000Z</time>
      </trkpt>
      <trkpt lat="45.5333" lon="4.37858">
        <ele>666.79998779297</ele>
        <time>2015-07-27T17:42:19.000Z</time>
      </trkpt>
      <trkpt lat="45.53337" lon="4.37866">
        <ele>666.40002441406</ele>
        <time>2015-07-27T17:42:20.000Z</time>
      </trkpt>
      <trkpt lat="45.53361" lon="4.37862">
        <ele>662.40002441406</ele>
        <time>2015-07-27T17:42:23.000Z</time>
      </trkpt>
      <trkpt lat="45.53364" lon="4.37831">
        <ele>659.40002441406</ele>
        <time>2015-07-27T17:42:26.000Z</time>
      </trkpt>
      <trkpt lat="45.53353" lon="4.37805">
        <ele>659.20001220703</ele>
        <time>2015-07-27T17:42:28.000Z</time>
      </trkpt>
      <trkpt lat="45.5334" lon="4.3778">
        <ele>659.20001220703</ele>
        <time>2015-07-27T17:42:30.000Z</time>
      </trkpt>
      <trkpt lat="45.53332" lon="4.37754">
        <ele>658.20001220703</ele>
        <time>2015-07-27T17:42:32.000Z</time>
      </trkpt>
      <trkpt lat="45.53333" lon="4.37727">
        <ele>655.79998779297</ele>
        <time>2015-07-27T17:42:34.000Z</time>
      </trkpt>
      <trkpt lat="45.53348" lon="4.37715">
        <ele>653.20001220703</ele>
        <time>2015-07-27T17:42:36.000Z</time>
      </trkpt>
      <trkpt lat="45.53367" lon="4.37722">
        <ele>651.59997558594</ele>
        <time>2015-07-27T17:42:38.000Z</time>
      </trkpt>
      <trkpt lat="45.53387" lon="4.37717">
        <ele>649.40002441406</ele>
        <time>2015-07-27T17:42:41.000Z</time>
      </trkpt>
      <trkpt lat="45.53401" lon="4.37693">
        <ele>648.79998779297</ele>
        <time>2015-07-27T17:42:44.000Z</time>
      </trkpt>
      <trkpt lat="45.5342" lon="4.37674">
        <ele>648.20001220703</ele>
        <time>2015-07-27T17:42:47.000Z</time>
      </trkpt>
      <trkpt lat="45.53435" lon="4.37663">
        <ele>648.20001220703</ele>
        <time>2015-07-27T17:42:49.000Z</time>
      </trkpt>
      <trkpt lat="45.53442" lon="4.37656">
        <ele>648.79998779297</ele>
        <time>2015-07-27T17:42:50.000Z</time>
      </trkpt>
      <trkpt lat="45.53464" lon="4.37635">
        <ele>650.79998779297</ele>
        <time>2015-07-27T17:42:53.000Z</time>
      </trkpt>
      <trkpt lat="45.5347" lon="4.37627">
        <ele>650.79998779297</ele>
        <time>2015-07-27T17:42:54.000Z</time>
      </trkpt>
      <trkpt lat="45.53484" lon="4.37608">
        <ele>650.20001220703</ele>
        <time>2015-07-27T17:42:56.000Z</time>
      </trkpt>
      <trkpt lat="45.53489" lon="4.37598">
        <ele>649.20001220703</ele>
        <time>2015-07-27T17:42:57.000Z</time>
      </trkpt>
      <trkpt lat="45.53498" lon="4.37575">
        <ele>647.20001220703</ele>
        <time>2015-07-27T17:42:59.000Z</time>
      </trkpt>
      <trkpt lat="45.53506" lon="4.37551">
        <ele>646.40002441406</ele>
        <time>2015-07-27T17:43:01.000Z</time>
      </trkpt>
      <trkpt lat="45.5351" lon="4.37539">
        <ele>646.40002441406</ele>
        <time>2015-07-27T17:43:02.000Z</time>
      </trkpt>
      <trkpt lat="45.53517" lon="4.37514">
        <ele>645.20001220703</ele>
        <time>2015-07-27T17:43:04.000Z</time>
      </trkpt>
      <trkpt lat="45.53524" lon="4.37488">
        <ele>644</ele>
        <time>2015-07-27T17:43:06.000Z</time>
      </trkpt>
      <trkpt lat="45.53532" lon="4.37462">
        <ele>643.59997558594</ele>
        <time>2015-07-27T17:43:08.000Z</time>
      </trkpt>
      <trkpt lat="45.5354" lon="4.37436">
        <ele>642.79998779297</ele>
        <time>2015-07-27T17:43:10.000Z</time>
      </trkpt>
      <trkpt lat="45.53545" lon="4.37424">
        <ele>642.20001220703</ele>
        <time>2015-07-27T17:43:11.000Z</time>
      </trkpt>
      <trkpt lat="45.53555" lon="4.37399">
        <ele>640.59997558594</ele>
        <time>2015-07-27T17:43:13.000Z</time>
      </trkpt>
      <trkpt lat="45.53565" lon="4.37374">
        <ele>637.79998779297</ele>
        <time>2015-07-27T17:43:15.000Z</time>
      </trkpt>
      <trkpt lat="45.53576" lon="4.37349">
        <ele>635.20001220703</ele>
        <time>2015-07-27T17:43:17.000Z</time>
      </trkpt>
      <trkpt lat="45.53586" lon="4.37323">
        <ele>632</ele>
        <time>2015-07-27T17:43:19.000Z</time>
      </trkpt>
      <trkpt lat="45.53597" lon="4.37298">
        <ele>629.59997558594</ele>
        <time>2015-07-27T17:43:21.000Z</time>
      </trkpt>
      <trkpt lat="45.53605" lon="4.37287">
        <ele>628.59997558594</ele>
        <time>2015-07-27T17:43:22.000Z</time>
      </trkpt>
      <trkpt lat="45.53621" lon="4.37268">
        <ele>627</ele>
        <time>2015-07-27T17:43:24.000Z</time>
      </trkpt>
      <trkpt lat="45.53639" lon="4.37251">
        <ele>625.40002441406</ele>
        <time>2015-07-27T17:43:26.000Z</time>
      </trkpt>
      <trkpt lat="45.53649" lon="4.37246">
        <ele>624</ele>
        <time>2015-07-27T17:43:27.000Z</time>
      </trkpt>
      <trkpt lat="45.5367" lon="4.37243">
        <ele>621.79998779297</ele>
        <time>2015-07-27T17:43:29.000Z</time>
      </trkpt>
      <trkpt lat="45.5369" lon="4.37253">
        <ele>621.40002441406</ele>
        <time>2015-07-27T17:43:31.000Z</time>
      </trkpt>
      <trkpt lat="45.53709" lon="4.37266">
        <ele>621.79998779297</ele>
        <time>2015-07-27T17:43:33.000Z</time>
      </trkpt>
      <trkpt lat="45.53732" lon="4.37262">
        <ele>623.40002441406</ele>
        <time>2015-07-27T17:43:36.000Z</time>
      </trkpt>
      <trkpt lat="45.53728" lon="4.37228">
        <ele>622.59997558594</ele>
        <time>2015-07-27T17:43:39.000Z</time>
      </trkpt>
      <trkpt lat="45.53714" lon="4.37207">
        <ele>621</ele>
        <time>2015-07-27T17:43:41.000Z</time>
      </trkpt>
      <trkpt lat="45.53697" lon="4.3719">
        <ele>620.40002441406</ele>
        <time>2015-07-27T17:43:43.000Z</time>
      </trkpt>
      <trkpt lat="45.53679" lon="4.37175">
        <ele>619.79998779297</ele>
        <time>2015-07-27T17:43:45.000Z</time>
      </trkpt>
      <trkpt lat="45.5366" lon="4.37162">
        <ele>619</ele>
        <time>2015-07-27T17:43:47.000Z</time>
      </trkpt>
      <trkpt lat="45.53642" lon="4.37145">
        <ele>618.20001220703</ele>
        <time>2015-07-27T17:43:49.000Z</time>
      </trkpt>
      <trkpt lat="45.53625" lon="4.37125">
        <ele>616.79998779297</ele>
        <time>2015-07-27T17:43:51.000Z</time>
      </trkpt>
      <trkpt lat="45.53617" lon="4.37115">
        <ele>616</ele>
        <time>2015-07-27T17:43:52.000Z</time>
      </trkpt>
      <trkpt lat="45.536" lon="4.37095">
        <ele>614</ele>
        <time>2015-07-27T17:43:54.000Z</time>
      </trkpt>
      <trkpt lat="45.53583" lon="4.37074">
        <ele>612</ele>
        <time>2015-07-27T17:43:56.000Z</time>
      </trkpt>
      <trkpt lat="45.53566" lon="4.37053">
        <ele>610</ele>
        <time>2015-07-27T17:43:58.000Z</time>
      </trkpt>
      <trkpt lat="45.53549" lon="4.37033">
        <ele>608</ele>
        <time>2015-07-27T17:44:00.000Z</time>
      </trkpt>
      <trkpt lat="45.53543" lon="4.3702">
        <ele>607.20001220703</ele>
        <time>2015-07-27T17:44:01.000Z</time>
      </trkpt>
      <trkpt lat="45.53539" lon="4.36991">
        <ele>605.59997558594</ele>
        <time>2015-07-27T17:44:03.000Z</time>
      </trkpt>
      <trkpt lat="45.53547" lon="4.36967">
        <ele>604.79998779297</ele>
        <time>2015-07-27T17:44:05.000Z</time>
      </trkpt>
      <trkpt lat="45.53569" lon="4.3697">
        <ele>606.59997558594</ele>
        <time>2015-07-27T17:44:07.000Z</time>
      </trkpt>
      <trkpt lat="45.53586" lon="4.36986">
        <ele>608.79998779297</ele>
        <time>2015-07-27T17:44:09.000Z</time>
      </trkpt>
      <trkpt lat="45.53604" lon="4.36986">
        <ele>611.40002441406</ele>
        <time>2015-07-27T17:44:11.000Z</time>
      </trkpt>
      <trkpt lat="45.53615" lon="4.36955">
        <ele>613.79998779297</ele>
        <time>2015-07-27T17:44:14.000Z</time>
      </trkpt>
      <trkpt lat="45.53609" lon="4.36928">
        <ele>613.40002441406</ele>
        <time>2015-07-27T17:44:16.000Z</time>
      </trkpt>
      <trkpt lat="45.53597" lon="4.36906">
        <ele>612</ele>
        <time>2015-07-27T17:44:18.000Z</time>
      </trkpt>
      <trkpt lat="45.53579" lon="4.36892">
        <ele>609.20001220703</ele>
        <time>2015-07-27T17:44:20.000Z</time>
      </trkpt>
      <trkpt lat="45.5356" lon="4.36886">
        <ele>606.20001220703</ele>
        <time>2015-07-27T17:44:22.000Z</time>
      </trkpt>
      <trkpt lat="45.5354" lon="4.36885">
        <ele>603.40002441406</ele>
        <time>2015-07-27T17:44:24.000Z</time>
      </trkpt>
      <trkpt lat="45.5352" lon="4.36885">
        <ele>601</ele>
        <time>2015-07-27T17:44:26.000Z</time>
      </trkpt>
      <trkpt lat="45.53505" lon="4.3686">
        <ele>599.40002441406</ele>
        <time>2015-07-27T17:44:29.000Z</time>
      </trkpt>
      <trkpt lat="45.53503" lon="4.36824">
        <ele>598.79998779297</ele>
        <time>2015-07-27T17:44:32.000Z</time>
      </trkpt>
      <trkpt lat="45.53503" lon="4.36813">
        <ele>598.79998779297</ele>
        <time>2015-07-27T17:44:33.000Z</time>
      </trkpt>
      <trkpt lat="45.53502" lon="4.36781">
        <ele>599.40002441406</ele>
        <time>2015-07-27T17:44:36.000Z</time>
      </trkpt>
      <trkpt lat="45.53502" lon="4.36751">
        <ele>600.20001220703</ele>
        <time>2015-07-27T17:44:39.000Z</time>
      </trkpt>
      <trkpt lat="45.53502" lon="4.36722">
        <ele>600.79998779297</ele>
        <time>2015-07-27T17:44:42.000Z</time>
      </trkpt>
      <trkpt lat="45.53502" lon="4.36695">
        <ele>601</ele>
        <time>2015-07-27T17:44:45.000Z</time>
      </trkpt>
      <trkpt lat="45.53502" lon="4.36668">
        <ele>600.20001220703</ele>
        <time>2015-07-27T17:44:48.000Z</time>
      </trkpt>
      <trkpt lat="45.53502" lon="4.3664">
        <ele>599.40002441406</ele>
        <time>2015-07-27T17:44:51.000Z</time>
      </trkpt>
      <trkpt lat="45.53501" lon="4.36611">
        <ele>598.59997558594</ele>
        <time>2015-07-27T17:44:54.000Z</time>
      </trkpt>
      <trkpt lat="45.53501" lon="4.36583">
        <ele>599.59997558594</ele>
        <time>2015-07-27T17:44:57.000Z</time>
      </trkpt>
      <trkpt lat="45.53501" lon="4.36556">
        <ele>600.20001220703</ele>
        <time>2015-07-27T17:45:00.000Z</time>
      </trkpt>
      <trkpt lat="45.53499" lon="4.36539">
        <ele>600.40002441406</ele>
        <time>2015-07-27T17:45:02.000Z</time>
      </trkpt>
      <trkpt lat="45.53491" lon="4.36509">
        <ele>600.40002441406</ele>
        <time>2015-07-27T17:45:06.000Z</time>
      </trkpt>
      <trkpt lat="45.53486" lon="4.36495">
        <ele>600.40002441406</ele>
        <time>2015-07-27T17:45:08.000Z</time>
      </trkpt>
      <trkpt lat="45.5348" lon="4.36475">
        <ele>600.40002441406</ele>
        <time>2015-07-27T17:45:11.000Z</time>
      </trkpt>
      <trkpt lat="45.53481" lon="4.36447">
        <ele>600.79998779297</ele>
        <time>2015-07-27T17:45:15.000Z</time>
      </trkpt>
      <trkpt lat="45.53486" lon="4.36436">
        <ele>601.59997558594</ele>
        <time>2015-07-27T17:45:17.000Z</time>
      </trkpt>
      <trkpt lat="45.53494" lon="4.36421">
        <ele>602.79998779297</ele>
        <time>2015-07-27T17:45:20.000Z</time>
      </trkpt>
      <trkpt lat="45.53507" lon="4.36401">
        <ele>604.40002441406</ele>
        <time>2015-07-27T17:45:24.000Z</time>
      </trkpt>
      <trkpt lat="45.53518" lon="4.36386">
        <ele>603.59997558594</ele>
        <time>2015-07-27T17:45:27.000Z</time>
      </trkpt>
      <trkpt lat="45.53531" lon="4.36365">
        <ele>602.59997558594</ele>
        <time>2015-07-27T17:45:31.000Z</time>
      </trkpt>
      <trkpt lat="45.53544" lon="4.36344">
        <ele>602</ele>
        <time>2015-07-27T17:45:35.000Z</time>
      </trkpt>
      <trkpt lat="45.53557" lon="4.36325">
        <ele>601.79998779297</ele>
        <time>2015-07-27T17:45:39.000Z</time>
      </trkpt>
      <trkpt lat="45.53572" lon="4.36302">
        <ele>603</ele>
        <time>2015-07-27T17:45:43.000Z</time>
      </trkpt>
      <trkpt lat="45.53585" lon="4.36282">
        <ele>603</ele>
        <time>2015-07-27T17:45:47.000Z</time>
      </trkpt>
      <trkpt lat="45.53598" lon="4.36262">
        <ele>603.20001220703</ele>
        <time>2015-07-27T17:45:51.000Z</time>
      </trkpt>
      <trkpt lat="45.53613" lon="4.36239">
        <ele>601.20001220703</ele>
        <time>2015-07-27T17:45:55.000Z</time>
      </trkpt>
      <trkpt lat="45.53627" lon="4.36218">
        <ele>597.40002441406</ele>
        <time>2015-07-27T17:45:58.000Z</time>
      </trkpt>
      <trkpt lat="45.53642" lon="4.36194">
        <ele>594.20001220703</ele>
        <time>2015-07-27T17:46:01.000Z</time>
      </trkpt>
      <trkpt lat="45.53658" lon="4.36169">
        <ele>593.40002441406</ele>
        <time>2015-07-27T17:46:04.000Z</time>
      </trkpt>
      <trkpt lat="45.53675" lon="4.36142">
        <ele>591.40002441406</ele>
        <time>2015-07-27T17:46:07.000Z</time>
      </trkpt>
      <trkpt lat="45.53693" lon="4.36115">
        <ele>587.40002441406</ele>
        <time>2015-07-27T17:46:10.000Z</time>
      </trkpt>
      <trkpt lat="45.53711" lon="4.36087">
        <ele>586</ele>
        <time>2015-07-27T17:46:13.000Z</time>
      </trkpt>
      <trkpt lat="45.53729" lon="4.36059">
        <ele>584.79998779297</ele>
        <time>2015-07-27T17:46:16.000Z</time>
      </trkpt>
      <trkpt lat="45.53747" lon="4.36031">
        <ele>584.40002441406</ele>
        <time>2015-07-27T17:46:19.000Z</time>
      </trkpt>
      <trkpt lat="45.53764" lon="4.36003">
        <ele>584</ele>
        <time>2015-07-27T17:46:22.000Z</time>
      </trkpt>
      <trkpt lat="45.53782" lon="4.35976">
        <ele>583</ele>
        <time>2015-07-27T17:46:25.000Z</time>
      </trkpt>
      <trkpt lat="45.53799" lon="4.35949">
        <ele>582</ele>
        <time>2015-07-27T17:46:28.000Z</time>
      </trkpt>
      <trkpt lat="45.53815" lon="4.35923">
        <ele>580.59997558594</ele>
        <time>2015-07-27T17:46:31.000Z</time>
      </trkpt>
      <trkpt lat="45.53827" lon="4.35906">
        <ele>579.59997558594</ele>
        <time>2015-07-27T17:46:33.000Z</time>
      </trkpt>
      <trkpt lat="45.53843" lon="4.35881">
        <ele>577.59997558594</ele>
        <time>2015-07-27T17:46:36.000Z</time>
      </trkpt>
      <trkpt lat="45.5386" lon="4.35857">
        <ele>576</ele>
        <time>2015-07-27T17:46:39.000Z</time>
      </trkpt>
      <trkpt lat="45.53866" lon="4.35849">
        <ele>575.40002441406</ele>
        <time>2015-07-27T17:46:40.000Z</time>
      </trkpt>
      <trkpt lat="45.53886" lon="4.35827">
        <ele>574.40002441406</ele>
        <time>2015-07-27T17:46:43.000Z</time>
      </trkpt>
      <trkpt lat="45.53908" lon="4.35805">
        <ele>574.20001220703</ele>
        <time>2015-07-27T17:46:46.000Z</time>
      </trkpt>
      <trkpt lat="45.53923" lon="4.35788">
        <ele>573</ele>
        <time>2015-07-27T17:46:48.000Z</time>
      </trkpt>
      <trkpt lat="45.53937" lon="4.3577">
        <ele>572.20001220703</ele>
        <time>2015-07-27T17:46:50.000Z</time>
      </trkpt>
      <trkpt lat="45.53944" lon="4.35759">
        <ele>571.59997558594</ele>
        <time>2015-07-27T17:46:51.000Z</time>
      </trkpt>
      <trkpt lat="45.53956" lon="4.35737">
        <ele>570.40002441406</ele>
        <time>2015-07-27T17:46:53.000Z</time>
      </trkpt>
      <trkpt lat="45.53962" lon="4.35725">
        <ele>569.59997558594</ele>
        <time>2015-07-27T17:46:54.000Z</time>
      </trkpt>
      <trkpt lat="45.53973" lon="4.35699">
        <ele>569.20001220703</ele>
        <time>2015-07-27T17:46:56.000Z</time>
      </trkpt>
      <trkpt lat="45.53982" lon="4.35672">
        <ele>569.79998779297</ele>
        <time>2015-07-27T17:46:58.000Z</time>
      </trkpt>
      <trkpt lat="45.53987" lon="4.35658">
        <ele>569.79998779297</ele>
        <time>2015-07-27T17:46:59.000Z</time>
      </trkpt>
      <trkpt lat="45.53995" lon="4.3563">
        <ele>569</ele>
        <time>2015-07-27T17:47:01.000Z</time>
      </trkpt>
      <trkpt lat="45.54004" lon="4.35601">
        <ele>567.20001220703</ele>
        <time>2015-07-27T17:47:03.000Z</time>
      </trkpt>
      <trkpt lat="45.54012" lon="4.35571">
        <ele>566.40002441406</ele>
        <time>2015-07-27T17:47:05.000Z</time>
      </trkpt>
      <trkpt lat="45.54021" lon="4.35543">
        <ele>562.59997558594</ele>
        <time>2015-07-27T17:47:07.000Z</time>
      </trkpt>
      <trkpt lat="45.54027" lon="4.35529">
        <ele>561.20001220703</ele>
        <time>2015-07-27T17:47:08.000Z</time>
      </trkpt>
      <trkpt lat="45.54039" lon="4.35502">
        <ele>559.59997558594</ele>
        <time>2015-07-27T17:47:10.000Z</time>
      </trkpt>
      <trkpt lat="45.54052" lon="4.35475">
        <ele>556</ele>
        <time>2015-07-27T17:47:12.000Z</time>
      </trkpt>
      <trkpt lat="45.54066" lon="4.3545">
        <ele>554.20001220703</ele>
        <time>2015-07-27T17:47:14.000Z</time>
      </trkpt>
      <trkpt lat="45.54073" lon="4.35438">
        <ele>554.20001220703</ele>
        <time>2015-07-27T17:47:15.000Z</time>
      </trkpt>
      <trkpt lat="45.54088" lon="4.35418">
        <ele>554.59997558594</ele>
        <time>2015-07-27T17:47:17.000Z</time>
      </trkpt>
      <trkpt lat="45.54103" lon="4.354">
        <ele>553.79998779297</ele>
        <time>2015-07-27T17:47:19.000Z</time>
      </trkpt>
      <trkpt lat="45.54118" lon="4.35384">
        <ele>552.20001220703</ele>
        <time>2015-07-27T17:47:21.000Z</time>
      </trkpt>
      <trkpt lat="45.54142" lon="4.35368">
        <ele>550.59997558594</ele>
        <time>2015-07-27T17:47:24.000Z</time>
      </trkpt>
      <trkpt lat="45.54158" lon="4.3536">
        <ele>550.59997558594</ele>
        <time>2015-07-27T17:47:26.000Z</time>
      </trkpt>
      <trkpt lat="45.5418" lon="4.3535">
        <ele>551</ele>
        <time>2015-07-27T17:47:29.000Z</time>
      </trkpt>
      <trkpt lat="45.54187" lon="4.35346">
        <ele>551</ele>
        <time>2015-07-27T17:47:30.000Z</time>
      </trkpt>
      <trkpt lat="45.54208" lon="4.35332">
        <ele>550.40002441406</ele>
        <time>2015-07-27T17:47:33.000Z</time>
      </trkpt>
      <trkpt lat="45.54227" lon="4.35317">
        <ele>549.59997558594</ele>
        <time>2015-07-27T17:47:36.000Z</time>
      </trkpt>
      <trkpt lat="45.54246" lon="4.35303">
        <ele>550</ele>
        <time>2015-07-27T17:47:39.000Z</time>
      </trkpt>
      <trkpt lat="45.54264" lon="4.35289">
        <ele>551.20001220703</ele>
        <time>2015-07-27T17:47:42.000Z</time>
      </trkpt>
      <trkpt lat="45.54281" lon="4.35273">
        <ele>552.20001220703</ele>
        <time>2015-07-27T17:47:45.000Z</time>
      </trkpt>
      <trkpt lat="45.54286" lon="4.35267">
        <ele>552.59997558594</ele>
        <time>2015-07-27T17:47:46.000Z</time>
      </trkpt>
      <trkpt lat="45.54295" lon="4.35254">
        <ele>554</ele>
        <time>2015-07-27T17:47:48.000Z</time>
      </trkpt>
      <trkpt lat="45.54301" lon="4.35244">
        <ele>555</ele>
        <time>2015-07-27T17:47:50.000Z</time>
      </trkpt>
      <trkpt lat="45.54305" lon="4.35235">
        <ele>555.40002441406</ele>
        <time>2015-07-27T17:47:52.000Z</time>
      </trkpt>
      <trkpt lat="45.54309" lon="4.35222">
        <ele>556</ele>
        <time>2015-07-27T17:47:56.000Z</time>
      </trkpt>
      <trkpt lat="45.54308" lon="4.35191">
        <ele>556.79998779297</ele>
        <time>2015-07-27T17:48:02.000Z</time>
      </trkpt>
      <trkpt lat="45.54305" lon="4.35162">
        <ele>556.20001220703</ele>
        <time>2015-07-27T17:48:06.000Z</time>
      </trkpt>
      <trkpt lat="45.54299" lon="4.35138">
        <ele>555</ele>
        <time>2015-07-27T17:48:09.000Z</time>
      </trkpt>
      <trkpt lat="45.54291" lon="4.35114">
        <ele>553.79998779297</ele>
        <time>2015-07-27T17:48:12.000Z</time>
      </trkpt>
      <trkpt lat="45.54281" lon="4.35089">
        <ele>552.40002441406</ele>
        <time>2015-07-27T17:48:15.000Z</time>
      </trkpt>
      <trkpt lat="45.54271" lon="4.35064">
        <ele>550.59997558594</ele>
        <time>2015-07-27T17:48:18.000Z</time>
      </trkpt>
      <trkpt lat="45.54259" lon="4.35037">
        <ele>548.59997558594</ele>
        <time>2015-07-27T17:48:22.000Z</time>
      </trkpt>
      <trkpt lat="45.54256" lon="4.3503">
        <ele>548.20001220703</ele>
        <time>2015-07-27T17:48:24.000Z</time>
      </trkpt>
      <trkpt lat="45.54249" lon="4.3501">
        <ele>546.79998779297</ele>
        <time>2015-07-27T17:48:32.000Z</time>
      </trkpt>
      <trkpt lat="45.54253" lon="4.3502">
        <ele>547.59997558594</ele>
        <time>2015-07-27T17:48:54.000Z</time>
      </trkpt>
      <trkpt lat="45.54257" lon="4.35032">
        <ele>548.40002441406</ele>
        <time>2015-07-27T17:49:00.000Z</time>
      </trkpt>
      <trkpt lat="45.54262" lon="4.35047">
        <ele>549.20001220703</ele>
        <time>2015-07-27T17:49:06.000Z</time>
      </trkpt>
      <trkpt lat="45.5427" lon="4.35072">
        <ele>550.59997558594</ele>
        <time>2015-07-27T17:49:14.000Z</time>
      </trkpt>
      <trkpt lat="45.54273" lon="4.35091">
        <ele>551.40002441406</ele>
        <time>2015-07-27T17:49:21.000Z</time>
      </trkpt>
      <trkpt lat="45.54272" lon="4.35073">
        <ele>551</ele>
        <time>2015-07-27T17:49:44.000Z</time>
      </trkpt>
      <trkpt lat="45.54264" lon="4.3505">
        <ele>549.59997558594</ele>
        <time>2015-07-27T17:49:53.000Z</time>
      </trkpt>
      <trkpt lat="45.54267" lon="4.35047">
        <ele>549.79998779297</ele>
        <time>2015-07-27T17:51:00.000Z</time>
      </trkpt>
      <trkpt lat="45.54267" lon="4.35045">
        <ele>549.59997558594</ele>
        <time>2015-07-27T17:51:03.000Z</time>
      </trkpt>
      <trkpt lat="45.54268" lon="4.35017">
        <ele>549.20001220703</ele>
        <time>2015-07-27T17:51:10.000Z</time>
      </trkpt>
      <trkpt lat="45.54271" lon="4.34991">
        <ele>548.79998779297</ele>
        <time>2015-07-27T17:51:16.000Z</time>
      </trkpt>
      <trkpt lat="45.54269" lon="4.34981">
        <ele>548.20001220703</ele>
        <time>2015-07-27T17:51:19.000Z</time>
      </trkpt>
      <trkpt lat="45.54257" lon="4.3497">
        <ele>546.59997558594</ele>
        <time>2015-07-27T17:51:26.000Z</time>
      </trkpt>
      <trkpt lat="45.54253" lon="4.34959">
        <ele>545.79998779297</ele>
        <time>2015-07-27T17:51:38.000Z</time>
      </trkpt>
      <trkpt lat="45.54249" lon="4.34956">
        <ele>545.40002441406</ele>
        <time>2015-07-27T17:51:43.000Z</time>
      </trkpt>
      <trkpt lat="45.54235" lon="4.34937">
        <ele>543.40002441406</ele>
        <time>2015-07-27T17:51:53.000Z</time>
      </trkpt>
      <trkpt lat="45.54221" lon="4.34926">
        <ele>541.59997558594</ele>
        <time>2015-07-27T17:52:03.000Z</time>
      </trkpt>
      <trkpt lat="45.54219" lon="4.34932">
        <ele>541.59997558594</ele>
        <time>2015-07-27T17:52:38.000Z</time>
      </trkpt>
      <trkpt lat="45.54215" lon="4.34925">
        <ele>541.59997558594</ele>
        <time>2015-07-27T17:52:49.000Z</time>
      </trkpt>
      <trkpt lat="45.5421" lon="4.349">
        <ele>541.59997558594</ele>
        <time>2015-07-27T17:52:59.000Z</time>
      </trkpt>
      <trkpt lat="45.54208" lon="4.34892">
        <ele>541.59997558594</ele>
        <time>2015-07-27T17:53:01.000Z</time>
      </trkpt>
      <trkpt lat="45.54207" lon="4.34864">
        <ele>540.79998779297</ele>
        <time>2015-07-27T17:53:07.000Z</time>
      </trkpt>
      <trkpt lat="45.54209" lon="4.34838">
        <ele>539.79998779297</ele>
        <time>2015-07-27T17:53:12.000Z</time>
      </trkpt>
      <trkpt lat="45.54212" lon="4.3481">
        <ele>538.40002441406</ele>
        <time>2015-07-27T17:53:17.000Z</time>
      </trkpt>
      <trkpt lat="45.54214" lon="4.34781">
        <ele>537.59997558594</ele>
        <time>2015-07-27T17:53:22.000Z</time>
      </trkpt>
      <trkpt lat="45.54212" lon="4.3475">
        <ele>535.79998779297</ele>
        <time>2015-07-27T17:53:27.000Z</time>
      </trkpt>
      <trkpt lat="45.54207" lon="4.34725">
        <ele>535</ele>
        <time>2015-07-27T17:53:31.000Z</time>
      </trkpt>
      <trkpt lat="45.54201" lon="4.347">
        <ele>534.20001220703</ele>
        <time>2015-07-27T17:53:35.000Z</time>
      </trkpt>
      <trkpt lat="45.54197" lon="4.34675">
        <ele>533.79998779297</ele>
        <time>2015-07-27T17:53:42.000Z</time>
      </trkpt>
      <trkpt lat="45.54196" lon="4.34673">
        <ele>534</ele>
        <time>2015-07-27T17:53:43.000Z</time>
      </trkpt>
      <trkpt lat="45.54189" lon="4.34653">
        <ele>534</ele>
        <time>2015-07-27T17:53:48.000Z</time>
      </trkpt>
      <trkpt lat="45.54186" lon="4.34624">
        <ele>533</ele>
        <time>2015-07-27T17:53:53.000Z</time>
      </trkpt>
      <trkpt lat="45.54179" lon="4.34596">
        <ele>532.59997558594</ele>
        <time>2015-07-27T17:53:58.000Z</time>
      </trkpt>
      <trkpt lat="45.54173" lon="4.34566">
        <ele>532.20001220703</ele>
        <time>2015-07-27T17:54:03.000Z</time>
      </trkpt>
      <trkpt lat="45.54166" lon="4.34538">
        <ele>531.59997558594</ele>
        <time>2015-07-27T17:54:08.000Z</time>
      </trkpt>
      <trkpt lat="45.54161" lon="4.34509">
        <ele>532.20001220703</ele>
        <time>2015-07-27T17:54:13.000Z</time>
      </trkpt>
      <trkpt lat="45.54154" lon="4.3448">
        <ele>533.20001220703</ele>
        <time>2015-07-27T17:54:18.000Z</time>
      </trkpt>
      <trkpt lat="45.54149" lon="4.34449">
        <ele>533.40002441406</ele>
        <time>2015-07-27T17:54:23.000Z</time>
      </trkpt>
      <trkpt lat="45.54149" lon="4.34426">
        <ele>534.40002441406</ele>
        <time>2015-07-27T17:54:27.000Z</time>
      </trkpt>
      <trkpt lat="45.54153" lon="4.34398">
        <ele>534.79998779297</ele>
        <time>2015-07-27T17:54:32.000Z</time>
      </trkpt>
      <trkpt lat="45.5416" lon="4.34382">
        <ele>534.59997558594</ele>
        <time>2015-07-27T17:54:35.000Z</time>
      </trkpt>
      <trkpt lat="45.54171" lon="4.34358">
        <ele>533.59997558594</ele>
        <time>2015-07-27T17:54:39.000Z</time>
      </trkpt>
      <trkpt lat="45.54184" lon="4.34333">
        <ele>530.40002441406</ele>
        <time>2015-07-27T17:54:43.000Z</time>
      </trkpt>
      <trkpt lat="45.542" lon="4.34306">
        <ele>531.59997558594</ele>
        <time>2015-07-27T17:54:47.000Z</time>
      </trkpt>
      <trkpt lat="45.54212" lon="4.34285">
        <ele>533</ele>
        <time>2015-07-27T17:54:50.000Z</time>
      </trkpt>
      <trkpt lat="45.54225" lon="4.34261">
        <ele>531</ele>
        <time>2015-07-27T17:54:53.000Z</time>
      </trkpt>
      <trkpt lat="45.54237" lon="4.34235">
        <ele>528.20001220703</ele>
        <time>2015-07-27T17:54:56.000Z</time>
      </trkpt>
      <trkpt lat="45.5424" lon="4.34225">
        <ele>527.40002441406</ele>
        <time>2015-07-27T17:54:57.000Z</time>
      </trkpt>
      <trkpt lat="45.54241" lon="4.34193">
        <ele>526.40002441406</ele>
        <time>2015-07-27T17:55:00.000Z</time>
      </trkpt>
      <trkpt lat="45.54229" lon="4.34165">
        <ele>523.79998779297</ele>
        <time>2015-07-27T17:55:03.000Z</time>
      </trkpt>
      <trkpt lat="45.54207" lon="4.3415">
        <ele>523.40002441406</ele>
        <time>2015-07-27T17:55:06.000Z</time>
      </trkpt>
      <trkpt lat="45.54191" lon="4.34145">
        <ele>523.79998779297</ele>
        <time>2015-07-27T17:55:08.000Z</time>
      </trkpt>
      <trkpt lat="45.54166" lon="4.34138">
        <ele>524.20001220703</ele>
        <time>2015-07-27T17:55:11.000Z</time>
      </trkpt>
      <trkpt lat="45.54141" lon="4.3413">
        <ele>524.40002441406</ele>
        <time>2015-07-27T17:55:14.000Z</time>
      </trkpt>
      <trkpt lat="45.54134" lon="4.34128">
        <ele>524.59997558594</ele>
        <time>2015-07-27T17:55:15.000Z</time>
      </trkpt>
      <trkpt lat="45.5411" lon="4.3412">
        <ele>524.79998779297</ele>
        <time>2015-07-27T17:55:18.000Z</time>
      </trkpt>
      <trkpt lat="45.54088" lon="4.34111">
        <ele>525</ele>
        <time>2015-07-27T17:55:21.000Z</time>
      </trkpt>
      <trkpt lat="45.54074" lon="4.34103">
        <ele>525</ele>
        <time>2015-07-27T17:55:23.000Z</time>
      </trkpt>
      <trkpt lat="45.54056" lon="4.34083">
        <ele>524.59997558594</ele>
        <time>2015-07-27T17:55:26.000Z</time>
      </trkpt>
      <trkpt lat="45.54042" lon="4.34054">
        <ele>523.40002441406</ele>
        <time>2015-07-27T17:55:29.000Z</time>
      </trkpt>
      <trkpt lat="45.54032" lon="4.34022">
        <ele>522.40002441406</ele>
        <time>2015-07-27T17:55:32.000Z</time>
      </trkpt>
      <trkpt lat="45.5403" lon="4.34011">
        <ele>522.79998779297</ele>
        <time>2015-07-27T17:55:33.000Z</time>
      </trkpt>
      <trkpt lat="45.54025" lon="4.3399">
        <ele>523</ele>
        <time>2015-07-27T17:55:35.000Z</time>
      </trkpt>
      <trkpt lat="45.54024" lon="4.33959">
        <ele>522.59997558594</ele>
        <time>2015-07-27T17:55:38.000Z</time>
      </trkpt>
      <trkpt lat="45.54028" lon="4.3393">
        <ele>522.20001220703</ele>
        <time>2015-07-27T17:55:41.000Z</time>
      </trkpt>
      <trkpt lat="45.54032" lon="4.33904">
        <ele>523.20001220703</ele>
        <time>2015-07-27T17:55:44.000Z</time>
      </trkpt>
      <trkpt lat="45.54034" lon="4.33895">
        <ele>523.79998779297</ele>
        <time>2015-07-27T17:55:45.000Z</time>
      </trkpt>
      <trkpt lat="45.54039" lon="4.33862">
        <ele>525.40002441406</ele>
        <time>2015-07-27T17:55:49.000Z</time>
      </trkpt>
      <trkpt lat="45.54041" lon="4.33837">
        <ele>525.79998779297</ele>
        <time>2015-07-27T17:55:52.000Z</time>
      </trkpt>
      <trkpt lat="45.5404" lon="4.33811">
        <ele>526.59997558594</ele>
        <time>2015-07-27T17:55:55.000Z</time>
      </trkpt>
      <trkpt lat="45.54038" lon="4.33802">
        <ele>527</ele>
        <time>2015-07-27T17:55:56.000Z</time>
      </trkpt>
      <trkpt lat="45.54032" lon="4.33777">
        <ele>527.40002441406</ele>
        <time>2015-07-27T17:55:59.000Z</time>
      </trkpt>
      <trkpt lat="45.54029" lon="4.33768">
        <ele>526.79998779297</ele>
        <time>2015-07-27T17:56:00.000Z</time>
      </trkpt>
      <trkpt lat="45.54019" lon="4.33741">
        <ele>525.40002441406</ele>
        <time>2015-07-27T17:56:03.000Z</time>
      </trkpt>
      <trkpt lat="45.54008" lon="4.3371">
        <ele>524</ele>
        <time>2015-07-27T17:56:06.000Z</time>
      </trkpt>
      <trkpt lat="45.54006" lon="4.33698">
        <ele>523.40002441406</ele>
        <time>2015-07-27T17:56:07.000Z</time>
      </trkpt>
      <trkpt lat="45.54007" lon="4.33662">
        <ele>520.79998779297</ele>
        <time>2015-07-27T17:56:10.000Z</time>
      </trkpt>
      <trkpt lat="45.54022" lon="4.3363">
        <ele>520</ele>
        <time>2015-07-27T17:56:13.000Z</time>
      </trkpt>
      <trkpt lat="45.54036" lon="4.33615">
        <ele>520.20001220703</ele>
        <time>2015-07-27T17:56:15.000Z</time>
      </trkpt>
      <trkpt lat="45.54053" lon="4.33603">
        <ele>520.59997558594</ele>
        <time>2015-07-27T17:56:17.000Z</time>
      </trkpt>
      <trkpt lat="45.54069" lon="4.33592">
        <ele>519.40002441406</ele>
        <time>2015-07-27T17:56:19.000Z</time>
      </trkpt>
      <trkpt lat="45.54078" lon="4.33587">
        <ele>518.79998779297</ele>
        <time>2015-07-27T17:56:20.000Z</time>
      </trkpt>
      <trkpt lat="45.54095" lon="4.33577">
        <ele>517.40002441406</ele>
        <time>2015-07-27T17:56:22.000Z</time>
      </trkpt>
      <trkpt lat="45.54112" lon="4.33565">
        <ele>516.20001220703</ele>
        <time>2015-07-27T17:56:24.000Z</time>
      </trkpt>
      <trkpt lat="45.54129" lon="4.33552">
        <ele>514.79998779297</ele>
        <time>2015-07-27T17:56:26.000Z</time>
      </trkpt>
      <trkpt lat="45.54138" lon="4.33545">
        <ele>514.20001220703</ele>
        <time>2015-07-27T17:56:27.000Z</time>
      </trkpt>
      <trkpt lat="45.54153" lon="4.33527">
        <ele>511.79998779297</ele>
        <time>2015-07-27T17:56:29.000Z</time>
      </trkpt>
      <trkpt lat="45.54166" lon="4.33506">
        <ele>510.20001220703</ele>
        <time>2015-07-27T17:56:31.000Z</time>
      </trkpt>
      <trkpt lat="45.54177" lon="4.33481">
        <ele>508.60000610352</ele>
        <time>2015-07-27T17:56:33.000Z</time>
      </trkpt>
      <trkpt lat="45.54186" lon="4.33455">
        <ele>507</ele>
        <time>2015-07-27T17:56:35.000Z</time>
      </trkpt>
      <trkpt lat="45.54191" lon="4.33441">
        <ele>506</ele>
        <time>2015-07-27T17:56:36.000Z</time>
      </trkpt>
      <trkpt lat="45.542" lon="4.33415">
        <ele>504.39999389648</ele>
        <time>2015-07-27T17:56:38.000Z</time>
      </trkpt>
      <trkpt lat="45.54209" lon="4.33388">
        <ele>503.20001220703</ele>
        <time>2015-07-27T17:56:40.000Z</time>
      </trkpt>
      <trkpt lat="45.54217" lon="4.3336">
        <ele>502</ele>
        <time>2015-07-27T17:56:42.000Z</time>
      </trkpt>
      <trkpt lat="45.54222" lon="4.33331">
        <ele>501</ele>
        <time>2015-07-27T17:56:44.000Z</time>
      </trkpt>
      <trkpt lat="45.54228" lon="4.33301">
        <ele>500</ele>
        <time>2015-07-27T17:56:46.000Z</time>
      </trkpt>
      <trkpt lat="45.54232" lon="4.33286">
        <ele>499.60000610352</ele>
        <time>2015-07-27T17:56:47.000Z</time>
      </trkpt>
      <trkpt lat="45.54244" lon="4.3326">
        <ele>499</ele>
        <time>2015-07-27T17:56:49.000Z</time>
      </trkpt>
      <trkpt lat="45.5426" lon="4.33239">
        <ele>498</ele>
        <time>2015-07-27T17:56:51.000Z</time>
      </trkpt>
      <trkpt lat="45.54277" lon="4.33219">
        <ele>497.60000610352</ele>
        <time>2015-07-27T17:56:53.000Z</time>
      </trkpt>
      <trkpt lat="45.54286" lon="4.3321">
        <ele>497.39999389648</ele>
        <time>2015-07-27T17:56:54.000Z</time>
      </trkpt>
      <trkpt lat="45.54303" lon="4.3319">
        <ele>497</ele>
        <time>2015-07-27T17:56:56.000Z</time>
      </trkpt>
      <trkpt lat="45.54321" lon="4.33171">
        <ele>496</ele>
        <time>2015-07-27T17:56:58.000Z</time>
      </trkpt>
      <trkpt lat="45.5433" lon="4.33161">
        <ele>495.60000610352</ele>
        <time>2015-07-27T17:56:59.000Z</time>
      </trkpt>
      <trkpt lat="45.54346" lon="4.33141">
        <ele>494.20001220703</ele>
        <time>2015-07-27T17:57:01.000Z</time>
      </trkpt>
      <trkpt lat="45.54354" lon="4.3313">
        <ele>493.20001220703</ele>
        <time>2015-07-27T17:57:02.000Z</time>
      </trkpt>
      <trkpt lat="45.54368" lon="4.33106">
        <ele>491.20001220703</ele>
        <time>2015-07-27T17:57:04.000Z</time>
      </trkpt>
      <trkpt lat="45.54377" lon="4.3308">
        <ele>489.79998779297</ele>
        <time>2015-07-27T17:57:06.000Z</time>
      </trkpt>
      <trkpt lat="45.54382" lon="4.33053">
        <ele>489.20001220703</ele>
        <time>2015-07-27T17:57:08.000Z</time>
      </trkpt>
      <trkpt lat="45.54385" lon="4.33024">
        <ele>488.79998779297</ele>
        <time>2015-07-27T17:57:10.000Z</time>
      </trkpt>
      <trkpt lat="45.54386" lon="4.3301">
        <ele>488.39999389648</ele>
        <time>2015-07-27T17:57:11.000Z</time>
      </trkpt>
      <trkpt lat="45.5439" lon="4.32983">
        <ele>487.39999389648</ele>
        <time>2015-07-27T17:57:13.000Z</time>
      </trkpt>
      <trkpt lat="45.54394" lon="4.3297">
        <ele>487</ele>
        <time>2015-07-27T17:57:14.000Z</time>
      </trkpt>
      <trkpt lat="45.54407" lon="4.32949">
        <ele>486.20001220703</ele>
        <time>2015-07-27T17:57:16.000Z</time>
      </trkpt>
      <trkpt lat="45.54427" lon="4.32945">
        <ele>485.39999389648</ele>
        <time>2015-07-27T17:57:18.000Z</time>
      </trkpt>
      <trkpt lat="45.5445" lon="4.32946">
        <ele>484.60000610352</ele>
        <time>2015-07-27T17:57:20.000Z</time>
      </trkpt>
      <trkpt lat="45.54462" lon="4.32947">
        <ele>484.20001220703</ele>
        <time>2015-07-27T17:57:21.000Z</time>
      </trkpt>
      <trkpt lat="45.54487" lon="4.32945">
        <ele>483</ele>
        <time>2015-07-27T17:57:23.000Z</time>
      </trkpt>
      <trkpt lat="45.54499" lon="4.32941">
        <ele>482.60000610352</ele>
        <time>2015-07-27T17:57:24.000Z</time>
      </trkpt>
      <trkpt lat="45.54522" lon="4.32928">
        <ele>481.60000610352</ele>
        <time>2015-07-27T17:57:26.000Z</time>
      </trkpt>
      <trkpt lat="45.54545" lon="4.32916">
        <ele>480.39999389648</ele>
        <time>2015-07-27T17:57:28.000Z</time>
      </trkpt>
      <trkpt lat="45.54556" lon="4.3291">
        <ele>479.60000610352</ele>
        <time>2015-07-27T17:57:29.000Z</time>
      </trkpt>
      <trkpt lat="45.54579" lon="4.32899">
        <ele>477.39999389648</ele>
        <time>2015-07-27T17:57:31.000Z</time>
      </trkpt>
      <trkpt lat="45.54602" lon="4.32888">
        <ele>474.79998779297</ele>
        <time>2015-07-27T17:57:33.000Z</time>
      </trkpt>
      <trkpt lat="45.54626" lon="4.32877">
        <ele>472</ele>
        <time>2015-07-27T17:57:35.000Z</time>
      </trkpt>
      <trkpt lat="45.5465" lon="4.32867">
        <ele>470.39999389648</ele>
        <time>2015-07-27T17:57:37.000Z</time>
      </trkpt>
      <trkpt lat="45.54662" lon="4.32863">
        <ele>470</ele>
        <time>2015-07-27T17:57:38.000Z</time>
      </trkpt>
      <trkpt lat="45.54687" lon="4.32859">
        <ele>469</ele>
        <time>2015-07-27T17:57:40.000Z</time>
      </trkpt>
      <trkpt lat="45.54711" lon="4.32855">
        <ele>468</ele>
        <time>2015-07-27T17:57:42.000Z</time>
      </trkpt>
      <trkpt lat="45.54734" lon="4.32849">
        <ele>466.39999389648</ele>
        <time>2015-07-27T17:57:44.000Z</time>
      </trkpt>
      <trkpt lat="45.54744" lon="4.32845">
        <ele>465.60000610352</ele>
        <time>2015-07-27T17:57:45.000Z</time>
      </trkpt>
      <trkpt lat="45.54765" lon="4.32834">
        <ele>464</ele>
        <time>2015-07-27T17:57:47.000Z</time>
      </trkpt>
      <trkpt lat="45.54785" lon="4.3282">
        <ele>462.79998779297</ele>
        <time>2015-07-27T17:57:49.000Z</time>
      </trkpt>
      <trkpt lat="45.54794" lon="4.32812">
        <ele>462.39999389648</ele>
        <time>2015-07-27T17:57:50.000Z</time>
      </trkpt>
      <trkpt lat="45.54814" lon="4.32797">
        <ele>460.79998779297</ele>
        <time>2015-07-27T17:57:52.000Z</time>
      </trkpt>
      <trkpt lat="45.54834" lon="4.32781">
        <ele>459</ele>
        <time>2015-07-27T17:57:54.000Z</time>
      </trkpt>
      <trkpt lat="45.54855" lon="4.32765">
        <ele>456.79998779297</ele>
        <time>2015-07-27T17:57:56.000Z</time>
      </trkpt>
      <trkpt lat="45.54866" lon="4.32759">
        <ele>455.79998779297</ele>
        <time>2015-07-27T17:57:57.000Z</time>
      </trkpt>
      <trkpt lat="45.5489" lon="4.32751">
        <ele>454.39999389648</ele>
        <time>2015-07-27T17:57:59.000Z</time>
      </trkpt>
      <trkpt lat="45.54915" lon="4.32748">
        <ele>453</ele>
        <time>2015-07-27T17:58:01.000Z</time>
      </trkpt>
      <trkpt lat="45.54928" lon="4.32746">
        <ele>452.20001220703</ele>
        <time>2015-07-27T17:58:02.000Z</time>
      </trkpt>
      <trkpt lat="45.54953" lon="4.32743">
        <ele>450.39999389648</ele>
        <time>2015-07-27T17:58:04.000Z</time>
      </trkpt>
      <trkpt lat="45.54978" lon="4.32741">
        <ele>448.60000610352</ele>
        <time>2015-07-27T17:58:06.000Z</time>
      </trkpt>
      <trkpt lat="45.55003" lon="4.32739">
        <ele>446.79998779297</ele>
        <time>2015-07-27T17:58:08.000Z</time>
      </trkpt>
      <trkpt lat="45.55028" lon="4.32738">
        <ele>445.20001220703</ele>
        <time>2015-07-27T17:58:10.000Z</time>
      </trkpt>
      <trkpt lat="45.55052" lon="4.32736">
        <ele>443.20001220703</ele>
        <time>2015-07-27T17:58:12.000Z</time>
      </trkpt>
      <trkpt lat="45.55076" lon="4.32735">
        <ele>443.20001220703</ele>
        <time>2015-07-27T17:58:14.000Z</time>
      </trkpt>
      <trkpt lat="45.551" lon="4.32734">
        <ele>443.39999389648</ele>
        <time>2015-07-27T17:58:16.000Z</time>
      </trkpt>
      <trkpt lat="45.55111" lon="4.32733">
        <ele>443.60000610352</ele>
        <time>2015-07-27T17:58:17.000Z</time>
      </trkpt>
      <trkpt lat="45.55133" lon="4.32731">
        <ele>444</ele>
        <time>2015-07-27T17:58:19.000Z</time>
      </trkpt>
      <trkpt lat="45.55155" lon="4.32729">
        <ele>443</ele>
        <time>2015-07-27T17:58:21.000Z</time>
      </trkpt>
      <trkpt lat="45.55176" lon="4.32728">
        <ele>442.20001220703</ele>
        <time>2015-07-27T17:58:23.000Z</time>
      </trkpt>
      <trkpt lat="45.55197" lon="4.32728">
        <ele>441.60000610352</ele>
        <time>2015-07-27T17:58:25.000Z</time>
      </trkpt>
      <trkpt lat="45.55217" lon="4.3273">
        <ele>441.20001220703</ele>
        <time>2015-07-27T17:58:27.000Z</time>
      </trkpt>
      <trkpt lat="45.55237" lon="4.32733">
        <ele>440.60000610352</ele>
        <time>2015-07-27T17:58:29.000Z</time>
      </trkpt>
      <trkpt lat="45.55257" lon="4.32735">
        <ele>440</ele>
        <time>2015-07-27T17:58:31.000Z</time>
      </trkpt>
      <trkpt lat="45.55277" lon="4.32737">
        <ele>440</ele>
        <time>2015-07-27T17:58:33.000Z</time>
      </trkpt>
      <trkpt lat="45.55296" lon="4.32737">
        <ele>440</ele>
        <time>2015-07-27T17:58:35.000Z</time>
      </trkpt>
      <trkpt lat="45.55316" lon="4.32736">
        <ele>439</ele>
        <time>2015-07-27T17:58:37.000Z</time>
      </trkpt>
      <trkpt lat="45.55334" lon="4.32732">
        <ele>437.60000610352</ele>
        <time>2015-07-27T17:58:39.000Z</time>
      </trkpt>
      <trkpt lat="45.55352" lon="4.32727">
        <ele>436.79998779297</ele>
        <time>2015-07-27T17:58:41.000Z</time>
      </trkpt>
      <trkpt lat="45.55369" lon="4.32721">
        <ele>436.20001220703</ele>
        <time>2015-07-27T17:58:43.000Z</time>
      </trkpt>
      <trkpt lat="45.55386" lon="4.32711">
        <ele>435.60000610352</ele>
        <time>2015-07-27T17:58:45.000Z</time>
      </trkpt>
      <trkpt lat="45.55404" lon="4.32702">
        <ele>434.60000610352</ele>
        <time>2015-07-27T17:58:47.000Z</time>
      </trkpt>
      <trkpt lat="45.55423" lon="4.32692">
        <ele>433.60000610352</ele>
        <time>2015-07-27T17:58:49.000Z</time>
      </trkpt>
      <trkpt lat="45.5544" lon="4.32677">
        <ele>432.60000610352</ele>
        <time>2015-07-27T17:58:51.000Z</time>
      </trkpt>
      <trkpt lat="45.55456" lon="4.32657">
        <ele>431.79998779297</ele>
        <time>2015-07-27T17:58:53.000Z</time>
      </trkpt>
      <trkpt lat="45.55469" lon="4.32635">
        <ele>431</ele>
        <time>2015-07-27T17:58:55.000Z</time>
      </trkpt>
      <trkpt lat="45.55484" lon="4.32614">
        <ele>430.20001220703</ele>
        <time>2015-07-27T17:58:57.000Z</time>
      </trkpt>
      <trkpt lat="45.55502" lon="4.326">
        <ele>428.79998779297</ele>
        <time>2015-07-27T17:58:59.000Z</time>
      </trkpt>
      <trkpt lat="45.55523" lon="4.3259">
        <ele>427.60000610352</ele>
        <time>2015-07-27T17:59:01.000Z</time>
      </trkpt>
      <trkpt lat="45.55533" lon="4.32585">
        <ele>427</ele>
        <time>2015-07-27T17:59:02.000Z</time>
      </trkpt>
      <trkpt lat="45.55542" lon="4.32579">
        <ele>426.79998779297</ele>
        <time>2015-07-27T17:59:03.000Z</time>
      </trkpt>
      <trkpt lat="45.55561" lon="4.32565">
        <ele>425.79998779297</ele>
        <time>2015-07-27T17:59:05.000Z</time>
      </trkpt>
      <trkpt lat="45.55577" lon="4.32547">
        <ele>424.79998779297</ele>
        <time>2015-07-27T17:59:07.000Z</time>
      </trkpt>
      <trkpt lat="45.55592" lon="4.32525">
        <ele>424.39999389648</ele>
        <time>2015-07-27T17:59:09.000Z</time>
      </trkpt>
      <trkpt lat="45.55606" lon="4.32505">
        <ele>423.39999389648</ele>
        <time>2015-07-27T17:59:11.000Z</time>
      </trkpt>
      <trkpt lat="45.55613" lon="4.32495">
        <ele>423.20001220703</ele>
        <time>2015-07-27T17:59:12.000Z</time>
      </trkpt>
      <trkpt lat="45.55628" lon="4.32476">
        <ele>423</ele>
        <time>2015-07-27T17:59:14.000Z</time>
      </trkpt>
      <trkpt lat="45.55635" lon="4.32468">
        <ele>423</ele>
        <time>2015-07-27T17:59:15.000Z</time>
      </trkpt>
      <trkpt lat="45.5565" lon="4.32452">
        <ele>421.79998779297</ele>
        <time>2015-07-27T17:59:17.000Z</time>
      </trkpt>
      <trkpt lat="45.55666" lon="4.32438">
        <ele>421.20001220703</ele>
        <time>2015-07-27T17:59:19.000Z</time>
      </trkpt>
      <trkpt lat="45.55681" lon="4.32424">
        <ele>420.60000610352</ele>
        <time>2015-07-27T17:59:21.000Z</time>
      </trkpt>
      <trkpt lat="45.55695" lon="4.32409">
        <ele>420.20001220703</ele>
        <time>2015-07-27T17:59:23.000Z</time>
      </trkpt>
      <trkpt lat="45.5571" lon="4.32394">
        <ele>420.20001220703</ele>
        <time>2015-07-27T17:59:25.000Z</time>
      </trkpt>
      <trkpt lat="45.55726" lon="4.32379">
        <ele>419.79998779297</ele>
        <time>2015-07-27T17:59:27.000Z</time>
      </trkpt>
      <trkpt lat="45.55741" lon="4.32366">
        <ele>419.79998779297</ele>
        <time>2015-07-27T17:59:29.000Z</time>
      </trkpt>
      <trkpt lat="45.55757" lon="4.32351">
        <ele>419.20001220703</ele>
        <time>2015-07-27T17:59:31.000Z</time>
      </trkpt>
      <trkpt lat="45.55764" lon="4.32343">
        <ele>419</ele>
        <time>2015-07-27T17:59:32.000Z</time>
      </trkpt>
      <trkpt lat="45.55777" lon="4.32322">
        <ele>418.79998779297</ele>
        <time>2015-07-27T17:59:34.000Z</time>
      </trkpt>
      <trkpt lat="45.55785" lon="4.32299">
        <ele>419.20001220703</ele>
        <time>2015-07-27T17:59:36.000Z</time>
      </trkpt>
      <trkpt lat="45.55791" lon="4.32273">
        <ele>419.39999389648</ele>
        <time>2015-07-27T17:59:38.000Z</time>
      </trkpt>
      <trkpt lat="45.55796" lon="4.32247">
        <ele>420</ele>
        <time>2015-07-27T17:59:40.000Z</time>
      </trkpt>
      <trkpt lat="45.55799" lon="4.32233">
        <ele>420.20001220703</ele>
        <time>2015-07-27T17:59:41.000Z</time>
      </trkpt>
      <trkpt lat="45.55804" lon="4.32206">
        <ele>420.60000610352</ele>
        <time>2015-07-27T17:59:43.000Z</time>
      </trkpt>
      <trkpt lat="45.55808" lon="4.32179">
        <ele>420</ele>
        <time>2015-07-27T17:59:45.000Z</time>
      </trkpt>
      <trkpt lat="45.55813" lon="4.32151">
        <ele>419.79998779297</ele>
        <time>2015-07-27T17:59:47.000Z</time>
      </trkpt>
      <trkpt lat="45.55815" lon="4.32137">
        <ele>419.60000610352</ele>
        <time>2015-07-27T17:59:48.000Z</time>
      </trkpt>
      <trkpt lat="45.55816" lon="4.32123">
        <ele>419.60000610352</ele>
        <time>2015-07-27T17:59:49.000Z</time>
      </trkpt>
      <trkpt lat="45.55817" lon="4.32095">
        <ele>417.60000610352</ele>
        <time>2015-07-27T17:59:51.000Z</time>
      </trkpt>
      <trkpt lat="45.55817" lon="4.3208">
        <ele>416.20001220703</ele>
        <time>2015-07-27T17:59:52.000Z</time>
      </trkpt>
      <trkpt lat="45.5582" lon="4.32051">
        <ele>413</ele>
        <time>2015-07-27T17:59:54.000Z</time>
      </trkpt>
      <trkpt lat="45.5583" lon="4.32024">
        <ele>411</ele>
        <time>2015-07-27T17:59:56.000Z</time>
      </trkpt>
      <trkpt lat="45.55846" lon="4.32007">
        <ele>408.20001220703</ele>
        <time>2015-07-27T17:59:58.000Z</time>
      </trkpt>
      <trkpt lat="45.55867" lon="4.31999">
        <ele>406.39999389648</ele>
        <time>2015-07-27T18:00:00.000Z</time>
      </trkpt>
      <trkpt lat="45.55889" lon="4.32002">
        <ele>405.39999389648</ele>
        <time>2015-07-27T18:00:02.000Z</time>
      </trkpt>
      <trkpt lat="45.55911" lon="4.32009">
        <ele>404.39999389648</ele>
        <time>2015-07-27T18:00:04.000Z</time>
      </trkpt>
      <trkpt lat="45.55921" lon="4.32012">
        <ele>404</ele>
        <time>2015-07-27T18:00:05.000Z</time>
      </trkpt>
      <trkpt lat="45.55942" lon="4.32019">
        <ele>403</ele>
        <time>2015-07-27T18:00:07.000Z</time>
      </trkpt>
      <trkpt lat="45.55961" lon="4.32025">
        <ele>402.20001220703</ele>
        <time>2015-07-27T18:00:09.000Z</time>
      </trkpt>
      <trkpt lat="45.55981" lon="4.32032">
        <ele>402.39999389648</ele>
        <time>2015-07-27T18:00:11.000Z</time>
      </trkpt>
      <trkpt lat="45.5599" lon="4.32034">
        <ele>402.60000610352</ele>
        <time>2015-07-27T18:00:12.000Z</time>
      </trkpt>
      <trkpt lat="45.56009" lon="4.32032">
        <ele>403</ele>
        <time>2015-07-27T18:00:14.000Z</time>
      </trkpt>
      <trkpt lat="45.56027" lon="4.32024">
        <ele>403.39999389648</ele>
        <time>2015-07-27T18:00:16.000Z</time>
      </trkpt>
      <trkpt lat="45.56043" lon="4.32012">
        <ele>403.20001220703</ele>
        <time>2015-07-27T18:00:18.000Z</time>
      </trkpt>
      <trkpt lat="45.56058" lon="4.31998">
        <ele>402.20001220703</ele>
        <time>2015-07-27T18:00:20.000Z</time>
      </trkpt>
      <trkpt lat="45.56079" lon="4.31978">
        <ele>400.79998779297</ele>
        <time>2015-07-27T18:00:23.000Z</time>
      </trkpt>
      <trkpt lat="45.56099" lon="4.31958">
        <ele>400.20001220703</ele>
        <time>2015-07-27T18:00:26.000Z</time>
      </trkpt>
      <trkpt lat="45.56112" lon="4.31944">
        <ele>400</ele>
        <time>2015-07-27T18:00:28.000Z</time>
      </trkpt>
      <trkpt lat="45.56129" lon="4.3192">
        <ele>400</ele>
        <time>2015-07-27T18:00:31.000Z</time>
      </trkpt>
      <trkpt lat="45.56145" lon="4.31896">
        <ele>400</ele>
        <time>2015-07-27T18:00:34.000Z</time>
      </trkpt>
      <trkpt lat="45.56161" lon="4.31872">
        <ele>399.79998779297</ele>
        <time>2015-07-27T18:00:37.000Z</time>
      </trkpt>
      <trkpt lat="45.56179" lon="4.3185">
        <ele>399.79998779297</ele>
        <time>2015-07-27T18:00:40.000Z</time>
      </trkpt>
      <trkpt lat="45.56198" lon="4.31829">
        <ele>399.79998779297</ele>
        <time>2015-07-27T18:00:43.000Z</time>
      </trkpt>
      <trkpt lat="45.56216" lon="4.31809">
        <ele>399.79998779297</ele>
        <time>2015-07-27T18:00:46.000Z</time>
      </trkpt>
      <trkpt lat="45.56232" lon="4.31789">
        <ele>399.79998779297</ele>
        <time>2015-07-27T18:00:49.000Z</time>
      </trkpt>
      <trkpt lat="45.56246" lon="4.31769">
        <ele>399.60000610352</ele>
        <time>2015-07-27T18:00:52.000Z</time>
      </trkpt>
      <trkpt lat="45.56251" lon="4.31764">
        <ele>399.60000610352</ele>
        <time>2015-07-27T18:00:53.000Z</time>
      </trkpt>
      <trkpt lat="45.5627" lon="4.31766">
        <ele>399.39999389648</ele>
        <time>2015-07-27T18:00:56.000Z</time>
      </trkpt>
      <trkpt lat="45.56289" lon="4.31768">
        <ele>399.20001220703</ele>
        <time>2015-07-27T18:00:59.000Z</time>
      </trkpt>
      <trkpt lat="45.56301" lon="4.31765">
        <ele>398.79998779297</ele>
        <time>2015-07-27T18:01:01.000Z</time>
      </trkpt>
      <trkpt lat="45.56319" lon="4.31761">
        <ele>399</ele>
        <time>2015-07-27T18:01:04.000Z</time>
      </trkpt>
      <trkpt lat="45.56338" lon="4.31757">
        <ele>399.20001220703</ele>
        <time>2015-07-27T18:01:07.000Z</time>
      </trkpt>
      <trkpt lat="45.56358" lon="4.31753">
        <ele>399.39999389648</ele>
        <time>2015-07-27T18:01:10.000Z</time>
      </trkpt>
      <trkpt lat="45.56378" lon="4.31748">
        <ele>400.20001220703</ele>
        <time>2015-07-27T18:01:13.000Z</time>
      </trkpt>
      <trkpt lat="45.56399" lon="4.31743">
        <ele>400.39999389648</ele>
        <time>2015-07-27T18:01:16.000Z</time>
      </trkpt>
      <trkpt lat="45.5642" lon="4.31738">
        <ele>400.60000610352</ele>
        <time>2015-07-27T18:01:19.000Z</time>
      </trkpt>
      <trkpt lat="45.56441" lon="4.31734">
        <ele>400</ele>
        <time>2015-07-27T18:01:22.000Z</time>
      </trkpt>
      <trkpt lat="45.56462" lon="4.3173">
        <ele>399.60000610352</ele>
        <time>2015-07-27T18:01:25.000Z</time>
      </trkpt>
      <trkpt lat="45.56482" lon="4.31725">
        <ele>399.20001220703</ele>
        <time>2015-07-27T18:01:28.000Z</time>
      </trkpt>
      <trkpt lat="45.56503" lon="4.3172">
        <ele>398.79998779297</ele>
        <time>2015-07-27T18:01:31.000Z</time>
      </trkpt>
      <trkpt lat="45.56524" lon="4.31715">
        <ele>398.60000610352</ele>
        <time>2015-07-27T18:01:34.000Z</time>
      </trkpt>
      <trkpt lat="45.56544" lon="4.31711">
        <ele>398.20001220703</ele>
        <time>2015-07-27T18:01:37.000Z</time>
      </trkpt>
      <trkpt lat="45.56564" lon="4.31706">
        <ele>398.39999389648</ele>
        <time>2015-07-27T18:01:40.000Z</time>
      </trkpt>
      <trkpt lat="45.56571" lon="4.31705">
        <ele>398.60000610352</ele>
        <time>2015-07-27T18:01:41.000Z</time>
      </trkpt>
      <trkpt lat="45.56591" lon="4.317">
        <ele>398.60000610352</ele>
        <time>2015-07-27T18:01:44.000Z</time>
      </trkpt>
      <trkpt lat="45.5661" lon="4.31695">
        <ele>398.60000610352</ele>
        <time>2015-07-27T18:01:47.000Z</time>
      </trkpt>
      <trkpt lat="45.56628" lon="4.3169">
        <ele>398.79998779297</ele>
        <time>2015-07-27T18:01:50.000Z</time>
      </trkpt>
      <trkpt lat="45.56647" lon="4.31683">
        <ele>398.39999389648</ele>
        <time>2015-07-27T18:01:53.000Z</time>
      </trkpt>
      <trkpt lat="45.56665" lon="4.31676">
        <ele>398</ele>
        <time>2015-07-27T18:01:56.000Z</time>
      </trkpt>
      <trkpt lat="45.56683" lon="4.31668">
        <ele>397.60000610352</ele>
        <time>2015-07-27T18:01:59.000Z</time>
      </trkpt>
      <trkpt lat="45.56703" lon="4.31661">
        <ele>397.79998779297</ele>
        <time>2015-07-27T18:02:02.000Z</time>
      </trkpt>
      <trkpt lat="45.56722" lon="4.31654">
        <ele>398.20001220703</ele>
        <time>2015-07-27T18:02:05.000Z</time>
      </trkpt>
      <trkpt lat="45.56741" lon="4.31646">
        <ele>398.60000610352</ele>
        <time>2015-07-27T18:02:08.000Z</time>
      </trkpt>
      <trkpt lat="45.56761" lon="4.31638">
        <ele>398.20001220703</ele>
        <time>2015-07-27T18:02:11.000Z</time>
      </trkpt>
      <trkpt lat="45.56781" lon="4.3163">
        <ele>397.39999389648</ele>
        <time>2015-07-27T18:02:14.000Z</time>
      </trkpt>
      <trkpt lat="45.56801" lon="4.31622">
        <ele>396.60000610352</ele>
        <time>2015-07-27T18:02:17.000Z</time>
      </trkpt>
      <trkpt lat="45.56821" lon="4.31614">
        <ele>396.79998779297</ele>
        <time>2015-07-27T18:02:20.000Z</time>
      </trkpt>
      <trkpt lat="45.56842" lon="4.3161">
        <ele>397.20001220703</ele>
        <time>2015-07-27T18:02:23.000Z</time>
      </trkpt>
      <trkpt lat="45.56862" lon="4.31607">
        <ele>397.79998779297</ele>
        <time>2015-07-27T18:02:26.000Z</time>
      </trkpt>
      <trkpt lat="45.56883" lon="4.31605">
        <ele>398.60000610352</ele>
        <time>2015-07-27T18:02:29.000Z</time>
      </trkpt>
      <trkpt lat="45.56904" lon="4.31605">
        <ele>398.60000610352</ele>
        <time>2015-07-27T18:02:32.000Z</time>
      </trkpt>
      <trkpt lat="45.56924" lon="4.31605">
        <ele>398.60000610352</ele>
        <time>2015-07-27T18:02:35.000Z</time>
      </trkpt>
      <trkpt lat="45.56945" lon="4.31607">
        <ele>398.79998779297</ele>
        <time>2015-07-27T18:02:38.000Z</time>
      </trkpt>
      <trkpt lat="45.56966" lon="4.31609">
        <ele>398.79998779297</ele>
        <time>2015-07-27T18:02:41.000Z</time>
      </trkpt>
      <trkpt lat="45.56987" lon="4.3161">
        <ele>399.20001220703</ele>
        <time>2015-07-27T18:02:44.000Z</time>
      </trkpt>
      <trkpt lat="45.57008" lon="4.31611">
        <ele>399.39999389648</ele>
        <time>2015-07-27T18:02:47.000Z</time>
      </trkpt>
      <trkpt lat="45.57028" lon="4.31611">
        <ele>399.60000610352</ele>
        <time>2015-07-27T18:02:50.000Z</time>
      </trkpt>
      <trkpt lat="45.57055" lon="4.31609">
        <ele>400</ele>
        <time>2015-07-27T18:02:54.000Z</time>
      </trkpt>
      <trkpt lat="45.57075" lon="4.31608">
        <ele>400.79998779297</ele>
        <time>2015-07-27T18:02:57.000Z</time>
      </trkpt>
      <trkpt lat="45.57095" lon="4.31605">
        <ele>401.39999389648</ele>
        <time>2015-07-27T18:03:00.000Z</time>
      </trkpt>
      <trkpt lat="45.57117" lon="4.31601">
        <ele>402</ele>
        <time>2015-07-27T18:03:03.000Z</time>
      </trkpt>
      <trkpt lat="45.57138" lon="4.31596">
        <ele>402.20001220703</ele>
        <time>2015-07-27T18:03:06.000Z</time>
      </trkpt>
      <trkpt lat="45.57159" lon="4.31589">
        <ele>401.79998779297</ele>
        <time>2015-07-27T18:03:09.000Z</time>
      </trkpt>
      <trkpt lat="45.57181" lon="4.31582">
        <ele>401.39999389648</ele>
        <time>2015-07-27T18:03:12.000Z</time>
      </trkpt>
      <trkpt lat="45.57202" lon="4.31575">
        <ele>401.39999389648</ele>
        <time>2015-07-27T18:03:15.000Z</time>
      </trkpt>
      <trkpt lat="45.57224" lon="4.31567">
        <ele>401.20001220703</ele>
        <time>2015-07-27T18:03:18.000Z</time>
      </trkpt>
      <trkpt lat="45.57245" lon="4.3156">
        <ele>400.39999389648</ele>
        <time>2015-07-27T18:03:21.000Z</time>
      </trkpt>
      <trkpt lat="45.57267" lon="4.31553">
        <ele>400</ele>
        <time>2015-07-27T18:03:24.000Z</time>
      </trkpt>
      <trkpt lat="45.57288" lon="4.31547">
        <ele>399.60000610352</ele>
        <time>2015-07-27T18:03:27.000Z</time>
      </trkpt>
      <trkpt lat="45.57309" lon="4.31543">
        <ele>399.39999389648</ele>
        <time>2015-07-27T18:03:30.000Z</time>
      </trkpt>
      <trkpt lat="45.5733" lon="4.31543">
        <ele>399.60000610352</ele>
        <time>2015-07-27T18:03:33.000Z</time>
      </trkpt>
      <trkpt lat="45.57349" lon="4.31547">
        <ele>400</ele>
        <time>2015-07-27T18:03:36.000Z</time>
      </trkpt>
      <trkpt lat="45.57356" lon="4.3155">
        <ele>400.20001220703</ele>
        <time>2015-07-27T18:03:37.000Z</time>
      </trkpt>
      <trkpt lat="45.57375" lon="4.31559">
        <ele>400.60000610352</ele>
        <time>2015-07-27T18:03:40.000Z</time>
      </trkpt>
      <trkpt lat="45.57381" lon="4.31563">
        <ele>400.79998779297</ele>
        <time>2015-07-27T18:03:41.000Z</time>
      </trkpt>
      <trkpt lat="45.57399" lon="4.31577">
        <ele>401.20001220703</ele>
        <time>2015-07-27T18:03:44.000Z</time>
      </trkpt>
      <trkpt lat="45.57416" lon="4.31592">
        <ele>401.39999389648</ele>
        <time>2015-07-27T18:03:47.000Z</time>
      </trkpt>
      <trkpt lat="45.57433" lon="4.31605">
        <ele>401.79998779297</ele>
        <time>2015-07-27T18:03:50.000Z</time>
      </trkpt>
      <trkpt lat="45.57444" lon="4.31614">
        <ele>402</ele>
        <time>2015-07-27T18:03:52.000Z</time>
      </trkpt>
      <trkpt lat="45.57461" lon="4.31628">
        <ele>402.39999389648</ele>
        <time>2015-07-27T18:03:55.000Z</time>
      </trkpt>
      <trkpt lat="45.57479" lon="4.3164">
        <ele>402.20001220703</ele>
        <time>2015-07-27T18:03:58.000Z</time>
      </trkpt>
      <trkpt lat="45.57497" lon="4.31653">
        <ele>402</ele>
        <time>2015-07-27T18:04:01.000Z</time>
      </trkpt>
      <trkpt lat="45.57515" lon="4.31664">
        <ele>401.60000610352</ele>
        <time>2015-07-27T18:04:04.000Z</time>
      </trkpt>
      <trkpt lat="45.57534" lon="4.31673">
        <ele>401</ele>
        <time>2015-07-27T18:04:07.000Z</time>
      </trkpt>
      <trkpt lat="45.57552" lon="4.31681">
        <ele>400.60000610352</ele>
        <time>2015-07-27T18:04:10.000Z</time>
      </trkpt>
      <trkpt lat="45.57558" lon="4.31683">
        <ele>400.79998779297</ele>
        <time>2015-07-27T18:04:11.000Z</time>
      </trkpt>
      <trkpt lat="45.57576" lon="4.31684">
        <ele>401.20001220703</ele>
        <time>2015-07-27T18:04:14.000Z</time>
      </trkpt>
      <trkpt lat="45.57582" lon="4.31684">
        <ele>401.39999389648</ele>
        <time>2015-07-27T18:04:15.000Z</time>
      </trkpt>
      <trkpt lat="45.57601" lon="4.3168">
        <ele>401.79998779297</ele>
        <time>2015-07-27T18:04:18.000Z</time>
      </trkpt>
      <trkpt lat="45.57619" lon="4.31676">
        <ele>402</ele>
        <time>2015-07-27T18:04:21.000Z</time>
      </trkpt>
      <trkpt lat="45.57638" lon="4.31672">
        <ele>401.79998779297</ele>
        <time>2015-07-27T18:04:24.000Z</time>
      </trkpt>
      <trkpt lat="45.57656" lon="4.31668">
        <ele>401.60000610352</ele>
        <time>2015-07-27T18:04:27.000Z</time>
      </trkpt>
      <trkpt lat="45.57674" lon="4.31665">
        <ele>401.39999389648</ele>
        <time>2015-07-27T18:04:30.000Z</time>
      </trkpt>
      <trkpt lat="45.57693" lon="4.31661">
        <ele>401.39999389648</ele>
        <time>2015-07-27T18:04:33.000Z</time>
      </trkpt>
      <trkpt lat="45.57712" lon="4.31657">
        <ele>401.39999389648</ele>
        <time>2015-07-27T18:04:36.000Z</time>
      </trkpt>
      <trkpt lat="45.5773" lon="4.31653">
        <ele>401</ele>
        <time>2015-07-27T18:04:39.000Z</time>
      </trkpt>
      <trkpt lat="45.57749" lon="4.31651">
        <ele>400.20001220703</ele>
        <time>2015-07-27T18:04:42.000Z</time>
      </trkpt>
      <trkpt lat="45.57756" lon="4.31651">
        <ele>400</ele>
        <time>2015-07-27T18:04:43.000Z</time>
      </trkpt>
      <trkpt lat="45.57775" lon="4.31655">
        <ele>399.60000610352</ele>
        <time>2015-07-27T18:04:46.000Z</time>
      </trkpt>
      <trkpt lat="45.57788" lon="4.3166">
        <ele>399.39999389648</ele>
        <time>2015-07-27T18:04:48.000Z</time>
      </trkpt>
      <trkpt lat="45.57807" lon="4.31669">
        <ele>399.20001220703</ele>
        <time>2015-07-27T18:04:51.000Z</time>
      </trkpt>
      <trkpt lat="45.57813" lon="4.31673">
        <ele>399.20001220703</ele>
        <time>2015-07-27T18:04:52.000Z</time>
      </trkpt>
      <trkpt lat="45.57831" lon="4.31684">
        <ele>399.39999389648</ele>
        <time>2015-07-27T18:04:55.000Z</time>
      </trkpt>
      <trkpt lat="45.57837" lon="4.31688">
        <ele>399.39999389648</ele>
        <time>2015-07-27T18:04:56.000Z</time>
      </trkpt>
      <trkpt lat="45.57855" lon="4.31701">
        <ele>399.60000610352</ele>
        <time>2015-07-27T18:04:59.000Z</time>
      </trkpt>
      <trkpt lat="45.57872" lon="4.31715">
        <ele>399.79998779297</ele>
        <time>2015-07-27T18:05:02.000Z</time>
      </trkpt>
      <trkpt lat="45.5789" lon="4.3173">
        <ele>400</ele>
        <time>2015-07-27T18:05:05.000Z</time>
      </trkpt>
      <trkpt lat="45.57907" lon="4.31745">
        <ele>400.20001220703</ele>
        <time>2015-07-27T18:05:08.000Z</time>
      </trkpt>
      <trkpt lat="45.57925" lon="4.3176">
        <ele>400.39999389648</ele>
        <time>2015-07-27T18:05:11.000Z</time>
      </trkpt>
      <trkpt lat="45.57942" lon="4.31775">
        <ele>400.39999389648</ele>
        <time>2015-07-27T18:05:14.000Z</time>
      </trkpt>
      <trkpt lat="45.5796" lon="4.31789">
        <ele>400.39999389648</ele>
        <time>2015-07-27T18:05:17.000Z</time>
      </trkpt>
      <trkpt lat="45.57978" lon="4.31804">
        <ele>400.39999389648</ele>
        <time>2015-07-27T18:05:20.000Z</time>
      </trkpt>
      <trkpt lat="45.57996" lon="4.3182">
        <ele>400.20001220703</ele>
        <time>2015-07-27T18:05:23.000Z</time>
      </trkpt>
      <trkpt lat="45.58013" lon="4.31832">
        <ele>400.20001220703</ele>
        <time>2015-07-27T18:05:26.000Z</time>
      </trkpt>
      <trkpt lat="45.58019" lon="4.31832">
        <ele>400</ele>
        <time>2015-07-27T18:05:27.000Z</time>
      </trkpt>
      <trkpt lat="45.58035" lon="4.31814">
        <ele>398.79998779297</ele>
        <time>2015-07-27T18:05:30.000Z</time>
      </trkpt>
      <trkpt lat="45.58041" lon="4.31807">
        <ele>398.39999389648</ele>
        <time>2015-07-27T18:05:31.000Z</time>
      </trkpt>
      <trkpt lat="45.58058" lon="4.31786">
        <ele>396.79998779297</ele>
        <time>2015-07-27T18:05:34.000Z</time>
      </trkpt>
      <trkpt lat="45.58075" lon="4.31764">
        <ele>396</ele>
        <time>2015-07-27T18:05:37.000Z</time>
      </trkpt>
      <trkpt lat="45.58091" lon="4.31739">
        <ele>395</ele>
        <time>2015-07-27T18:05:40.000Z</time>
      </trkpt>
      <trkpt lat="45.58106" lon="4.31713">
        <ele>394.20001220703</ele>
        <time>2015-07-27T18:05:43.000Z</time>
      </trkpt>
      <trkpt lat="45.58123" lon="4.31687">
        <ele>393.39999389648</ele>
        <time>2015-07-27T18:05:46.000Z</time>
      </trkpt>
      <trkpt lat="45.5814" lon="4.3166">
        <ele>392.79998779297</ele>
        <time>2015-07-27T18:05:49.000Z</time>
      </trkpt>
      <trkpt lat="45.58157" lon="4.31632">
        <ele>391.79998779297</ele>
        <time>2015-07-27T18:05:52.000Z</time>
      </trkpt>
      <trkpt lat="45.58175" lon="4.31603">
        <ele>390.20001220703</ele>
        <time>2015-07-27T18:05:55.000Z</time>
      </trkpt>
      <trkpt lat="45.58187" lon="4.31584">
        <ele>388.79998779297</ele>
        <time>2015-07-27T18:05:57.000Z</time>
      </trkpt>
      <trkpt lat="45.58199" lon="4.31564">
        <ele>388</ele>
        <time>2015-07-27T18:05:59.000Z</time>
      </trkpt>
      <trkpt lat="45.5821" lon="4.31543">
        <ele>387.39999389648</ele>
        <time>2015-07-27T18:06:01.000Z</time>
      </trkpt>
      <trkpt lat="45.58221" lon="4.31522">
        <ele>386.79998779297</ele>
        <time>2015-07-27T18:06:03.000Z</time>
      </trkpt>
      <trkpt lat="45.58231" lon="4.315">
        <ele>386.39999389648</ele>
        <time>2015-07-27T18:06:05.000Z</time>
      </trkpt>
      <trkpt lat="45.5824" lon="4.31478">
        <ele>385.79998779297</ele>
        <time>2015-07-27T18:06:07.000Z</time>
      </trkpt>
      <trkpt lat="45.58253" lon="4.31445">
        <ele>385.20001220703</ele>
        <time>2015-07-27T18:06:10.000Z</time>
      </trkpt>
      <trkpt lat="45.58261" lon="4.31424">
        <ele>385.20001220703</ele>
        <time>2015-07-27T18:06:12.000Z</time>
      </trkpt>
      <trkpt lat="45.58282" lon="4.31405">
        <ele>384.79998779297</ele>
        <time>2015-07-27T18:06:15.000Z</time>
      </trkpt>
      <trkpt lat="45.58307" lon="4.31397">
        <ele>383.79998779297</ele>
        <time>2015-07-27T18:06:18.000Z</time>
      </trkpt>
      <trkpt lat="45.58325" lon="4.31398">
        <ele>383.39999389648</ele>
        <time>2015-07-27T18:06:20.000Z</time>
      </trkpt>
      <trkpt lat="45.58343" lon="4.31402">
        <ele>383</ele>
        <time>2015-07-27T18:06:22.000Z</time>
      </trkpt>
      <trkpt lat="45.5836" lon="4.31408">
        <ele>382.39999389648</ele>
        <time>2015-07-27T18:06:24.000Z</time>
      </trkpt>
      <trkpt lat="45.58386" lon="4.31416">
        <ele>381.60000610352</ele>
        <time>2015-07-27T18:06:27.000Z</time>
      </trkpt>
      <trkpt lat="45.58412" lon="4.31423">
        <ele>381</ele>
        <time>2015-07-27T18:06:30.000Z</time>
      </trkpt>
      <trkpt lat="45.58438" lon="4.31429">
        <ele>380.60000610352</ele>
        <time>2015-07-27T18:06:33.000Z</time>
      </trkpt>
      <trkpt lat="45.58463" lon="4.31436">
        <ele>380</ele>
        <time>2015-07-27T18:06:36.000Z</time>
      </trkpt>
      <trkpt lat="45.58487" lon="4.31442">
        <ele>380</ele>
        <time>2015-07-27T18:06:39.000Z</time>
      </trkpt>
      <trkpt lat="45.58511" lon="4.31449">
        <ele>380</ele>
        <time>2015-07-27T18:06:42.000Z</time>
      </trkpt>
      <trkpt lat="45.58533" lon="4.31455">
        <ele>380</ele>
        <time>2015-07-27T18:06:45.000Z</time>
      </trkpt>
      <trkpt lat="45.58553" lon="4.31461">
        <ele>380.20001220703</ele>
        <time>2015-07-27T18:06:48.000Z</time>
      </trkpt>
      <trkpt lat="45.58566" lon="4.31462">
        <ele>380.20001220703</ele>
        <time>2015-07-27T18:06:50.000Z</time>
      </trkpt>
      <trkpt lat="45.58569" lon="4.31431">
        <ele>379.79998779297</ele>
        <time>2015-07-27T18:06:54.000Z</time>
      </trkpt>
      <trkpt lat="45.58567" lon="4.31405">
        <ele>379.60000610352</ele>
        <time>2015-07-27T18:06:57.000Z</time>
      </trkpt>
      <trkpt lat="45.58567" lon="4.31388">
        <ele>379.20001220703</ele>
        <time>2015-07-27T18:06:59.000Z</time>
      </trkpt>
      <trkpt lat="45.58567" lon="4.31361">
        <ele>378.79998779297</ele>
        <time>2015-07-27T18:07:02.000Z</time>
      </trkpt>
      <trkpt lat="45.58566" lon="4.31334">
        <ele>378.20001220703</ele>
        <time>2015-07-27T18:07:05.000Z</time>
      </trkpt>
      <trkpt lat="45.58564" lon="4.31325">
        <ele>378</ele>
        <time>2015-07-27T18:07:06.000Z</time>
      </trkpt>
      <trkpt lat="45.58558" lon="4.31298">
        <ele>377.39999389648</ele>
        <time>2015-07-27T18:07:09.000Z</time>
      </trkpt>
      <trkpt lat="45.58553" lon="4.3127">
        <ele>377</ele>
        <time>2015-07-27T18:07:12.000Z</time>
      </trkpt>
      <trkpt lat="45.58552" lon="4.3126">
        <ele>377</ele>
        <time>2015-07-27T18:07:13.000Z</time>
      </trkpt>
      <trkpt lat="45.5855" lon="4.31232">
        <ele>377</ele>
        <time>2015-07-27T18:07:16.000Z</time>
      </trkpt>
      <trkpt lat="45.58551" lon="4.31222">
        <ele>377</ele>
        <time>2015-07-27T18:07:17.000Z</time>
      </trkpt>
      <trkpt lat="45.58557" lon="4.31195">
        <ele>377</ele>
        <time>2015-07-27T18:07:20.000Z</time>
      </trkpt>
      <trkpt lat="45.58571" lon="4.31174">
        <ele>377.20001220703</ele>
        <time>2015-07-27T18:07:23.000Z</time>
      </trkpt>
      <trkpt lat="45.58589" lon="4.31163">
        <ele>377.39999389648</ele>
        <time>2015-07-27T18:07:26.000Z</time>
      </trkpt>
      <trkpt lat="45.58609" lon="4.31168">
        <ele>377.39999389648</ele>
        <time>2015-07-27T18:07:29.000Z</time>
      </trkpt>
      <trkpt lat="45.58621" lon="4.31175">
        <ele>377.20001220703</ele>
        <time>2015-07-27T18:07:31.000Z</time>
      </trkpt>
      <trkpt lat="45.58638" lon="4.31183">
        <ele>377</ele>
        <time>2015-07-27T18:07:34.000Z</time>
      </trkpt>
      <trkpt lat="45.58648" lon="4.3119">
        <ele>376.60000610352</ele>
        <time>2015-07-27T18:07:36.000Z</time>
      </trkpt>
      <trkpt lat="45.58658" lon="4.312">
        <ele>376.39999389648</ele>
        <time>2015-07-27T18:07:38.000Z</time>
      </trkpt>
      <trkpt lat="45.58675" lon="4.31219">
        <ele>376</ele>
        <time>2015-07-27T18:07:42.000Z</time>
      </trkpt>
      <trkpt lat="45.58682" lon="4.31232">
        <ele>375.79998779297</ele>
        <time>2015-07-27T18:07:44.000Z</time>
      </trkpt>
      <trkpt lat="45.58693" lon="4.31254">
        <ele>375.60000610352</ele>
        <time>2015-07-27T18:07:47.000Z</time>
      </trkpt>
      <trkpt lat="45.58705" lon="4.31275">
        <ele>375.39999389648</ele>
        <time>2015-07-27T18:07:50.000Z</time>
      </trkpt>
      <trkpt lat="45.58717" lon="4.31298">
        <ele>375</ele>
        <time>2015-07-27T18:07:53.000Z</time>
      </trkpt>
      <trkpt lat="45.5873" lon="4.31322">
        <ele>374.39999389648</ele>
        <time>2015-07-27T18:07:56.000Z</time>
      </trkpt>
      <trkpt lat="45.58742" lon="4.31347">
        <ele>373.79998779297</ele>
        <time>2015-07-27T18:07:59.000Z</time>
      </trkpt>
      <trkpt lat="45.58747" lon="4.31354">
        <ele>373.60000610352</ele>
        <time>2015-07-27T18:08:00.000Z</time>
      </trkpt>
      <trkpt lat="45.58762" lon="4.31373">
        <ele>372.79998779297</ele>
        <time>2015-07-27T18:08:03.000Z</time>
      </trkpt>
      <trkpt lat="45.58781" lon="4.3138">
        <ele>372</ele>
        <time>2015-07-27T18:08:06.000Z</time>
      </trkpt>
      <trkpt lat="45.58793" lon="4.31383">
        <ele>371.39999389648</ele>
        <time>2015-07-27T18:08:08.000Z</time>
      </trkpt>
      <trkpt lat="45.58812" lon="4.31387">
        <ele>371.39999389648</ele>
        <time>2015-07-27T18:08:11.000Z</time>
      </trkpt>
      <trkpt lat="45.58829" lon="4.31392">
        <ele>372.39999389648</ele>
        <time>2015-07-27T18:08:14.000Z</time>
      </trkpt>
      <trkpt lat="45.58853" lon="4.314">
        <ele>373</ele>
        <time>2015-07-27T18:08:18.000Z</time>
      </trkpt>
      <trkpt lat="45.58875" lon="4.31407">
        <ele>373.79998779297</ele>
        <time>2015-07-27T18:08:22.000Z</time>
      </trkpt>
      <trkpt lat="45.58898" lon="4.31413">
        <ele>375.20001220703</ele>
        <time>2015-07-27T18:08:26.000Z</time>
      </trkpt>
      <trkpt lat="45.58919" lon="4.31419">
        <ele>376.79998779297</ele>
        <time>2015-07-27T18:08:30.000Z</time>
      </trkpt>
      <trkpt lat="45.58934" lon="4.31426">
        <ele>378</ele>
        <time>2015-07-27T18:08:33.000Z</time>
      </trkpt>
      <trkpt lat="45.58948" lon="4.31444">
        <ele>379.39999389648</ele>
        <time>2015-07-27T18:08:37.000Z</time>
      </trkpt>
      <trkpt lat="45.58967" lon="4.31452">
        <ele>381.39999389648</ele>
        <time>2015-07-27T18:08:42.000Z</time>
      </trkpt>
      <trkpt lat="45.58976" lon="4.31447">
        <ele>381.60000610352</ele>
        <time>2015-07-27T18:08:44.000Z</time>
      </trkpt>
      <trkpt lat="45.5898" lon="4.31445">
        <ele>381.79998779297</ele>
        <time>2015-07-27T18:08:45.000Z</time>
      </trkpt>
      <trkpt lat="45.58999" lon="4.31446">
        <ele>383</ele>
        <time>2015-07-27T18:08:49.000Z</time>
      </trkpt>
      <trkpt lat="45.59018" lon="4.3145">
        <ele>385</ele>
        <time>2015-07-27T18:08:54.000Z</time>
      </trkpt>
      <trkpt lat="45.59038" lon="4.31456">
        <ele>386.79998779297</ele>
        <time>2015-07-27T18:08:59.000Z</time>
      </trkpt>
      <trkpt lat="45.59059" lon="4.31461">
        <ele>388.79998779297</ele>
        <time>2015-07-27T18:09:04.000Z</time>
      </trkpt>
      <trkpt lat="45.59079" lon="4.31464">
        <ele>390.20001220703</ele>
        <time>2015-07-27T18:09:09.000Z</time>
      </trkpt>
      <trkpt lat="45.59087" lon="4.31464">
        <ele>390.60000610352</ele>
        <time>2015-07-27T18:09:11.000Z</time>
      </trkpt>
      <trkpt lat="45.59106" lon="4.31463">
        <ele>391.39999389648</ele>
        <time>2015-07-27T18:09:16.000Z</time>
      </trkpt>
      <trkpt lat="45.5911" lon="4.31463">
        <ele>391.60000610352</ele>
        <time>2015-07-27T18:09:17.000Z</time>
      </trkpt>
      <trkpt lat="45.5913" lon="4.31457">
        <ele>391.79998779297</ele>
        <time>2015-07-27T18:09:22.000Z</time>
      </trkpt>
      <trkpt lat="45.59134" lon="4.31455">
        <ele>391.79998779297</ele>
        <time>2015-07-27T18:09:23.000Z</time>
      </trkpt>
      <trkpt lat="45.59145" lon="4.31436">
        <ele>390.79998779297</ele>
        <time>2015-07-27T18:09:27.000Z</time>
      </trkpt>
      <trkpt lat="45.5916" lon="4.3141">
        <ele>389.60000610352</ele>
        <time>2015-07-27T18:09:31.000Z</time>
      </trkpt>
      <trkpt lat="45.59168" lon="4.31395">
        <ele>388.79998779297</ele>
        <time>2015-07-27T18:09:33.000Z</time>
      </trkpt>
      <trkpt lat="45.59181" lon="4.31368">
        <ele>387</ele>
        <time>2015-07-27T18:09:36.000Z</time>
      </trkpt>
      <trkpt lat="45.59191" lon="4.31349">
        <ele>386.20001220703</ele>
        <time>2015-07-27T18:09:38.000Z</time>
      </trkpt>
      <trkpt lat="45.59212" lon="4.3133">
        <ele>385.39999389648</ele>
        <time>2015-07-27T18:09:41.000Z</time>
      </trkpt>
      <trkpt lat="45.59225" lon="4.31324">
        <ele>385.60000610352</ele>
        <time>2015-07-27T18:09:43.000Z</time>
      </trkpt>
      <trkpt lat="45.59242" lon="4.31315">
        <ele>386.20001220703</ele>
        <time>2015-07-27T18:09:46.000Z</time>
      </trkpt>
      <trkpt lat="45.59247" lon="4.31311">
        <ele>386.39999389648</ele>
        <time>2015-07-27T18:09:47.000Z</time>
      </trkpt>
      <trkpt lat="45.59256" lon="4.31304">
        <ele>386.79998779297</ele>
        <time>2015-07-27T18:09:49.000Z</time>
      </trkpt>
      <trkpt lat="45.59272" lon="4.31285">
        <ele>387.39999389648</ele>
        <time>2015-07-27T18:09:53.000Z</time>
      </trkpt>
      <trkpt lat="45.59288" lon="4.31267">
        <ele>388</ele>
        <time>2015-07-27T18:09:57.000Z</time>
      </trkpt>
      <trkpt lat="45.59304" lon="4.31248">
        <ele>388.60000610352</ele>
        <time>2015-07-27T18:10:01.000Z</time>
      </trkpt>
      <trkpt lat="45.59321" lon="4.31229">
        <ele>388</ele>
        <time>2015-07-27T18:10:05.000Z</time>
      </trkpt>
      <trkpt lat="45.59338" lon="4.3121">
        <ele>387.39999389648</ele>
        <time>2015-07-27T18:10:09.000Z</time>
      </trkpt>
      <trkpt lat="45.59342" lon="4.31204">
        <ele>387.39999389648</ele>
        <time>2015-07-27T18:10:10.000Z</time>
      </trkpt>
      <trkpt lat="45.59359" lon="4.31203">
        <ele>387.60000610352</ele>
        <time>2015-07-27T18:10:14.000Z</time>
      </trkpt>
      <trkpt lat="45.59361" lon="4.31231">
        <ele>389</ele>
        <time>2015-07-27T18:10:18.000Z</time>
      </trkpt>
      <trkpt lat="45.59362" lon="4.31238">
        <ele>389.39999389648</ele>
        <time>2015-07-27T18:10:19.000Z</time>
      </trkpt>
      <trkpt lat="45.59363" lon="4.31251">
        <ele>390</ele>
        <time>2015-07-27T18:10:21.000Z</time>
      </trkpt>
      <trkpt lat="45.59383" lon="4.31248">
        <ele>390.39999389648</ele>
        <time>2015-07-27T18:10:26.000Z</time>
      </trkpt>
      <trkpt lat="45.59387" lon="4.31244">
        <ele>390.20001220703</ele>
        <time>2015-07-27T18:10:27.000Z</time>
      </trkpt>
      <trkpt lat="45.59405" lon="4.31226">
        <ele>389.60000610352</ele>
        <time>2015-07-27T18:10:31.000Z</time>
      </trkpt>
      <trkpt lat="45.59413" lon="4.31218">
        <ele>389.39999389648</ele>
        <time>2015-07-27T18:10:33.000Z</time>
      </trkpt>
      <trkpt lat="45.59424" lon="4.31196">
        <ele>389</ele>
        <time>2015-07-27T18:10:37.000Z</time>
      </trkpt>
      <trkpt lat="45.59436" lon="4.31173">
        <ele>388.39999389648</ele>
        <time>2015-07-27T18:10:41.000Z</time>
      </trkpt>
      <trkpt lat="45.59448" lon="4.31151">
        <ele>388.20001220703</ele>
        <time>2015-07-27T18:10:45.000Z</time>
      </trkpt>
      <trkpt lat="45.5945" lon="4.31146">
        <ele>388.20001220703</ele>
        <time>2015-07-27T18:10:46.000Z</time>
      </trkpt>
      <trkpt lat="45.59447" lon="4.31121">
        <ele>387.39999389648</ele>
        <time>2015-07-27T18:10:50.000Z</time>
      </trkpt>
      <trkpt lat="45.59434" lon="4.31118">
        <ele>386.79998779297</ele>
        <time>2015-07-27T18:10:57.000Z</time>
      </trkpt>
    </trkseg>
  </trk>
</gpx>